ECMWFFLT1_sfc_temp_027.txt.gz
Temp
83 83 82 83 82 82 82 82 82 82 82 82 82 82 82 82 81 80 80 79 79 78 78 78 78 78 78 79 79 79 79 79 78 78 77 77 77 76 76 76 76 76 76 75 75 75 76 76 75 75 75 74 74 74 73 73 72 72 71 71 70 70 70
81 83 83 83 82 82 82 83 83 83 83 83 82 82 83 82 81 80 80 79 79 79 79 78 78 78 78 79 79 79 78 78 79 78 78 77 77 77 77 76 76 76 76 77 76 76 75 76 76 75 75 75 74 74 74 73 72 71 71 70 70 69 70
81 83 83 83 83 82 82 83 83 84 84 84 83 83 82 81 81 81 80 80 79 79 79 79 79 78 79 79 78 78 79 79 78 78 77 77 77 78 77 77 77 77 77 77 76 76 76 75 75 76 75 74 74 74 74 74 73 71 71 70 70 70 69
81 83 83 84 83 83 84 84 83 84 85 85 84 84 83 82 82 82 81 81 80 79 78 79 79 79 79 78 78 78 78 78 79 79 78 78 78 78 77 77 77 77 76 76 77 77 76 76 75 75 76 75 74 74 74 74 74 72 71 70 70 70 70
82 83 84 83 83 83 83 83 83 84 85 86 85 84 84 84 83 82 82 82 82 80 81 80 81 80 80 80 79 79 79 78 78 79 79 79 78 78 77 77 77 77 77 77 76 76 75 75 75 75 75 75 74 74 73 73 73 72 71 70 70 70 70
82 82 82 84 84 84 85 85 85 85 85 85 85 84 84 84 84 83 83 82 81 82 81 81 80 80 79 80 80 79 79 79 79 79 79 79 78 78 78 78 78 77 77 77 77 76 76 76 75 75 75 75 75 74 74 73 73 72 72 70 70 70 70
82 82 83 84 85 85 85 86 86 86 86 86 86 86 85 85 84 84 84 82 82 81 81 80 81 80 80 80 80 79 78 79 79 78 79 79 78 78 78 78 78 78 78 77 77 77 76 75 75 75 75 75 75 75 74 73 73 72 72 70 70 70 70
84 83 83 84 86 86 87 86 87 87 87 86 86 85 85 85 85 84 83 84 83 82 82 81 80 80 80 80 80 79 79 79 79 79 79 78 78 78 78 78 78 78 77 77 77 77 77 76 76 76 75 75 75 74 74 74 73 73 72 71 70 69 70
85 85 84 86 86 87 87 87 87 87 85 84 84 84 84 84 84 84 84 84 83 82 82 83 82 81 81 80 79 79 80 79 79 79 78 78 78 78 79 78 78 78 77 77 77 77 77 76 76 76 75 75 75 74 74 74 73 73 72 71 71 70 70
83 82 83 86 87 88 88 87 86 85 83 82 82 82 83 84 84 84 84 84 84 83 83 83 83 82 81 80 80 80 79 79 79 79 79 78 78 78 79 79 79 79 78 78 78 77 77 77 76 76 75 75 74 74 74 74 74 73 72 72 72 71 71
82 82 82 83 84 85 86 86 84 82 82 81 81 83 83 83 84 84 84 84 84 84 84 83 83 82 81 81 80 80 79 79 79 78 78 78 79 79 79 80 80 79 78 78 78 77 77 76 76 75 75 75 75 74 74 74 74 73 73 73 73 72 72
79 79 80 81 82 84 84 84 83 81 81 81 82 83 82 82 83 84 84 84 85 84 84 83 83 83 82 81 80 79 79 79 79 79 78 79 79 79 80 80 79 79 79 78 78 78 77 77 76 76 75 75 75 75 74 74 74 73 73 73 73 73 73
78 79 80 82 82 84 83 81 81 81 81 82 83 83 83 83 83 84 83 84 85 85 84 83 83 82 82 81 81 79 79 79 79 79 79 79 79 80 79 80 80 80 79 79 79 78 77 77 76 76 76 75 75 75 74 74 74 73 73 73 73 72 72
79 78 79 80 81 80 80 81 81 80 80 81 82 82 83 83 84 84 83 83 84 85 84 84 83 82 81 81 80 79 79 80 80 79 79 79 79 79 79 79 79 79 79 79 78 79 78 77 77 77 76 76 75 75 75 74 74 73 73 73 73 72 72
76 79 80 79 78 78 79 80 79 79 80 81 82 81 82 82 83 83 83 84 84 85 84 84 82 81 81 80 79 79 80 80 80 80 79 79 78 78 78 78 79 79 79 78 78 79 79 79 78 76 75 75 75 74 75 74 74 74 74 73 72 72 72
78 79 80 80 80 80 79 80 80 80 80 80 81 81 82 81 81 82 83 83 84 84 85 83 82 81 81 80 80 80 80 80 80 79 79 78 78 78 78 78 78 78 78 78 78 78 78 78 77 77 76 75 74 74 74 74 75 71 65 68 73 72 72
77 79 81 81 80 80 80 80 80 79 79 79 80 81 82 82 82 83 84 84 84 84 85 84 82 81 81 80 81 80 80 79 79 79 78 78 78 78 78 78 78 78 77 77 77 77 77 77 77 77 77 76 75 74 74 75 74 66 63 65 67 71 71
75 76 78 80 79 78 78 79 79 78 79 80 81 81 82 81 82 82 83 84 85 85 85 84 83 82 81 81 80 80 79 79 79 78 78 78 78 78 78 78 77 77 77 77 77 77 77 77 76 76 76 76 76 75 75 75 68 64 63 64 64 67 72
75 76 78 79 78 78 79 80 80 80 81 82 82 83 83 83 83 82 83 83 84 85 85 84 83 81 81 81 80 80 80 79 79 78 78 78 78 78 78 77 77 77 76 76 77 77 76 76 76 76 76 76 75 75 76 75 67 63 62 63 63 65 69
76 78 78 80 81 81 81 81 81 82 82 83 83 85 86 85 84 84 85 85 85 84 84 83 83 82 81 81 80 80 80 79 79 78 78 78 78 78 77 77 77 77 77 77 76 76 76 76 76 76 75 76 75 75 76 75 66 62 61 61 62 64 67
69 71 75 78 77 79 78 79 80 80 80 81 83 84 84 84 85 85 85 84 83 83 83 83 82 82 81 80 80 80 79 79 79 78 78 78 78 77 77 77 77 77 77 77 77 76 76 76 75 76 76 76 76 75 75 76 65 61 60 60 60 63 65
70 71 73 76 78 79 78 78 79 80 80 82 82 83 85 85 86 85 85 85 84 83 83 83 82 81 81 80 80 80 80 79 79 79 78 78 78 77 77 77 77 76 77 77 77 77 77 76 77 76 75 76 76 75 74 76 64 60 60 59 60 62 67
70 71 73 73 74 76 77 81 82 83 82 82 83 83 84 86 86 85 85 83 83 83 83 83 81 81 81 81 81 80 80 80 79 78 78 78 77 77 77 77 76 77 77 76 77 76 76 76 76 76 76 76 75 75 74 74 64 59 58 58 59 61 67
70 69 69 71 72 76 76 76 78 79 82 82 82 84 85 86 86 84 82 82 82 82 82 82 81 81 81 81 81 81 81 80 80 79 78 78 77 77 77 78 78 78 78 77 76 76 76 77 76 76 77 76 75 75 74 75 63 56 57 57 57 61 68
68 68 69 69 69 69 71 74 76 78 78 77 80 81 82 84 84 83 81 81 82 82 81 81 81 81 81 81 82 82 81 81 80 79 79 78 78 78 78 77 77 78 78 78 77 77 77 77 76 75 75 76 76 70 73 74 64 55 57 56 56 62 68
65 66 68 69 70 69 69 70 76 76 79 78 79 81 80 80 81 80 80 80 82 81 81 81 81 82 83 83 82 82 81 81 80 80 79 79 79 79 79 78 78 77 77 77 78 77 77 76 76 75 74 74 75 74 74 72 68 60 55 55 55 59 68
65 66 67 68 68 69 68 69 71 74 78 79 78 78 79 81 80 80 80 80 80 81 83 83 83 83 83 83 82 81 81 81 81 80 81 80 79 79 79 78 78 78 77 76 77 76 75 75 75 75 73 72 73 72 71 72 69 62 54 54 54 57 62
66 67 68 69 70 68 68 68 68 70 73 73 74 77 78 79 79 79 78 78 79 82 85 84 83 83 83 82 82 81 81 81 81 82 81 81 80 79 78 78 79 78 77 77 76 75 74 73 73 72 69 69 69 70 69 68 66 64 54 54 53 54 59
64 64 65 66 66 68 68 67 68 68 69 70 72 74 77 77 76 76 77 77 80 81 81 80 80 81 81 80 80 80 80 81 80 81 81 80 80 79 78 78 78 77 76 75 74 73 72 71 70 68 66 65 64 64 64 64 64 59 58 53 52 53 56
65 65 66 66 67 66 67 66 67 67 68 68 69 69 73 78 75 75 74 76 73 75 77 77 78 78 78 78 79 80 80 80 81 82 82 81 80 79 78 77 77 76 75 74 72 71 69 67 67 66 65 64 62 62 62 62 62 58 57 56 53 53 54
65 65 65 65 65 66 66 65 65 66 66 67 67 68 67 70 75 74 76 75 72 74 77 78 77 77 77 79 79 79 79 79 80 81 81 80 79 78 77 76 75 72 71 71 70 68 67 66 66 65 64 63 62 61 61 61 61 61 57 55 54 54 54
66 67 67 66 65 65 65 65 66 66 66 66 67 68 68 67 69 73 74 71 73 76 77 78 77 76 77 78 78 78 79 78 79 79 80 79 79 79 78 76 73 71 70 69 67 67 66 66 65 65 65 64 64 62 60 60 60 60 59 58 57 57 55
64 65 66 65 66 65 64 65 65 66 66 66 67 68 68 68 68 67 67 68 71 74 76 77 77 76 76 76 77 77 77 78 77 78 78 77 76 77 75 72 71 70 68 68 67 67 66 66 66 65 65 64 63 62 60 60 60 60 60 59 60 60 59
63 65 66 67 66 65 65 65 65 65 66 66 67 67 68 68 67 68 68 70 72 73 73 74 74 73 73 73 73 74 73 73 75 74 72 73 74 72 71 70 70 69 69 69 69 68 68 67 66 65 65 64 63 61 61 60 60 60 60 60 60 60 60
63 64 65 66 65 65 64 65 65 65 66 66 67 67 67 67 67 68 67 68 70 70 70 71 70 70 70 71 71 71 71 72 72 72 71 70 70 68 69 70 70 69 69 71 71 73 71 68 67 67 68 66 64 62 61 61 60 61 57 62 57 60 61
63 64 65 66 66 65 65 65 65 65 65 66 67 67 67 67 68 68 69 68 68 68 67 66 67 68 69 70 70 71 70 71 70 71 70 69 65 62 58 53 50 58 69 67 65 64 62 62 68 69 68 67 66 67 65 63 63 55 51 50 49 50 52
62 63 64 65 65 66 66 66 66 66 66 66 67 67 68 68 68 68 68 68 68 68 67 68 67 68 68 69 69 69 70 70 70 70 68 67 66 65 61 58 54 44 46 57 61 56 53 54 54 57 61 66 64 59 55 55 51 49 48 47 47 48 48
64 64 65 65 65 65 66 66 66 66 65 66 67 67 67 68 68 68 68 68 68 67 66 66 66 66 67 67 67 68 68 69 69 68 67 66 66 64 62 60 58 53 46 44 51 51 50 50 50 51 52 55 59 59 57 51 48 48 47 47 46 46 46

ECMWFFLT1_sfc_temp_030.txt.gz
Temp
80 80 80 81 80 80 80 80 80 80 80 80 80 80 80 80 79 79 78 77 77 77 77 77 77 77 77 77 78 78 78 78 78 77 77 77 77 76 76 76 76 76 76 76 76 76 77 77 77 77 77 77 76 76 75 75 74 74 73 73 72 72 72
79 80 80 81 80 80 80 81 80 81 81 81 80 80 81 80 79 79 78 78 78 77 77 77 77 77 78 78 78 78 77 78 78 78 78 77 77 77 77 76 76 76 76 77 77 77 77 77 77 77 76 77 77 76 75 75 74 73 73 72 72 71 72
79 80 81 81 81 81 80 81 81 81 81 82 82 81 80 79 80 79 79 78 77 78 78 77 77 78 78 78 78 77 78 78 78 78 77 78 77 78 77 77 77 77 77 77 77 77 77 77 77 77 77 76 77 76 75 74 74 73 73 72 72 72 71
78 80 81 81 81 81 81 81 81 82 83 83 83 82 81 80 81 80 80 80 78 78 77 78 78 78 78 77 77 77 77 78 78 78 79 78 78 78 77 77 77 77 77 77 78 78 77 77 76 76 77 76 76 76 75 75 74 73 73 72 72 72 71
78 80 81 80 81 81 81 81 82 82 83 85 84 82 82 82 82 81 81 81 81 79 80 80 80 79 79 79 79 78 78 78 78 79 79 79 78 78 77 77 77 77 77 78 77 77 76 76 76 76 76 76 76 75 75 75 75 73 72 72 71 71 72
79 79 79 81 82 82 82 83 83 84 84 84 84 83 83 84 84 83 82 81 81 81 80 80 79 79 78 79 79 79 79 78 78 78 78 78 78 77 78 78 78 78 78 77 78 77 77 76 76 76 76 77 77 76 75 75 75 74 73 72 72 72 72
81 80 80 81 82 82 83 83 84 85 85 85 85 85 85 85 84 84 83 82 82 80 80 80 81 80 79 79 79 79 78 78 78 78 79 79 78 78 78 78 78 78 78 77 77 77 77 76 76 76 76 76 76 76 75 74 74 74 73 72 71 71 72
82 81 81 81 83 84 84 84 84 85 85 84 85 85 84 84 84 84 83 83 83 83 82 82 81 80 79 79 79 79 79 79 79 79 79 79 78 78 78 78 78 78 77 77 77 77 77 76 77 76 76 76 75 75 75 74 74 74 74 72 71 71 72
82 82 82 83 84 85 85 84 84 84 83 82 83 83 84 84 84 84 84 84 83 83 82 83 83 82 80 79 79 79 79 79 79 79 78 79 79 79 79 79 79 78 78 78 78 77 77 77 77 76 76 76 75 75 75 74 74 74 73 73 72 72 72
80 79 80 81 82 84 83 84 83 82 81 80 81 81 82 83 84 84 84 84 84 83 83 83 83 83 81 80 80 80 79 79 79 79 79 79 79 79 80 80 80 79 78 78 78 77 77 77 77 76 75 75 75 75 75 74 74 74 74 73 73 73 72
78 77 77 77 77 80 81 83 80 79 80 79 79 82 82 82 83 84 83 84 84 84 85 84 84 83 82 81 81 80 79 79 80 79 79 79 80 80 80 81 81 79 79 78 78 78 77 77 77 76 75 75 75 75 75 75 75 74 74 74 74 73 73
73 74 74 75 76 77 79 80 80 79 78 78 80 82 80 81 83 84 84 84 85 85 84 84 84 84 82 82 81 79 79 79 80 79 79 79 80 80 80 81 80 80 79 79 78 78 78 77 76 76 75 76 76 76 75 75 75 74 74 74 74 74 74
72 73 75 76 76 78 77 76 77 78 78 80 82 82 82 83 83 84 82 83 85 85 85 84 83 82 82 82 81 79 80 80 79 79 80 79 80 80 80 80 81 80 79 79 79 78 78 77 77 77 76 76 76 76 75 75 75 75 74 74 74 73 73
73 71 72 73 73 75 75 76 77 78 78 80 81 81 82 83 84 83 82 83 84 85 85 84 83 82 81 81 80 79 80 80 80 79 79 80 79 79 79 80 80 79 79 79 79 79 78 78 77 77 77 77 76 76 76 75 75 75 75 74 74 74 73
70 72 73 73 73 74 75 76 76 77 78 79 81 80 81 82 82 82 82 84 83 85 85 84 82 81 81 80 79 79 80 80 80 80 79 79 78 78 78 79 79 79 79 78 79 79 80 79 78 77 76 76 76 76 76 75 75 75 75 74 74 74 74
70 71 72 73 74 76 76 77 77 77 78 78 79 79 81 80 80 82 83 83 84 83 85 83 82 80 81 80 80 80 80 79 79 79 79 78 77 77 78 79 79 79 78 78 78 78 78 78 78 78 77 76 76 76 75 75 76 71 65 68 74 74 74
70 71 72 73 73 75 76 77 78 77 77 77 78 79 80 80 81 82 84 84 85 83 84 84 81 81 80 80 80 80 79 79 79 79 78 78 78 78 77 78 78 78 77 77 78 78 77 78 77 78 78 77 76 75 75 76 75 66 63 65 67 73 74
69 69 71 73 74 75 75 77 77 77 78 79 80 80 81 80 81 82 83 84 84 85 85 84 83 81 80 80 80 79 79 79 78 78 78 78 77 77 78 78 78 77 77 77 77 77 78 77 77 77 77 77 77 76 76 76 68 64 63 64 64 67 74
70 71 71 69 71 73 76 79 79 78 80 82 81 81 83 83 82 81 82 82 84 85 84 83 83 80 79 80 80 79 79 78 78 78 78 78 78 78 77 77 77 77 77 77 77 77 76 76 77 77 77 77 76 76 76 77 68 63 62 63 63 64 69
67 69 70 70 71 74 75 76 79 80 81 81 82 84 85 84 84 83 84 85 84 83 83 82 82 81 80 80 79 79 79 78 78 78 78 78 78 78 77 77 77 77 78 78 77 77 76 77 77 77 76 76 76 76 77 76 67 62 61 61 62 63 67
62 64 67 69 69 72 73 74 76 77 77 80 83 82 82 82 84 84 83 83 82 82 80 81 81 80 80 79 79 79 79 78 78 78 78 78 78 77 77 77 77 77 77 78 77 77 76 76 76 76 76 77 77 76 76 77 65 60 60 60 60 62 64
64 65 65 68 69 70 71 74 75 78 78 81 81 82 83 84 85 84 84 84 83 82 82 81 80 80 80 79 79 79 79 79 78 78 78 78 77 77 77 77 77 77 77 77 77 78 78 77 77 77 76 77 77 76 76 78 63 60 59 59 59 61 67
65 65 66 66 67 69 70 73 75 77 77 78 79 80 82 84 85 84 84 83 83 81 82 81 79 79 79 79 80 79 79 79 78 78 78 77 77 77 77 77 77 77 78 77 77 77 76 77 77 77 77 76 76 76 76 77 65 58 58 58 58 60 69
66 66 66 67 67 67 67 68 73 76 79 78 78 80 81 83 83 82 80 80 81 81 81 80 79 79 79 79 79 79 79 79 79 78 78 77 77 77 77 78 78 78 78 77 77 76 77 77 77 77 77 77 76 77 76 77 66 57 57 57 57 61 70
66 66 66 67 67 67 68 68 69 74 75 76 78 78 80 82 82 81 79 79 81 81 80 80 79 80 79 80 80 80 79 79 79 79 78 78 78 78 77 77 77 78 78 78 78 77 77 77 77 77 77 78 77 70 74 77 68 56 57 56 56 62 71
64 65 66 68 68 68 68 68 71 74 74 75 75 77 78 80 80 79 78 79 81 81 80 80 80 80 81 81 80 80 79 80 79 79 79 78 78 78 78 78 78 78 78 78 78 78 78 77 77 76 76 77 77 76 76 76 74 62 56 56 55 59 70
65 65 66 67 67 69 68 69 69 69 71 71 74 77 78 79 78 77 77 77 78 79 81 82 81 80 80 80 81 80 80 80 80 79 79 79 79 79 79 78 78 78 78 78 78 77 76 76 77 76 76 76 76 76 76 77 75 66 55 54 54 56 63
65 66 67 68 68 67 68 69 68 69 69 69 70 75 77 77 76 75 75 75 77 79 82 81 79 79 79 79 79 80 79 79 80 80 80 80 79 78 78 79 79 79 78 78 77 76 75 75 75 75 75 75 75 76 75 73 70 70 55 55 54 54 59
64 64 64 65 66 66 67 66 67 67 67 68 69 69 73 77 75 75 75 75 77 80 79 78 79 78 78 78 78 78 79 79 79 80 81 80 79 79 78 78 78 78 77 77 76 75 75 74 74 74 74 73 73 74 75 74 71 62 61 54 53 53 56
65 65 66 66 66 66 66 65 66 66 67 67 68 68 67 70 74 73 73 75 77 78 77 78 78 77 77 77 78 78 78 79 80 81 81 80 79 79 78 77 77 77 77 76 76 75 74 74 74 73 73 72 71 71 71 71 71 62 59 58 53 53 55
65 65 65 64 64 65 66 65 65 66 66 67 67 68 67 68 69 70 72 71 71 75 76 76 76 76 77 77 78 77 78 79 79 79 80 80 80 78 78 77 77 76 76 75 74 74 73 73 73 72 71 70 68 67 67 68 69 66 61 57 54 54 54
65 66 65 65 64 65 65 66 66 66 66 66 67 67 68 68 67 67 67 68 70 72 74 76 76 75 76 77 77 78 79 78 78 79 80 80 80 79 79 79 77 75 74 73 73 73 73 72 71 70 70 69 68 66 66 66 66 65 63 59 57 56 55
65 65 65 64 65 66 66 66 65 65 65 65 66 67 68 68 68 68 68 68 70 72 72 73 75 75 75 75 77 77 77 78 79 79 80 79 79 79 79 77 76 75 73 73 73 73 72 72 71 70 70 70 69 68 65 63 63 62 60 60 59 60 59
64 65 66 66 66 67 66 66 65 65 65 66 67 68 68 68 68 68 68 68 70 71 71 72 73 73 73 74 74 75 75 76 76 76 75 76 77 76 75 76 76 75 75 75 74 74 73 73 71 71 71 70 69 66 62 61 61 60 59 59 61 62 63
64 65 65 65 66 66 66 66 66 66 66 66 67 68 68 68 68 68 68 68 68 69 70 69 68 70 72 72 72 71 72 73 73 74 74 74 75 76 75 75 76 75 75 77 77 77 76 74 73 72 72 70 68 63 61 61 60 61 58 62 59 62 64
64 64 65 66 67 67 66 67 67 66 66 66 67 68 68 67 68 68 68 68 68 68 68 68 68 68 69 69 70 70 71 71 71 71 72 75 75 74 74 69 62 69 77 75 70 68 66 64 71 69 67 64 64 65 63 61 63 56 52 51 52 53 56
63 63 64 65 65 65 65 66 66 66 66 66 67 68 68 68 68 68 68 68 68 68 67 67 68 67 67 67 67 67 68 68 69 70 70 71 72 73 72 70 65 53 54 62 65 60 55 56 57 58 62 66 65 64 62 60 54 50 49 49 49 50 49
63 63 63 64 64 64 64 64 64 65 65 66 67 67 68 68 68 68 69 69 68 68 67 66 66 65 65 66 66 66 66 66 66 66 66 67 68 69 68 65 64 63 53 52 56 54 53 53 53 54 56 58 61 61 60 53 48 47 47 48 48 48 47

ECMWFFLT1_sfc_temp_033.txt.gz
Temp
87 86 86 86 85 86 85 85 84 85 84 84 84 85 86 85 84 84 83 82 81 81 82 82 81 82 82 82 82 82 83 83 83 82 82 83 83 83 82 83 83 83 84 84 84 84 85 85 84 85 85 84 84 83 83 83 83 83 83 82 81 82 81
86 86 87 87 86 86 86 86 85 86 85 85 85 84 86 85 84 84 83 83 82 82 82 82 81 82 82 82 82 82 82 82 83 83 83 83 83 83 84 83 83 83 83 84 85 85 85 85 85 84 84 84 84 84 83 83 83 83 83 82 81 81 80
87 87 87 87 86 86 85 87 86 86 86 87 87 86 85 84 84 84 84 83 82 82 83 82 82 82 82 82 82 82 82 83 83 83 82 83 83 85 84 83 83 84 84 85 85 85 85 85 84 84 84 84 85 84 83 83 83 83 83 82 82 81 79
86 87 87 87 87 87 87 87 87 88 88 88 88 88 86 84 85 85 85 85 83 83 82 83 83 83 83 82 82 82 82 82 83 84 84 84 84 84 84 83 83 84 84 84 86 86 86 85 84 84 83 84 84 84 84 83 84 83 82 81 81 81 80
87 88 88 87 87 86 87 87 87 87 89 90 89 87 87 86 87 87 86 86 87 84 85 85 86 85 83 83 83 83 83 83 83 84 84 85 84 84 83 84 84 85 85 85 85 84 84 83 84 84 83 83 84 83 83 83 84 83 82 82 80 81 81
87 86 86 87 88 88 88 89 90 90 90 90 90 89 89 90 90 89 88 86 87 87 86 85 84 84 83 84 84 84 84 83 83 83 84 84 84 84 84 84 85 85 86 84 85 85 84 84 84 84 84 85 85 84 84 84 84 84 82 81 81 81 82
88 87 86 87 88 89 89 89 91 92 91 91 92 91 91 92 90 90 90 89 88 86 86 86 86 85 83 84 84 83 83 83 83 83 84 85 84 84 84 84 84 85 86 85 84 85 84 83 84 84 84 85 84 84 83 83 83 84 82 81 80 80 80
89 88 87 88 90 91 91 90 91 92 92 91 92 92 92 92 92 91 90 91 90 90 89 89 87 85 84 84 84 84 84 84 85 85 84 84 84 84 84 84 84 84 84 84 84 85 85 84 85 84 84 85 83 83 84 83 82 85 83 80 80 80 81
91 89 89 90 90 92 92 91 90 90 89 88 89 90 91 91 92 91 91 91 91 90 90 91 90 88 84 84 83 83 84 85 85 84 84 85 85 86 86 86 85 85 84 85 86 85 85 85 85 83 83 83 83 82 83 82 82 83 82 81 80 80 81
88 87 87 90 91 92 91 91 89 88 87 86 86 87 89 90 90 91 92 92 92 91 91 91 91 90 86 85 85 85 84 84 84 86 86 86 86 87 88 88 87 86 85 85 87 85 84 85 85 84 82 82 82 82 82 82 82 82 82 81 81 80 80
87 85 86 87 87 88 88 90 87 85 85 84 85 88 88 89 89 91 91 92 92 92 93 92 91 91 88 87 87 86 84 85 86 85 85 86 87 87 88 89 89 87 86 86 86 86 85 84 84 83 82 82 82 82 82 82 82 81 82 82 82 81 81
83 83 83 84 85 86 86 85 85 84 84 84 86 88 86 87 90 91 91 91 93 93 92 92 93 91 89 89 87 85 85 85 86 86 86 87 88 88 88 89 88 88 87 87 86 86 86 84 84 83 82 82 83 83 82 82 82 81 82 83 83 82 82
83 82 82 85 84 85 84 83 83 83 83 86 89 88 89 89 90 91 88 89 92 93 92 91 91 89 90 89 89 86 86 86 85 85 87 86 87 87 88 88 89 89 88 87 87 87 86 86 84 83 83 83 83 83 82 82 82 81 81 82 82 81 81
79 82 83 82 83 82 82 82 82 83 83 85 87 88 89 90 91 90 89 89 91 93 93 92 90 88 88 87 87 85 86 87 86 85 85 86 85 85 86 87 88 87 87 87 86 87 87 87 85 85 84 83 83 83 83 82 82 82 81 81 82 81 81
84 86 85 84 82 81 82 83 82 82 84 85 87 87 88 89 90 89 89 90 90 93 92 90 89 87 88 86 85 84 85 85 86 85 85 84 84 84 84 85 86 86 86 85 86 87 88 88 87 85 83 84 83 83 83 83 82 82 82 81 81 82 81
85 86 86 85 84 84 82 82 83 82 83 83 85 85 88 87 87 89 89 90 91 90 92 90 88 86 87 86 85 85 85 84 84 84 83 83 83 82 83 85 85 86 85 84 85 85 85 86 86 86 85 83 83 83 83 82 83 75 67 71 81 81 81
88 87 87 85 84 83 83 83 84 83 83 83 83 85 86 86 87 89 92 92 92 90 92 92 87 87 87 86 86 85 85 84 83 83 83 83 83 83 83 83 84 84 83 83 84 84 83 84 85 86 86 84 84 83 82 83 81 67 65 66 68 78 81
86 85 86 86 84 83 82 83 83 83 83 86 86 86 86 85 88 90 91 92 92 93 93 92 90 88 85 86 85 85 84 84 84 83 83 83 82 82 83 83 83 83 83 83 83 83 84 83 83 83 85 84 85 84 83 83 70 65 64 65 64 68 81
85 86 86 82 81 80 83 86 86 84 86 88 88 87 89 88 89 87 89 89 91 92 93 92 90 86 85 86 86 84 84 84 83 83 83 82 83 83 82 82 82 82 82 83 83 83 82 82 83 83 83 84 83 83 84 85 69 64 64 64 63 64 72
85 87 85 83 82 82 83 83 85 88 88 87 89 92 92 91 90 89 91 92 91 91 90 88 89 87 87 85 85 84 84 84 83 83 82 83 82 82 82 82 82 83 84 84 83 82 82 83 82 82 82 82 82 82 83 83 69 63 62 62 62 63 68
80 79 79 79 77 81 80 80 81 83 85 89 91 91 91 90 91 91 91 91 90 89 86 87 87 87 86 85 85 85 84 84 83 83 83 83 82 82 82 81 82 82 83 84 83 82 81 82 82 82 82 83 83 82 83 84 67 62 61 60 60 61 65
81 80 79 80 78 76 76 79 81 84 85 88 90 92 92 92 93 93 93 93 91 90 89 87 86 87 87 85 85 85 85 84 83 83 83 83 82 82 81 81 81 81 82 83 83 83 84 83 83 83 82 83 83 83 82 85 65 62 60 59 59 60 72
77 77 77 77 78 78 77 77 78 81 83 86 90 91 92 94 94 93 93 92 91 88 90 88 86 86 85 85 86 85 84 84 83 83 83 82 82 81 81 81 81 81 82 81 82 82 82 83 83 83 83 83 83 82 82 85 70 60 59 58 57 62 75
77 77 77 77 77 77 78 79 80 81 83 87 87 91 92 93 93 91 89 89 90 89 89 88 86 85 85 85 85 84 84 83 82 82 82 82 82 82 82 82 82 82 82 81 82 82 83 83 83 84 84 84 83 84 83 85 72 57 58 57 56 64 76
77 77 77 77 76 77 78 78 78 81 84 85 87 89 90 92 92 91 87 87 91 90 87 86 85 85 85 85 86 85 84 84 83 82 82 82 82 83 82 82 82 83 83 83 83 83 83 84 83 84 84 85 85 74 81 85 74 56 58 56 56 65 77
74 75 77 78 79 77 77 77 80 81 85 86 86 89 88 91 89 87 86 87 90 89 87 86 86 86 87 87 85 85 84 84 83 82 82 82 82 83 83 83 83 82 81 81 82 82 84 83 84 83 84 86 85 84 83 83 83 66 56 55 55 59 76
75 75 75 77 76 75 78 79 79 79 80 78 79 85 89 90 88 85 85 86 86 86 89 89 88 87 86 86 87 86 85 84 84 83 83 84 83 83 83 83 83 83 83 84 84 82 81 80 82 83 83 85 84 84 84 84 84 70 54 55 55 56 65
75 77 79 76 73 75 78 78 76 78 79 78 80 84 87 86 84 84 84 84 85 86 90 88 87 86 86 85 85 85 84 84 84 84 85 85 84 83 83 84 85 84 83 84 83 82 81 81 81 80 81 83 84 83 83 79 73 78 56 55 54 55 58
71 72 71 71 75 77 77 76 74 74 75 78 79 80 83 86 83 83 83 83 84 87 88 87 87 86 85 84 84 84 84 84 84 84 86 85 85 84 83 84 83 83 83 82 82 81 81 81 81 80 80 80 81 82 82 83 77 67 65 55 54 53 56
70 70 71 71 72 75 77 75 74 73 73 74 75 76 78 82 82 81 82 80 79 84 86 86 86 85 84 84 84 84 84 84 86 86 86 85 84 84 83 83 83 82 82 82 81 81 80 81 81 80 80 80 80 81 81 81 81 69 61 60 54 54 54
68 68 69 69 70 71 73 73 72 72 72 73 73 73 74 77 79 79 77 76 78 81 84 85 85 84 84 85 84 84 85 85 85 85 85 85 85 83 82 82 83 81 82 82 81 81 80 80 80 79 79 80 79 79 80 79 79 77 64 58 55 55 54
69 70 70 71 70 70 71 73 73 72 70 70 72 72 72 73 73 71 71 75 77 79 81 83 83 83 83 84 84 84 85 84 85 85 86 85 86 85 84 84 83 82 82 81 80 80 80 79 80 79 78 77 79 79 79 79 79 76 71 62 59 58 55
67 68 69 69 70 71 71 71 70 69 69 69 70 72 72 72 73 73 74 74 77 79 80 82 82 82 83 83 84 84 84 84 86 86 86 85 86 86 85 84 83 82 80 81 81 80 80 80 80 79 79 78 78 79 77 75 75 75 74 71 69 67 63
67 68 70 70 71 71 70 70 69 69 69 68 69 70 71 72 73 74 75 76 77 79 80 80 80 82 82 82 83 83 84 83 81 82 84 84 84 84 84 84 84 83 82 82 82 81 81 81 80 79 80 81 81 79 73 73 73 74 74 73 72 70 68
67 68 69 70 71 71 70 70 70 69 69 68 70 71 72 73 74 75 75 76 77 78 78 77 77 79 79 79 80 79 79 80 81 82 82 83 83 84 84 84 85 84 84 86 86 85 86 85 83 82 85 84 81 77 71 71 72 75 68 73 65 68 67
66 67 67 69 70 70 70 71 70 69 69 69 71 72 73 73 74 74 75 75 76 77 76 75 75 74 73 74 74 76 77 78 79 79 79 82 82 82 82 76 66 72 81 83 71 61 56 56 76 82 84 82 80 80 74 72 73 65 58 56 54 55 56
65 65 66 68 68 68 68 68 70 70 70 70 71 72 72 72 73 73 74 74 75 75 74 74 71 71 71 71 71 71 73 74 74 75 76 77 79 79 77 79 79 61 57 58 59 55 51 51 50 51 56 73 82 77 66 64 62 54 52 50 50 51 52
67 66 67 68 67 67 67 67 67 67 68 70 71 71 72 72 73 74 75 75 75 75 74 74 72 71 71 72 72 71 74 75 74 76 76 76 76 75 74 75 74 76 64 58 57 56 53 51 51 51 53 55 63 71 75 60 53 50 50 49 49 50 50

ECMWFFLT1_sfc_temp_036.txt.gz
Temp
98 97 96 95 93 94 93 92 91 92 91 90 91 91 92 92 90 90 89 87 86 86 86 86 86 87 87 87 87 87 88 87 87 87 87 88 89 88 88 89 89 88 90 90 90 90 91 91 91 91 90 90 90 89 88 88 88 89 88 87 87 87 86
98 98 97 97 95 94 93 93 92 92 92 91 91 90 92 91 90 90 89 88 87 87 87 86 86 87 87 87 87 87 87 87 87 87 88 88 88 89 90 88 89 88 89 90 91 91 91 92 91 90 90 90 90 90 90 89 88 87 88 87 86 86 86
99 99 98 97 96 95 92 94 93 93 92 93 93 92 92 90 90 89 89 89 87 87 88 87 87 87 88 87 87 87 87 88 88 88 88 89 89 91 90 89 89 90 90 90 91 92 92 91 90 90 90 90 91 90 89 89 88 88 88 87 87 86 85
97 98 98 97 96 95 94 94 94 94 95 95 94 94 92 90 91 90 90 90 88 87 86 88 88 88 88 87 87 87 87 87 88 89 89 89 89 90 89 89 89 90 90 90 92 92 93 91 91 90 89 90 90 90 90 90 90 88 88 87 87 87 86
97 99 99 97 97 95 95 95 95 93 96 97 96 93 93 92 93 92 92 92 93 89 90 90 91 90 88 88 89 89 88 88 88 89 90 90 89 89 89 90 90 90 90 91 91 90 90 90 91 90 89 89 90 90 89 89 89 88 87 87 86 87 87
98 96 97 98 97 97 96 96 97 98 97 98 96 95 96 96 96 96 94 92 92 93 91 90 90 89 88 89 89 89 89 88 88 88 89 89 89 89 90 89 91 91 92 90 92 91 90 90 91 90 90 91 91 91 91 90 90 90 88 87 86 87 88
99 97 97 97 98 98 97 97 99 99 99 99 100 98 98 98 97 97 97 95 94 92 93 92 92 91 89 89 89 88 87 89 88 89 90 90 89 89 89 89 90 91 92 91 90 91 91 89 89 90 90 91 90 91 89 88 88 89 88 87 86 86 87
101 99 97 98 100 101 100 98 99 100 99 99 100 100 98 99 99 98 97 97 96 97 95 95 93 90 89 89 90 89 89 90 90 90 89 90 90 89 90 90 90 90 90 91 90 91 92 90 91 90 90 91 90 89 90 88 87 90 89 87 86 86 88
101 98 98 100 100 102 101 99 98 98 97 96 97 97 99 98 99 99 98 98 98 97 97 98 96 94 90 89 89 89 90 90 90 90 89 90 91 92 92 92 91 91 90 92 93 91 91 91 92 89 89 89 89 88 89 88 88 89 89 87 86 86 88
100 97 96 99 100 101 100 100 98 95 95 94 94 95 97 98 98 99 99 99 100 99 98 98 98 96 92 90 90 91 90 89 90 92 92 92 92 93 94 94 93 92 91 92 94 92 90 91 91 90 88 88 88 88 88 88 88 88 89 88 87 87 86
97 95 94 96 96 97 97 98 96 92 93 91 92 96 96 96 97 99 99 100 100 100 100 99 98 97 95 93 93 92 90 91 92 92 92 93 94 94 95 95 95 94 92 93 93 94 92 90 91 89 88 88 88 88 88 88 88 88 89 89 88 88 88
92 92 91 92 93 94 95 94 94 92 91 91 94 95 93 94 97 99 99 99 102 101 100 100 100 99 96 95 93 91 91 91 92 92 93 93 94 95 95 96 96 96 94 94 93 93 94 91 91 90 88 88 89 89 88 88 88 88 88 90 89 88 89
94 91 91 93 92 93 92 91 91 91 91 94 96 96 96 97 97 99 96 97 101 101 101 98 98 96 97 96 95 91 92 92 91 91 94 93 94 95 95 96 97 97 96 94 94 94 94 94 91 90 90 89 89 89 88 88 88 87 87 88 88 88 88
89 93 94 92 92 91 90 90 90 90 90 93 95 95 96 97 98 97 96 97 99 101 102 100 98 96 95 95 93 91 92 93 92 91 91 93 91 92 94 95 95 94 94 94 93 94 95 95 92 92 91 90 89 89 89 88 88 88 87 87 88 88 88
97 98 95 94 91 90 90 91 89 90 92 92 94 95 95 96 97 96 96 97 97 101 101 99 97 95 96 94 91 90 91 91 92 91 91 90 90 89 91 92 93 93 93 93 93 94 96 95 95 92 90 90 89 89 90 89 89 89 88 87 87 88 88
98 100 100 97 94 94 91 91 91 90 91 90 92 93 96 95 94 96 96 97 99 97 100 98 96 94 94 94 92 91 91 90 90 90 89 89 88 88 89 92 92 94 92 92 93 92 92 93 93 94 92 90 90 90 89 89 89 80 71 75 87 88 88
97 98 99 99 96 96 95 93 92 91 90 90 90 92 93 94 94 96 99 99 100 97 99 100 95 95 94 92 93 91 91 89 89 89 88 88 88 88 88 89 91 90 90 90 90 90 90 91 92 93 93 92 91 90 89 90 88 70 67 68 71 84 87
95 95 97 99 100 98 94 94 92 92 91 93 93 92 93 92 95 97 98 99 99 100 101 100 97 95 91 92 91 91 89 90 89 88 88 88 87 87 88 89 89 89 89 89 90 89 91 90 90 90 92 92 92 92 90 90 75 66 66 67 67 72 87
97 98 98 97 98 96 98 99 97 93 95 97 96 95 96 95 96 94 96 96 98 99 100 99 98 93 91 92 91 90 89 89 88 88 87 87 87 87 87 87 87 88 88 89 89 89 88 88 89 89 90 91 89 90 91 92 72 65 64 66 66 67 77
98 99 100 101 100 100 97 95 96 98 97 96 97 101 100 97 97 96 98 99 99 99 97 95 96 94 92 91 90 89 89 89 88 87 87 87 87 87 87 86 86 88 90 90 88 87 87 88 88 88 88 88 89 88 90 91 71 63 63 64 64 65 71
94 94 95 95 95 98 96 92 91 92 92 97 100 99 99 99 99 98 99 98 98 96 94 95 94 94 92 90 90 90 89 88 88 87 87 87 87 87 86 86 86 87 88 89 88 87 87 87 87 87 87 88 89 89 89 92 68 62 61 62 61 63 67
96 98 97 98 94 91 88 91 91 94 94 95 97 100 101 100 101 101 101 101 99 98 96 95 93 94 93 91 90 90 89 89 88 87 88 87 87 86 86 86 86 86 87 88 89 89 89 88 88 88 87 88 88 88 88 92 66 60 60 60 60 62 75
98 97 95 92 93 92 90 88 89 91 91 92 96 99 101 102 103 101 101 100 99 96 98 96 92 92 92 91 91 90 90 89 88 87 87 87 86 86 86 86 86 86 88 87 87 88 88 88 89 88 89 88 88 87 88 91 73 59 59 59 59 64 80
95 92 92 92 90 90 89 89 89 90 91 93 93 96 99 101 101 99 97 97 99 98 97 96 92 91 91 91 91 90 90 89 89 88 87 87 86 86 87 87 87 87 87 87 87 87 89 89 89 89 89 89 89 90 89 90 76 57 58 58 57 67 80
92 92 90 89 89 90 90 89 87 90 91 90 93 95 96 99 99 99 95 95 99 98 95 93 92 91 91 91 92 90 90 90 89 88 88 87 87 87 87 87 87 88 88 88 88 88 89 89 89 89 89 91 91 75 85 90 79 57 59 56 56 68 81
85 85 88 89 90 88 85 85 85 86 90 93 92 95 95 98 97 95 94 95 99 98 95 93 92 93 93 93 91 90 89 89 88 88 89 88 87 88 88 88 88 87 87 88 89 90 90 90 90 89 89 90 89 90 90 89 91 72 56 56 55 60 80
85 85 85 87 86 82 86 88 88 89 91 88 87 92 97 98 95 93 93 93 93 94 97 95 94 93 92 92 92 91 90 90 90 89 89 89 88 89 88 88 88 88 88 89 91 90 88 88 90 90 89 90 89 90 90 90 89 80 54 55 55 57 67
85 86 87 83 82 83 86 88 85 88 90 88 90 92 94 93 91 90 90 91 91 93 97 96 93 92 92 91 91 91 90 90 89 90 90 90 89 88 87 89 90 89 89 90 89 87 86 87 87 88 88 89 90 90 89 84 75 89 59 56 54 56 58
80 81 81 81 82 84 86 85 85 86 86 89 90 90 92 93 89 89 89 89 90 94 95 95 93 91 91 90 90 90 90 89 89 90 92 91 90 88 87 88 88 88 88 87 87 86 86 86 86 86 87 87 88 88 88 88 84 71 70 55 54 53 56
79 81 82 83 83 81 85 84 84 84 83 84 85 86 89 90 88 88 88 88 89 92 93 92 91 91 90 90 90 90 89 89 91 91 91 90 89 88 87 87 87 87 87 87 86 86 86 86 85 84 86 86 86 88 89 88 89 73 65 64 53 54 54
77 79 82 79 79 78 81 82 80 82 81 83 82 83 84 87 87 86 83 83 87 88 89 90 90 90 89 90 90 89 90 90 90 90 90 90 90 87 87 87 87 86 87 86 86 85 85 86 86 84 84 85 85 86 88 89 88 90 72 59 56 54 54
77 79 82 80 78 78 79 80 78 77 76 78 81 82 82 83 84 81 81 84 85 87 89 89 88 88 88 89 89 89 90 89 90 90 91 90 91 89 89 89 89 88 87 87 86 86 85 85 87 86 85 84 86 86 87 87 88 87 86 67 62 58 55
76 76 76 76 76 77 78 78 77 75 75 75 78 81 83 83 83 83 83 84 87 87 86 87 88 87 87 88 90 89 89 89 91 92 92 90 91 91 90 89 89 88 86 87 87 86 86 85 85 85 86 85 86 86 87 88 88 87 86 81 76 71 65
74 75 76 76 76 76 76 76 75 74 75 75 78 79 80 80 81 82 83 85 85 87 87 86 87 87 87 88 89 90 89 89 87 88 91 90 89 90 90 91 91 90 88 88 88 87 86 87 86 85 87 88 89 88 87 88 88 88 87 84 79 77 74
72 73 74 75 75 76 76 76 75 75 75 76 77 78 78 78 79 80 80 81 83 84 83 84 84 86 87 87 88 88 89 89 88 89 90 90 89 90 90 91 92 89 90 91 92 91 92 91 90 90 91 91 88 86 86 86 87 89 74 87 69 77 79
71 71 72 73 74 74 74 75 75 75 75 75 76 77 77 78 79 81 82 82 82 81 79 79 80 82 83 85 86 86 86 87 89 89 88 91 91 89 88 70 59 73 84 86 71 60 57 62 79 80 79 79 81 84 83 86 89 71 64 61 58 58 62
70 71 71 73 73 72 73 73 75 75 75 75 76 77 77 78 79 80 81 82 82 82 81 80 78 79 79 79 80 79 82 84 85 85 85 88 89 88 85 87 79 57 58 65 67 63 57 55 54 54 57 71 81 79 65 61 58 55 55 55 55 55 55
72 72 72 73 72 72 72 73 72 72 72 75 76 76 77 77 78 78 79 80 82 83 82 82 81 80 80 80 79 78 81 82 81 81 81 83 84 83 81 80 81 83 63 53 59 57 53 51 50 49 50 51 57 65 79 69 60 57 56 54 53 53 52

ECMWFFLT1_sfc_temp_039.txt.gz
Temp
100 102 101 101 98 99 98 96 95 96 95 94 94 95 96 95 93 92 91 89 87 87 87 87 87 88 87 88 88 88 89 89 89 89 89 89 90 90 90 91 90 90 92 92 91 91 92 92 93 93 92 91 91 91 90 90 89 90 90 89 89 88 88
98 100 102 103 100 98 98 97 96 96 96 95 94 93 95 94 93 93 91 89 88 87 87 88 87 88 88 88 89 89 88 89 89 89 90 89 90 90 91 90 90 90 90 92 93 92 92 93 93 93 92 91 91 90 91 90 89 89 90 89 89 88 88
99 101 102 102 100 99 96 98 96 97 96 97 96 95 95 93 93 92 91 90 89 88 89 88 88 89 89 89 88 88 89 89 89 89 89 91 91 93 92 91 91 92 92 92 93 94 94 93 92 92 93 92 92 91 90 90 89 90 90 89 88 88 87
97 100 103 103 101 99 98 98 97 98 98 98 97 96 95 93 94 93 93 92 90 89 88 89 89 90 90 89 88 88 88 89 89 90 91 92 91 91 91 91 91 92 92 92 94 94 95 93 93 92 91 91 91 91 91 91 91 90 89 89 88 89 87
100 101 102 102 102 100 99 98 98 96 99 100 98 95 96 96 96 96 95 94 94 91 92 92 93 92 90 90 90 90 89 89 90 91 91 92 91 91 91 92 92 92 93 94 93 92 92 92 93 92 92 91 92 91 91 91 90 89 89 89 88 88 88
102 101 101 103 103 102 100 100 101 100 100 100 99 98 98 99 98 98 97 94 94 95 93 92 92 91 90 92 92 91 90 90 90 90 90 91 91 91 92 91 93 93 94 93 94 94 93 93 93 93 92 93 93 93 93 91 91 91 89 88 88 89 89
101 101 102 103 102 101 102 100 102 102 101 102 102 100 100 100 99 99 99 97 97 93 94 94 94 93 91 92 91 91 90 91 90 91 92 92 92 91 91 91 92 94 94 93 93 94 93 92 92 92 93 93 91 93 91 90 90 90 89 88 87 88 89
101 100 100 102 103 103 103 102 102 103 102 102 102 101 100 100 100 100 99 99 98 98 97 97 95 92 91 92 92 92 92 92 92 92 91 92 92 91 92 92 92 92 93 94 93 94 94 92 94 93 93 93 92 91 92 90 89 92 90 88 87 88 90
104 102 102 104 104 107 105 103 102 102 100 99 100 99 100 100 100 100 100 100 99 99 98 99 98 96 92 92 91 91 92 93 92 92 92 93 94 94 94 94 93 93 93 94 95 94 94 94 94 92 92 92 91 90 91 90 90 91 90 89 87 87 89
102 101 102 105 105 105 101 102 102 99 98 97 97 98 99 100 100 101 101 101 101 100 100 100 100 98 94 93 93 94 93 92 93 95 94 94 95 95 96 96 95 94 94 95 97 95 93 94 93 92 90 91 91 91 90 90 90 90 90 89 89 88 87
102 99 99 101 102 103 104 104 99 97 97 94 95 100 99 99 100 101 100 102 102 102 102 101 100 100 97 96 95 95 93 94 95 94 94 95 96 97 97 98 98 96 95 95 96 97 95 92 93 91 90 91 91 90 90 90 90 89 91 90 90 89 89
97 98 96 98 99 101 101 98 97 95 95 95 98 100 97 97 100 102 102 102 103 103 102 102 103 101 98 97 96 94 94 94 95 95 95 96 97 98 98 98 98 98 97 96 96 96 97 94 93 92 91 90 91 91 90 90 90 89 90 92 91 90 90
98 95 95 98 97 98 98 97 96 95 95 98 101 100 100 101 101 102 100 100 104 104 103 101 101 99 99 98 98 94 94 95 94 94 96 95 97 98 98 99 100 100 99 97 96 97 97 97 93 92 92 91 91 91 90 90 90 89 89 90 90 90 89
95 98 97 97 96 95 94 94 95 95 95 97 100 100 101 102 102 101 100 101 102 105 104 103 101 99 98 97 95 93 95 96 95 94 94 95 93 95 97 98 99 98 98 97 96 97 97 98 96 94 94 92 91 91 91 90 90 89 89 89 90 90 89
100 100 98 98 95 94 94 94 93 94 95 96 99 99 100 101 101 100 100 101 101 105 105 102 100 99 99 96 94 93 94 94 95 94 93 93 92 92 94 96 96 97 97 96 96 97 98 98 99 95 93 93 92 91 92 91 90 90 90 89 89 90 90
101 102 101 99 97 97 94 94 93 93 94 93 96 96 99 99 98 100 101 101 103 101 104 103 100 97 98 97 95 94 94 93 93 92 92 92 91 91 92 96 96 98 96 96 96 95 95 95 96 98 95 93 92 92 92 91 91 83 73 77 89 89 90
99 100 102 101 98 99 97 96 95 94 93 93 94 96 97 97 98 100 103 103 104 101 103 105 99 99 98 96 96 94 93 92 92 92 91 91 91 91 91 92 94 94 93 94 94 94 92 94 95 97 97 94 93 92 92 92 91 73 69 70 74 86 89
97 98 100 100 101 102 100 99 97 95 95 96 97 96 97 96 99 100 101 103 103 104 105 104 102 100 95 96 95 94 92 92 91 91 90 90 90 90 91 92 92 92 92 93 94 92 94 94 93 93 96 95 95 94 92 92 78 68 68 69 69 75 89
97 98 99 99 99 99 103 105 102 98 100 102 100 99 100 99 100 98 99 99 102 103 104 103 103 97 95 96 95 93 92 91 91 90 90 90 90 90 90 90 90 91 92 93 93 93 91 91 92 92 94 94 92 93 93 94 75 66 66 68 68 69 79
99 100 101 102 102 102 101 101 102 102 104 102 103 106 103 101 101 100 102 102 102 102 100 99 100 99 97 95 94 93 92 91 91 90 90 90 90 90 89 89 89 91 93 93 92 91 91 92 91 91 91 92 92 91 93 94 73 65 64 66 66 68 74
96 96 97 98 99 102 99 97 97 98 98 103 106 104 104 103 103 102 102 101 101 100 97 98 98 98 97 94 94 93 92 91 90 90 90 90 89 89 89 89 89 90 91 92 92 91 90 90 90 90 90 92 93 92 93 95 70 63 63 63 63 66 70
99 100 100 101 99 95 94 97 97 99 98 99 102 105 106 105 106 105 104 104 102 101 100 98 96 97 97 94 93 93 92 92 90 89 90 89 89 89 88 88 88 88 90 91 92 92 92 91 91 91 90 91 91 92 92 96 67 62 62 62 62 64 78
103 102 102 100 100 98 95 94 95 96 96 97 100 102 105 107 108 106 105 103 103 100 101 99 95 95 95 94 94 93 93 92 91 90 89 89 89 88 88 88 88 89 90 90 91 91 91 90 91 90 91 90 90 90 90 94 73 59 60 61 60 65 81
106 103 101 98 96 96 96 96 96 96 96 97 97 100 102 105 106 104 101 101 102 101 100 99 96 95 94 94 94 93 92 91 91 90 90 89 89 89 89 89 89 89 90 89 89 90 92 91 91 91 91 91 91 92 91 93 77 57 59 59 58 67 82
96 96 95 95 95 95 95 91 90 92 94 95 96 99 100 101 103 105 100 99 103 102 99 97 95 95 94 95 95 93 92 92 91 91 90 89 89 90 89 89 89 90 90 90 90 91 91 91 91 91 91 94 93 79 88 92 81 56 59 57 57 68 82
90 91 93 95 97 92 89 89 90 91 94 97 96 98 98 101 100 98 99 100 103 102 99 97 96 96 97 96 95 94 92 92 91 91 91 90 90 90 90 90 90 90 90 90 91 92 93 92 92 91 92 94 93 93 92 92 92 70 57 56 56 60 81
91 92 91 92 91 86 91 93 93 92 95 94 90 95 98 100 99 96 97 97 97 98 101 99 98 96 95 95 96 95 93 92 92 91 91 91 91 91 90 91 90 91 90 92 93 92 90 91 92 92 91 92 91 92 93 93 91 78 55 56 55 57 67
89 90 92 90 87 87 90 93 90 91 95 93 95 96 97 95 94 94 94 95 95 97 102 100 96 96 95 94 94 94 93 92 91 92 93 92 91 90 90 91 92 91 91 92 91 89 88 89 89 90 90 91 92 92 91 87 78 89 57 57 54 56 59
85 85 86 86 88 89 89 90 89 91 90 93 93 93 94 97 93 93 93 93 94 98 99 99 98 95 95 93 93 92 92 91 92 92 95 93 92 91 90 91 91 90 90 89 89 88 88 88 88 88 88 89 91 92 91 91 85 71 70 55 54 54 56
85 85 87 90 90 87 89 88 88 89 88 89 88 89 90 92 91 91 91 92 95 96 97 97 96 94 93 92 92 92 92 92 94 94 94 93 92 91 90 89 90 90 89 89 88 89 88 88 88 88 88 88 89 92 94 92 93 75 67 64 53 54 54
83 84 86 86 87 85 86 88 85 86 86 87 86 87 87 91 91 90 90 89 91 93 94 95 95 93 92 92 92 92 93 92 92 92 93 93 93 90 90 89 90 89 89 89 88 88 88 87 89 87 87 87 87 90 92 93 92 94 74 60 56 54 54
82 84 86 87 85 84 85 87 85 84 83 85 86 86 86 89 90 87 87 89 90 91 92 93 92 91 91 91 91 92 93 92 93 93 94 93 94 92 91 91 91 90 89 89 88 88 87 87 88 88 88 88 89 88 90 90 92 91 90 67 61 57 55
80 80 81 80 80 80 82 84 83 81 81 82 85 87 88 87 88 88 87 88 91 91 90 91 90 89 90 91 92 92 92 91 93 94 94 92 94 93 93 91 91 90 87 88 88 87 87 86 87 88 88 88 88 89 88 90 90 90 92 90 78 74 67
78 79 80 80 80 80 80 80 79 79 80 80 81 82 84 85 87 87 88 90 91 92 89 88 89 90 90 91 92 92 91 91 91 91 94 92 92 93 92 92 93 91 87 88 88 87 87 88 87 87 88 89 89 89 90 89 90 90 91 94 87 81 78
75 76 77 77 78 79 79 79 79 78 79 78 80 81 81 82 83 85 85 85 87 88 89 88 88 89 90 90 91 91 91 91 91 91 93 93 91 93 93 94 95 91 92 87 84 87 88 89 90 90 92 91 87 85 86 88 88 90 66 68 59 74 84
74 76 77 78 78 79 79 79 79 79 79 79 80 81 81 82 83 84 85 85 85 85 84 85 88 89 89 90 90 91 91 91 92 92 92 95 93 92 83 67 60 74 88 83 67 57 60 67 81 80 82 82 83 85 83 84 84 59 53 53 52 53 53
74 75 76 77 78 77 78 78 79 79 79 79 80 81 81 81 82 82 84 85 85 84 84 84 83 84 86 86 85 83 89 92 92 91 90 92 95 94 88 85 74 52 54 63 64 57 50 49 50 52 57 72 82 79 66 61 55 51 49 48 47 45 48
75 76 76 77 76 76 76 76 77 77 78 79 80 80 80 81 81 82 84 85 86 86 84 83 83 82 82 83 84 82 84 86 85 86 88 90 90 86 86 87 83 81 60 53 57 56 52 53 53 53 51 51 58 69 77 65 57 49 47 47 46 46 44

ECMWFFLT1_sfc_temp_045.txt.gz
Temp
88 88 87 88 87 87 85 85 86 86 86 85 86 86 87 86 85 84 83 82 81 80 81 81 81 81 81 81 81 81 82 82 81 81 81 81 81 81 81 82 82 80 81 81 81 82 82 83 83 82 82 82 82 81 81 81 81 82 81 80 80 80 80
87 88 88 88 87 87 86 86 86 87 86 85 86 86 87 86 85 84 83 82 82 81 81 81 81 81 81 81 82 81 81 81 82 82 82 81 81 80 82 82 82 81 80 82 81 81 82 83 84 82 82 82 83 82 81 81 81 81 81 80 79 79 79
87 88 88 88 87 87 85 85 86 87 87 86 86 86 86 85 85 84 83 82 81 81 82 82 82 81 82 82 81 81 81 82 81 81 81 82 81 83 82 82 82 82 82 82 82 82 83 83 83 83 82 82 83 82 82 81 81 81 80 80 80 79 79
87 88 88 88 87 87 86 86 85 87 88 87 87 87 87 86 87 85 84 84 82 82 81 82 82 82 82 81 81 81 81 82 82 82 83 83 82 83 82 81 82 83 82 82 83 84 85 83 83 83 83 82 82 83 83 82 82 81 80 80 79 79 79
87 89 89 88 87 86 86 86 86 86 87 88 88 87 88 87 88 86 85 85 84 83 83 83 84 83 83 82 82 82 82 82 82 83 83 83 83 83 83 83 82 83 83 84 83 83 83 83 83 82 82 82 82 82 82 82 82 81 81 80 79 79 79
87 88 88 88 88 87 87 87 88 88 88 88 88 87 88 89 89 88 87 85 85 85 84 83 83 83 82 83 83 82 82 82 82 83 83 83 83 83 83 83 83 83 84 84 85 83 83 84 84 83 83 83 83 83 83 82 82 82 81 80 80 80 79
88 88 88 89 89 88 88 88 89 89 89 89 90 89 90 91 90 89 88 86 85 84 84 84 84 84 83 83 82 82 81 82 82 83 83 83 83 83 83 83 83 84 85 84 84 85 83 83 84 84 84 83 83 83 82 82 82 82 81 80 79 80 80
89 88 88 89 90 90 89 88 89 90 90 90 90 90 90 91 91 90 89 88 87 86 85 85 84 84 83 83 83 83 82 83 83 83 83 83 83 83 83 83 83 84 84 84 84 85 85 83 84 84 84 84 83 83 83 82 82 82 81 80 79 80 81
91 89 89 91 91 91 90 89 88 88 88 88 88 88 89 90 91 90 89 89 88 86 86 86 86 85 84 83 83 83 83 83 83 83 83 83 84 84 84 84 84 84 84 85 85 85 86 85 84 83 84 84 83 82 82 82 82 82 81 81 80 80 80
90 88 88 91 92 92 91 89 88 87 86 86 86 87 88 89 89 90 91 90 89 87 87 87 87 86 85 84 84 84 83 83 83 83 84 83 84 84 85 85 85 85 85 85 86 85 85 85 85 83 83 83 83 82 82 82 82 82 82 81 81 80 80
90 89 88 90 90 89 89 89 87 85 86 85 85 87 87 87 88 89 90 91 89 88 88 88 88 87 86 85 84 84 83 83 84 83 83 84 85 85 86 86 87 86 86 86 86 86 85 84 85 84 82 83 83 83 83 83 82 82 82 82 82 81 81
89 89 87 88 89 88 88 87 87 85 85 84 85 86 85 86 88 89 91 92 92 89 89 88 88 88 87 86 85 84 84 84 84 84 84 84 85 86 86 87 87 86 86 86 86 86 86 85 85 85 83 83 84 83 83 83 83 82 82 83 82 81 81
89 87 87 88 88 89 88 85 84 85 84 85 87 87 87 88 88 90 90 91 93 92 90 89 89 88 87 87 85 84 84 84 84 84 85 85 85 86 86 87 88 88 87 87 87 87 87 86 85 85 84 84 84 84 83 83 83 82 82 82 82 81 81
88 88 87 88 88 87 85 84 84 84 84 85 87 87 88 89 91 91 91 92 93 93 92 91 89 88 87 87 85 84 85 85 85 85 85 85 85 85 86 87 87 87 87 87 87 88 87 87 86 85 85 85 84 84 84 83 83 83 82 82 82 82 81
87 86 84 86 85 85 84 83 82 83 84 86 87 87 88 90 91 91 92 93 92 94 93 92 90 89 88 87 85 84 85 85 86 85 85 85 84 84 85 86 86 87 87 86 87 88 88 88 87 86 85 85 84 84 84 84 83 83 83 82 82 82 82
88 87 86 85 84 85 84 84 84 83 84 85 87 88 90 90 90 91 92 92 93 93 94 92 90 88 88 87 86 86 86 85 85 85 84 84 83 83 84 86 86 87 86 86 87 87 87 87 87 87 86 84 84 84 84 84 84 79 72 75 83 82 83
86 85 85 85 82 84 83 84 84 83 83 85 87 88 90 90 91 92 94 93 94 93 94 94 90 89 88 87 87 86 86 85 84 84 83 84 84 83 84 84 86 86 85 85 85 86 85 86 87 87 87 86 85 84 84 84 84 72 67 69 72 81 82
84 83 84 85 85 84 83 85 84 84 85 87 89 89 90 89 91 92 93 94 94 95 96 95 92 90 88 88 87 86 85 85 84 84 83 83 83 83 83 84 85 84 84 85 85 85 86 86 86 86 87 86 86 85 84 84 75 69 67 68 68 72 83
83 83 83 80 80 81 85 86 85 85 88 90 91 91 92 91 91 90 92 93 94 95 95 95 93 90 88 89 87 86 85 85 84 84 84 83 84 83 83 83 83 84 84 85 85 85 84 85 85 85 86 85 85 85 85 85 74 67 66 66 67 68 75
84 86 85 85 86 88 85 82 84 85 86 86 88 92 91 91 91 91 93 95 94 95 94 94 94 91 89 88 87 86 86 85 85 84 84 84 84 83 83 83 83 84 86 86 85 84 84 85 85 85 85 85 84 84 86 85 74 66 65 65 65 66 70
80 83 82 83 83 82 79 81 83 83 84 87 90 88 89 89 90 89 92 92 92 93 90 92 93 91 89 88 88 86 86 85 85 84 84 84 83 83 83 83 83 84 85 86 85 84 84 85 85 85 85 86 86 84 85 86 72 65 64 63 63 65 67
83 83 81 81 80 80 83 85 84 85 83 85 88 90 91 91 92 92 92 93 90 90 92 90 90 89 87 88 88 87 86 86 85 84 84 84 83 83 83 83 83 83 84 85 86 86 86 85 86 85 85 85 86 85 84 87 69 64 63 62 62 64 73
84 84 84 84 84 82 81 82 83 84 84 84 85 87 91 92 94 93 92 91 92 87 89 89 87 88 86 87 88 87 86 86 85 85 84 84 83 83 83 83 83 83 84 84 85 85 85 85 85 86 86 85 85 85 85 86 72 62 61 61 61 63 75
86 85 84 84 83 84 82 81 83 84 85 84 84 85 86 89 92 89 89 89 90 89 88 87 86 86 84 85 87 87 87 86 86 85 84 84 84 84 84 84 84 84 84 84 84 84 86 85 85 86 86 85 85 85 85 86 75 59 60 59 59 65 77
84 85 84 84 83 82 82 80 80 83 83 82 83 84 86 86 88 89 84 85 92 91 89 87 85 84 83 84 87 87 87 86 86 86 85 84 84 85 84 83 84 84 83 84 85 85 85 83 84 85 85 86 85 78 83 86 79 58 58 57 58 65 77
80 82 83 84 84 83 81 81 82 82 85 85 83 85 86 86 84 82 84 84 88 90 89 88 86 83 84 85 85 86 86 86 86 85 86 85 84 85 84 84 83 83 83 84 85 85 84 83 84 84 85 85 85 85 84 84 86 69 56 56 56 59 75
82 82 82 83 81 82 82 83 82 82 84 81 82 84 84 84 82 81 80 80 82 82 86 88 86 84 84 84 85 86 85 86 86 86 86 86 85 85 84 83 83 83 83 84 85 84 82 84 84 84 84 84 84 85 84 85 84 76 53 54 55 56 63
80 81 83 82 82 82 81 82 81 83 84 82 83 84 83 82 80 80 79 79 80 81 86 84 84 85 85 84 84 85 85 85 85 86 86 85 85 83 83 83 85 84 84 84 83 82 82 82 82 82 83 82 82 83 83 82 77 83 56 55 53 55 56
77 77 79 79 78 80 81 79 80 81 81 83 83 81 81 82 79 79 80 78 79 82 82 83 84 85 85 84 84 84 84 84 84 85 88 86 85 84 82 83 83 83 82 82 81 81 81 81 81 81 80 79 79 81 82 82 79 71 68 54 54 53 54
75 77 79 80 80 78 79 78 79 79 79 80 79 80 80 79 78 79 78 78 80 81 82 82 83 81 83 83 84 83 84 84 86 87 88 85 84 83 82 82 82 82 81 81 81 80 80 79 79 80 80 80 78 80 80 81 82 72 66 61 54 54 53
73 74 76 76 76 76 77 78 77 77 77 77 77 78 78 79 78 78 77 79 79 80 81 81 81 81 81 81 82 82 83 84 85 85 85 84 84 83 82 82 82 81 80 81 81 80 79 78 79 79 79 79 77 78 78 81 79 82 69 61 56 54 53
72 73 75 76 75 75 75 78 77 76 75 75 77 77 77 78 78 76 76 80 81 81 80 80 80 80 80 80 80 82 84 83 83 84 85 84 84 84 83 83 82 81 80 81 80 80 79 78 78 78 78 77 79 77 79 79 81 78 71 64 59 57 55
70 71 72 72 72 74 74 75 74 74 74 73 74 76 77 78 78 78 78 79 80 81 80 80 80 80 80 81 81 82 83 83 83 84 84 83 84 83 83 82 82 81 80 80 80 80 79 79 77 77 77 78 78 78 77 78 73 69 71 69 66 65 63
68 69 71 72 72 72 72 73 72 72 72 72 73 75 75 76 76 78 78 79 80 80 80 80 80 80 80 81 82 82 82 82 86 84 82 82 82 82 83 82 82 82 81 80 81 79 80 80 78 77 78 78 79 79 77 70 65 66 65 66 67 69 67
68 68 70 70 72 72 71 72 72 72 72 72 73 74 74 74 75 76 76 77 78 78 78 78 80 79 79 80 80 80 82 82 82 81 80 75 67 64 65 71 81 80 71 69 71 82 84 81 80 78 77 75 74 74 69 67 65 62 55 55 53 60 68
68 69 70 71 72 72 72 72 72 72 71 72 72 73 73 73 74 75 77 76 77 77 77 76 77 78 79 79 80 80 80 81 80 80 78 76 75 73 69 59 50 59 72 69 60 54 56 62 72 72 71 68 65 67 69 66 65 52 45 47 45 44 46
68 68 69 71 71 71 71 72 73 72 71 71 72 72 72 72 73 74 76 76 76 76 76 75 76 76 76 76 75 77 80 79 80 80 78 77 75 72 68 67 63 49 48 55 57 53 50 49 52 56 61 67 64 59 55 54 47 44 45 45 46 47 46
70 70 71 71 71 72 71 71 71 71 72 72 73 72 72 72 73 74 76 76 76 76 76 76 75 75 75 77 76 76 77 77 78 78 76 74 73 72 70 69 66 64 52 46 50 52 49 49 49 49 51 54 57 59 56 48 44 43 43 43 43 44 44

ECMWFFLT1_sfc_temp_048.txt.gz
Temp
85 84 84 85 84 84 84 84 84 84 84 83 83 83 83 83 82 82 81 80 79 79 79 79 79 79 79 79 79 79 80 80 79 79 79 79 79 79 79 79 78 78 78 78 78 79 79 79 79 80 79 79 79 79 79 79 78 79 78 78 78 77 77
84 84 84 85 84 84 84 84 84 85 84 84 84 83 84 83 82 81 81 81 80 80 79 79 79 79 79 79 80 79 79 79 80 80 80 79 78 78 79 79 79 78 78 79 79 79 79 79 80 79 79 79 80 79 79 79 79 78 78 77 77 77 77
84 84 85 85 84 84 83 84 84 85 85 85 85 84 84 83 82 82 81 81 80 80 81 80 80 80 80 80 79 79 79 79 79 79 79 79 79 79 79 79 79 79 79 79 79 79 80 80 80 79 80 79 80 79 79 79 79 79 78 77 77 77 76
84 84 85 85 85 84 84 85 84 86 86 86 86 85 84 83 84 83 82 82 81 80 80 80 80 80 80 79 79 79 79 79 80 80 80 80 80 80 79 79 79 80 78 78 80 80 81 80 80 79 80 79 79 80 79 79 79 79 79 78 77 77 77
84 85 85 85 84 84 84 84 85 85 86 87 87 86 85 85 85 84 83 83 83 81 82 81 82 82 81 81 80 80 79 80 80 80 80 81 80 80 79 79 80 80 80 80 79 79 79 79 80 79 79 79 79 79 79 79 79 79 79 78 77 77 77
83 83 84 84 84 84 84 85 86 86 86 86 86 86 86 86 86 84 84 83 82 83 82 82 81 81 80 81 81 80 80 80 80 80 80 80 80 80 80 80 80 80 81 81 81 80 80 80 80 80 80 80 80 80 80 79 80 80 79 78 78 78 77
84 84 84 85 85 85 84 85 86 86 87 87 87 87 86 86 85 85 85 83 83 82 82 82 82 82 81 81 81 80 79 80 80 80 80 80 80 80 80 80 80 81 82 81 81 81 80 80 80 80 80 80 80 80 79 79 79 79 79 78 78 78 77
85 84 85 85 85 86 85 85 86 87 87 87 86 86 86 87 86 85 84 84 84 83 83 82 82 81 81 81 81 80 80 80 80 80 80 80 80 80 80 80 80 81 81 81 81 81 81 81 81 81 81 81 80 80 80 79 79 80 79 78 78 78 78
86 86 86 86 86 86 86 85 85 86 85 85 85 85 86 86 86 86 85 85 84 83 83 83 83 83 82 81 80 80 81 81 80 80 80 80 80 80 81 81 81 81 80 81 82 82 82 82 82 81 81 80 80 79 80 79 80 80 79 79 78 78 78
85 84 85 87 87 87 86 86 85 84 83 83 83 83 85 86 86 86 86 85 85 84 84 84 84 83 82 81 81 81 81 80 80 80 80 80 81 81 81 82 82 81 81 81 82 82 82 82 82 82 81 81 80 80 80 80 80 80 80 79 79 78 78
85 84 85 85 85 85 85 85 83 82 83 82 82 84 85 86 86 87 86 86 85 85 85 84 85 84 83 82 81 81 81 80 81 80 80 81 81 81 82 82 83 82 82 82 82 82 82 82 82 81 81 81 81 80 80 80 80 80 80 80 80 79 79
84 84 83 84 84 84 83 83 83 82 82 82 83 84 84 85 86 87 87 86 87 85 85 85 85 84 83 83 82 81 81 81 81 81 81 81 81 82 82 83 83 83 83 83 82 82 82 82 82 82 81 81 81 81 81 80 80 80 80 80 80 79 80
84 83 83 84 83 84 83 81 81 81 81 83 84 85 85 86 86 87 86 86 87 87 86 85 85 84 84 83 82 81 81 81 81 81 81 81 82 82 82 83 83 83 83 83 83 83 83 82 82 82 82 81 81 81 81 81 80 80 80 80 80 79 79
85 84 84 84 84 83 81 80 81 81 81 83 84 85 85 86 87 87 87 87 87 87 87 86 85 84 84 83 82 81 81 82 82 81 81 82 81 82 82 83 83 83 83 83 83 83 83 83 82 82 83 82 82 82 82 81 80 80 80 80 80 79 79
84 84 83 84 83 82 82 81 80 80 81 82 84 84 84 86 86 87 87 88 88 88 87 87 85 84 84 83 82 81 82 82 82 82 81 81 81 81 81 82 82 83 83 83 83 84 84 85 84 82 82 82 82 82 82 81 81 81 81 80 80 80 79
84 84 84 84 83 84 82 82 81 80 81 81 83 83 84 84 85 86 87 87 88 88 88 87 85 84 83 83 82 82 82 82 81 81 81 81 80 80 81 82 82 83 82 82 83 83 83 84 84 83 82 82 82 82 81 81 82 77 70 73 80 80 80
84 84 84 84 83 83 82 82 81 81 80 81 82 83 84 84 85 86 87 88 89 88 88 88 85 84 84 83 83 83 82 82 81 81 80 80 80 80 80 81 82 82 81 82 82 82 82 83 83 84 84 83 82 82 81 82 82 71 67 68 70 79 80
83 83 84 84 83 83 82 81 80 80 81 82 83 84 84 84 85 86 87 88 89 90 90 88 86 85 83 84 83 83 82 82 81 81 80 80 80 80 80 81 81 81 81 81 82 82 83 82 82 83 83 83 83 82 82 82 73 68 66 67 67 70 80
82 82 83 82 82 82 83 83 82 82 83 84 84 85 86 86 86 85 87 87 89 90 91 89 87 85 84 84 84 83 82 82 81 81 81 80 81 81 80 80 80 80 81 81 82 82 81 81 82 82 83 83 82 82 83 82 72 67 65 65 66 66 73
79 80 81 82 83 83 82 81 82 83 84 84 85 87 87 87 87 87 89 90 90 90 90 89 88 86 84 84 84 83 83 82 82 81 81 81 81 81 80 80 80 81 82 82 82 81 81 82 82 82 82 82 82 82 83 82 73 66 64 64 64 65 68
75 76 76 76 76 77 76 77 78 79 80 83 86 86 87 87 88 88 89 89 89 89 88 89 88 87 85 84 84 84 83 82 82 81 81 81 81 80 80 80 80 81 81 82 82 81 81 82 81 82 82 82 83 82 82 83 71 64 63 62 62 64 65
77 77 76 76 76 75 77 79 80 81 79 82 85 85 88 88 89 89 90 91 89 89 89 88 88 87 85 84 84 84 84 83 82 81 81 81 81 80 80 80 80 80 81 82 82 83 83 82 82 82 82 82 83 82 82 84 70 64 62 61 61 62 70
79 78 78 78 79 77 77 79 80 80 80 80 81 82 84 88 89 90 90 90 90 88 89 88 87 87 85 85 85 85 84 84 83 82 81 81 81 80 80 80 80 81 82 81 82 82 82 82 82 82 82 82 82 82 82 83 73 63 61 60 60 62 73
80 79 79 79 79 79 79 79 80 79 80 79 79 80 81 83 85 86 86 88 88 87 88 88 86 86 85 84 85 85 85 84 84 82 82 82 81 81 81 81 82 82 82 81 81 81 82 82 82 83 83 82 82 83 82 83 75 60 59 58 59 64 74
78 78 78 78 78 78 78 78 79 80 79 78 78 79 80 80 80 80 79 80 85 87 86 86 85 85 84 84 85 85 85 85 84 84 83 82 82 82 81 81 81 82 82 82 82 82 83 82 82 82 83 83 83 77 81 83 75 58 59 58 58 64 75
75 76 77 77 78 78 78 78 79 78 78 78 77 78 79 79 78 78 77 77 79 81 82 83 83 83 84 84 84 85 85 85 84 84 84 83 83 83 82 83 82 82 82 82 83 83 83 83 83 82 82 83 82 82 82 82 82 66 57 57 57 59 74
76 76 75 76 76 78 77 77 77 77 77 76 77 78 78 78 78 76 77 75 74 75 78 80 80 80 81 82 84 84 84 84 84 84 85 85 84 84 83 83 82 82 82 82 83 82 81 82 83 82 82 82 81 82 82 82 82 71 55 56 56 57 63
74 75 76 76 77 77 76 76 75 77 77 76 77 78 78 77 76 76 76 75 76 77 79 78 77 79 79 79 81 83 83 84 84 85 85 85 84 83 82 83 83 83 82 83 82 80 80 81 81 81 81 81 80 81 81 80 77 78 57 56 55 56 56
71 72 72 73 73 75 76 74 74 74 74 76 76 76 76 76 75 75 75 74 76 77 78 78 77 77 79 79 80 80 82 83 83 84 86 85 84 83 82 82 82 82 81 81 80 80 80 79 79 79 79 78 77 78 79 79 78 69 66 55 54 54 54
69 71 72 74 74 73 75 73 73 73 73 74 74 74 75 74 74 75 75 74 76 77 78 78 77 75 77 78 79 80 80 82 83 85 86 84 84 83 82 81 81 81 81 80 80 80 79 79 78 78 78 78 76 76 76 77 78 69 64 62 54 54 54
68 69 70 70 71 72 73 72 71 72 72 73 73 73 74 73 73 74 73 74 76 76 77 77 77 75 76 78 78 78 80 81 82 83 84 84 83 82 81 80 81 80 80 80 80 79 78 78 77 77 77 77 76 75 75 77 77 78 67 60 55 54 53
68 69 70 70 70 71 71 72 71 71 71 72 72 73 73 73 73 72 72 74 76 76 77 77 77 75 75 76 76 77 79 79 80 82 83 82 83 82 82 82 81 80 79 79 79 79 78 77 76 76 76 75 76 75 76 76 76 71 66 63 60 56 53
66 67 67 67 69 70 70 70 70 70 71 71 71 71 73 72 73 72 73 74 75 76 76 76 77 76 75 75 76 77 78 79 79 79 80 80 80 81 81 81 81 80 78 79 78 77 76 76 75 75 74 75 74 74 75 73 67 68 68 65 64 64 61
65 67 67 68 69 69 69 70 69 69 69 70 70 70 71 71 71 72 73 74 75 75 74 75 77 76 74 76 77 77 78 78 82 80 78 77 78 78 78 78 80 79 77 78 78 76 76 76 75 75 76 75 75 75 72 66 65 64 65 67 66 65 64
65 65 66 67 68 69 68 69 69 69 69 69 69 70 70 70 70 71 72 73 74 74 73 74 76 76 74 76 76 77 78 78 79 77 73 65 59 54 54 58 65 72 73 68 70 77 81 78 77 77 77 77 75 75 67 67 65 65 56 56 56 64 67
65 66 67 68 69 67 68 69 69 68 68 68 68 68 69 69 70 70 72 72 73 73 72 73 74 73 73 73 76 77 77 77 76 74 72 70 66 63 60 55 48 51 64 66 60 51 58 68 75 74 70 65 62 67 72 69 66 50 45 44 44 45 46
66 66 66 67 68 67 67 68 70 69 69 68 68 69 69 69 69 70 71 71 72 73 72 72 72 72 72 72 74 75 77 76 74 73 72 70 69 67 65 65 60 48 47 53 53 50 46 46 50 56 62 67 63 57 55 54 47 44 44 43 43 43 43
67 67 66 67 68 67 67 67 67 67 68 67 68 68 68 69 69 70 71 72 72 73 72 72 70 71 72 72 73 74 75 75 74 73 70 69 69 68 67 66 64 62 51 46 49 49 47 46 47 49 51 54 58 59 57 49 45 44 44 44 43 43 42

ECMWFFLT1_sfc_temp_051.txt.gz
Temp
82 82 81 82 81 82 81 82 82 82 82 82 82 82 82 81 81 80 79 79 78 77 78 78 78 78 78 78 79 79 79 79 78 78 77 77 77 77 76 76 76 75 75 75 75 76 77 77 77 77 77 77 77 76 76 76 76 77 77 76 76 76 76
81 82 82 82 82 81 82 82 82 83 83 82 82 81 82 81 80 80 79 79 79 78 78 78 78 78 78 78 79 78 78 78 78 78 78 76 76 76 77 76 76 75 75 76 76 76 76 77 77 77 77 77 77 77 77 76 77 76 76 76 76 75 75
81 82 82 82 82 82 81 82 82 83 83 83 83 82 82 81 81 80 80 79 78 79 79 78 78 78 79 79 78 78 78 78 78 78 77 77 77 77 77 77 77 76 77 77 76 76 77 77 77 77 77 77 77 77 77 77 77 77 76 76 76 76 75
81 82 83 83 83 83 83 83 83 84 84 84 84 83 82 81 82 81 81 80 79 79 78 78 79 79 79 78 78 78 78 78 78 78 78 78 77 77 76 76 76 77 76 76 77 78 78 77 77 76 78 77 77 77 77 77 77 77 77 76 76 76 75
82 83 83 83 83 82 82 82 83 83 84 85 85 83 83 83 82 82 81 81 81 80 80 79 80 80 79 79 79 79 78 78 78 78 79 79 78 77 76 77 77 77 77 77 76 77 76 76 77 76 77 77 77 77 77 77 77 77 77 76 76 76 75
81 81 82 83 83 83 83 83 84 84 84 84 84 84 84 83 83 82 82 81 81 81 81 80 79 79 79 79 79 79 79 78 78 78 78 78 78 77 77 77 77 78 77 77 77 77 77 77 77 77 77 77 77 77 77 77 77 77 77 76 76 76 75
82 82 83 83 84 83 83 84 84 85 85 85 85 85 84 84 83 83 83 82 81 80 80 80 80 80 79 79 79 79 78 78 78 78 79 78 78 78 78 78 78 78 79 77 76 77 77 77 77 77 77 77 77 77 77 76 77 77 77 76 76 76 76
83 83 83 84 84 85 84 84 84 85 85 85 85 84 84 84 84 83 83 83 82 82 81 80 80 80 79 79 79 79 79 79 79 79 79 78 78 78 78 78 78 78 77 77 77 77 78 77 78 78 78 78 77 77 77 77 77 77 77 76 76 76 77
84 84 84 85 85 85 85 84 84 85 84 84 84 84 84 84 84 83 83 83 83 82 81 82 81 81 80 79 79 78 79 79 79 78 78 78 78 78 79 79 78 78 77 78 78 77 78 78 78 78 77 77 77 77 77 77 77 77 77 76 76 76 76
83 82 83 85 86 86 85 85 84 83 82 82 82 82 83 84 84 84 84 83 83 82 82 82 82 82 81 80 79 80 79 79 79 79 79 78 79 79 79 80 79 79 78 79 79 78 78 79 78 78 77 77 77 77 77 77 77 77 77 77 77 76 76
83 82 83 83 84 84 84 83 82 81 82 81 82 83 83 84 84 84 84 84 83 83 83 83 83 82 81 80 80 80 79 79 79 79 78 79 79 79 80 80 80 79 79 79 79 79 79 78 78 78 77 77 77 77 77 77 77 77 77 77 78 77 77
81 81 81 82 82 82 81 81 82 81 81 81 82 83 82 83 84 84 84 84 84 83 83 83 83 83 82 81 80 79 79 79 79 79 79 79 79 80 80 80 80 80 80 79 79 79 80 79 79 79 78 78 78 78 78 78 77 77 78 78 78 77 77
81 81 80 81 81 82 81 80 80 80 81 82 83 83 83 84 84 84 84 83 84 84 84 83 83 82 82 81 80 79 79 79 79 79 79 79 80 80 80 80 81 81 80 80 80 80 80 80 79 79 79 79 79 79 78 78 78 78 77 78 78 77 77
81 81 81 81 81 80 79 79 80 80 80 81 82 83 83 84 85 84 84 83 84 85 84 84 83 82 81 81 80 79 79 80 80 80 79 80 79 79 80 80 80 80 80 80 80 80 80 80 79 80 80 80 79 79 79 78 78 78 78 78 78 78 77
79 80 80 80 79 79 79 79 79 79 80 81 82 82 82 83 84 84 84 85 84 85 84 84 83 82 81 81 79 79 80 80 80 80 80 79 79 78 79 79 80 80 80 80 80 81 81 81 81 80 79 80 79 79 79 79 79 79 79 78 77 78 78
80 80 80 80 80 80 80 80 80 79 80 80 81 81 82 82 82 84 84 84 85 84 85 84 82 81 81 80 80 80 80 79 79 79 79 79 78 78 78 79 79 80 79 79 80 80 80 80 80 81 80 79 79 79 79 79 79 75 69 71 79 78 78
79 80 80 81 80 80 80 80 80 79 79 79 80 81 82 82 83 84 85 85 85 84 85 84 82 81 81 80 81 80 80 79 79 79 78 78 78 78 78 78 79 79 78 79 79 79 79 80 80 80 81 80 80 79 79 80 79 70 66 66 68 77 78
79 79 80 81 81 81 80 80 79 78 79 80 81 82 82 82 83 84 84 85 85 86 86 85 83 82 81 81 80 80 79 79 79 78 78 78 78 78 78 78 78 78 78 78 79 79 80 79 79 79 80 80 80 80 80 80 72 68 66 65 65 68 78
79 80 80 80 80 80 81 81 80 79 81 82 82 83 84 84 84 83 84 84 85 86 86 85 83 81 80 81 81 80 79 79 79 78 78 78 78 78 78 78 77 78 78 78 79 79 78 78 79 79 80 80 79 79 80 80 71 67 65 65 64 64 70
80 81 81 82 82 82 81 81 81 81 82 82 83 85 85 85 85 85 86 86 86 86 85 84 83 82 81 81 81 80 80 79 79 78 78 79 78 78 78 77 77 78 79 79 79 78 78 79 79 79 78 79 79 79 80 80 72 66 64 63 63 64 66
72 76 77 78 77 79 78 79 79 79 79 81 83 83 83 83 84 83 84 85 84 84 83 84 83 82 82 81 81 81 80 80 79 79 79 79 79 78 78 78 78 78 79 79 79 78 78 78 78 79 79 79 80 79 80 81 70 65 62 61 61 62 63
71 73 74 74 75 73 75 76 77 79 78 79 81 82 84 83 84 84 85 85 84 84 84 83 82 82 82 81 81 81 81 80 79 79 79 79 79 78 78 78 78 77 78 79 79 79 79 79 79 79 79 79 79 79 79 82 69 64 62 61 60 61 68
73 73 73 73 75 74 75 77 78 78 79 79 80 80 82 83 85 85 85 84 85 84 85 84 82 82 82 82 82 82 81 81 80 80 79 79 78 78 78 78 78 78 79 78 79 79 79 79 79 79 79 79 79 79 79 80 72 63 60 59 59 61 70
76 75 75 75 75 76 76 76 77 78 79 77 77 77 81 83 85 83 82 83 84 84 84 84 83 82 82 82 82 82 82 82 81 80 80 79 79 78 79 79 79 79 79 79 78 78 79 79 79 80 80 79 79 80 79 80 75 63 59 58 58 62 72
74 75 76 76 76 75 76 76 76 77 76 76 75 75 76 81 84 83 81 81 84 84 83 83 83 84 83 83 84 83 83 82 82 81 81 80 79 80 79 79 79 80 80 80 80 80 80 80 79 79 80 80 80 75 78 80 76 62 59 57 57 63 73
72 73 74 75 75 75 75 76 76 75 74 74 73 75 76 77 79 80 81 81 83 84 83 83 84 85 86 85 84 84 83 83 82 82 81 81 80 80 80 80 80 79 79 79 80 80 80 80 80 79 79 80 80 80 79 80 81 73 59 57 56 58 72
72 73 73 74 74 76 74 74 74 73 73 73 74 75 76 77 76 75 75 74 74 75 76 76 75 78 81 82 84 83 83 83 83 82 82 82 81 81 81 81 80 80 79 79 80 80 79 79 80 79 79 80 80 80 80 80 80 77 59 56 55 56 62
71 72 73 74 75 75 74 74 73 73 73 73 74 75 75 75 74 73 73 73 73 73 76 75 75 74 77 80 81 82 82 83 83 83 83 83 82 80 80 81 81 81 80 80 79 78 78 78 78 78 78 79 79 79 79 80 75 81 61 57 55 55 55
67 68 69 70 72 73 74 72 71 72 72 73 73 73 74 74 73 73 72 72 72 73 74 75 74 73 73 76 79 80 81 81 82 82 84 83 83 81 80 80 80 80 79 78 78 77 77 77 77 77 77 77 77 77 78 78 77 69 71 57 55 54 54
67 68 69 71 71 71 72 71 71 70 71 71 71 72 72 73 72 73 72 70 72 73 74 74 74 73 71 74 76 78 80 81 82 83 84 84 83 81 80 79 79 79 79 78 78 77 77 76 76 76 77 77 76 75 75 77 78 70 65 65 55 55 54
65 66 67 68 69 71 71 70 69 70 69 70 70 71 70 71 72 72 71 70 72 72 73 73 75 75 72 71 74 76 77 79 81 82 82 83 82 81 80 79 79 78 78 78 77 77 76 76 76 76 76 76 76 75 74 75 76 78 68 62 58 55 54
66 67 67 68 68 69 70 70 70 70 69 68 69 70 70 70 70 69 68 71 72 72 72 73 74 75 75 73 71 74 76 76 78 79 81 81 81 82 81 81 79 78 77 77 77 77 76 76 75 75 75 75 76 74 75 74 75 75 70 66 63 59 55
65 65 65 66 67 69 68 69 69 69 69 68 68 69 69 69 69 68 69 70 71 72 72 73 74 75 75 74 71 72 74 76 76 77 78 78 79 80 81 80 80 78 76 77 77 76 76 76 75 74 74 74 74 74 73 75 72 69 67 66 66 66 63
64 66 66 66 67 68 67 67 67 68 68 67 67 68 68 68 68 69 69 70 70 70 71 72 74 74 73 74 72 72 74 74 80 78 75 76 78 77 78 77 78 77 77 77 76 76 76 76 75 74 74 74 74 74 73 69 66 66 67 65 66 66 64
63 64 65 66 66 67 67 67 67 67 67 66 66 67 67 67 68 68 68 69 69 69 70 71 73 73 72 71 71 72 74 74 76 75 71 64 57 52 53 58 66 71 75 68 70 78 80 77 76 77 76 77 75 73 71 67 67 68 59 63 61 65 65
63 63 64 65 66 66 67 68 67 66 66 66 66 67 67 67 68 68 69 69 69 69 69 70 71 71 71 71 71 72 74 74 72 70 68 66 63 60 58 53 46 48 62 65 59 53 54 64 76 78 76 71 64 67 72 72 69 49 45 46 47 48 49
63 63 64 65 65 65 65 65 67 66 66 65 66 67 67 67 67 68 68 69 69 68 68 68 69 70 70 70 71 73 74 72 70 69 67 66 65 65 63 62 57 46 45 50 50 47 44 45 54 62 65 71 65 55 51 52 46 45 43 44 44 44 45
64 63 63 64 64 64 64 65 65 65 65 65 67 66 66 66 67 67 68 69 70 69 68 68 68 68 69 70 70 72 72 71 70 68 67 65 65 66 65 64 62 60 50 44 47 47 45 44 45 47 51 53 56 56 54 47 44 43 44 43 44 44 43

ECMWFFLT1_sfc_temp_054.txt.gz
Temp
80 79 80 80 80 80 80 80 80 80 80 80 79 80 80 80 79 79 78 77 77 76 77 77 77 77 77 77 77 77 78 78 77 77 77 76 76 76 75 75 75 75 76 76 76 76 77 77 77 77 77 77 77 77 77 77 77 78 78 78 78 77 77
79 80 80 81 80 80 80 80 80 81 81 81 80 79 80 80 79 79 78 78 77 77 77 77 77 77 77 77 78 77 77 78 78 78 77 76 76 76 76 76 75 75 75 76 76 77 77 77 78 77 77 78 78 77 78 77 78 78 78 77 77 77 77
79 80 80 80 80 80 80 80 80 81 81 82 81 81 80 79 80 79 78 78 77 77 78 77 77 77 78 77 77 77 78 78 78 78 77 77 77 78 77 76 76 76 76 77 76 76 77 77 77 77 78 77 78 77 77 78 77 78 78 77 77 77 77
79 80 81 81 81 81 81 81 81 82 83 83 82 82 81 80 80 80 80 79 78 78 77 78 78 78 78 77 77 77 77 78 78 78 79 78 77 77 76 76 76 76 75 76 77 77 78 77 77 77 78 77 77 78 78 78 78 78 78 77 77 77 77
79 81 81 81 81 81 81 81 81 81 83 84 83 82 82 82 82 81 81 81 81 79 79 79 80 79 79 79 78 78 78 78 78 78 79 79 78 77 76 77 76 77 77 77 77 77 77 77 77 77 77 77 78 77 77 78 78 78 78 77 77 77 77
79 79 80 81 81 82 82 82 83 83 83 83 83 83 83 83 83 82 82 81 80 81 80 79 79 79 78 79 79 79 78 78 78 78 78 78 77 77 77 77 77 77 77 77 77 77 77 77 77 77 77 78 78 78 78 78 78 78 78 77 77 77 77
79 80 80 82 82 82 82 82 83 84 84 85 85 84 84 83 82 82 82 81 81 79 80 80 80 80 79 79 78 78 77 78 78 78 79 78 78 77 77 77 77 78 78 77 77 77 77 77 77 77 77 78 78 78 77 77 77 78 78 77 77 77 77
80 80 81 82 83 84 83 83 83 84 84 84 84 83 83 84 83 83 82 82 82 82 81 80 80 79 79 79 79 79 78 79 79 79 78 78 78 78 78 78 77 78 77 77 77 77 78 77 78 78 78 78 77 77 78 77 77 78 78 77 77 77 78
82 81 82 83 84 85 85 83 83 83 82 82 83 83 83 83 83 83 82 82 82 82 81 82 81 81 79 79 78 78 79 79 79 78 78 78 79 79 79 78 78 78 77 78 78 78 78 78 79 78 77 77 77 77 77 77 77 78 78 77 77 77 77
80 80 80 83 84 85 85 84 83 81 80 81 81 81 82 83 83 83 83 83 83 82 82 82 82 81 80 79 79 79 79 78 78 79 79 78 79 79 80 80 79 78 78 79 79 78 78 79 78 78 77 77 77 77 77 77 77 78 78 77 78 77 77
81 79 80 81 82 82 83 83 80 79 80 79 80 82 82 82 82 83 82 83 83 82 83 82 82 82 81 80 80 79 79 79 79 78 78 79 80 80 80 80 80 79 79 79 79 79 78 78 78 78 77 77 77 77 77 78 78 77 78 78 78 78 78
78 78 78 79 80 81 81 80 80 79 79 79 81 82 81 81 83 83 83 83 84 83 82 83 83 82 81 80 80 78 79 79 79 79 79 79 80 80 80 81 80 80 80 80 79 79 79 79 78 78 77 78 78 78 78 78 78 77 78 78 78 78 78
78 78 78 79 79 80 79 78 78 79 79 81 82 82 82 83 83 83 82 82 84 84 83 82 82 81 81 81 80 79 79 79 79 79 79 79 80 80 80 80 81 81 80 80 80 80 80 80 79 79 79 78 79 78 78 78 78 78 78 78 78 78 78
78 79 79 79 78 78 77 78 78 78 79 81 82 82 82 83 84 83 82 82 83 84 83 83 82 81 80 80 79 78 79 80 80 79 79 79 78 79 80 80 80 80 80 80 80 80 80 80 79 80 80 79 79 79 79 78 78 78 78 78 78 78 78
76 78 78 78 77 77 77 78 77 78 79 80 81 81 81 82 83 82 82 83 83 84 83 83 82 81 81 80 78 78 79 79 80 79 79 78 78 78 78 79 79 79 80 79 80 81 81 81 81 80 79 79 79 79 79 79 78 79 78 78 78 78 78
77 78 78 78 78 78 78 78 78 78 79 79 80 80 82 81 81 82 82 82 83 83 84 82 81 80 80 80 79 79 79 78 78 78 78 78 77 77 78 79 79 80 79 79 80 79 79 80 80 81 80 79 79 79 79 79 79 74 68 70 78 78 79
76 78 78 78 77 79 78 79 78 78 78 78 79 80 81 81 82 83 84 84 84 83 84 83 81 81 80 79 80 79 79 78 78 78 77 77 77 77 77 78 78 78 78 78 78 78 78 79 79 80 81 80 80 79 79 80 79 69 65 65 68 77 78
75 76 77 78 78 79 78 78 77 77 78 80 81 81 81 80 82 83 83 84 84 85 85 83 82 81 79 80 79 79 78 78 78 77 77 77 77 77 77 78 78 77 77 78 78 78 79 79 78 78 80 80 80 80 80 80 71 66 65 65 64 67 78
76 77 77 77 77 77 79 79 79 79 80 81 82 82 83 83 83 82 83 83 84 85 84 83 82 80 79 80 79 78 78 78 77 77 77 77 77 77 77 77 77 77 77 78 78 79 77 77 78 78 79 79 78 79 80 81 70 65 64 64 64 63 70
75 78 79 79 80 80 79 80 80 81 81 81 82 84 85 84 84 83 85 85 84 84 82 82 81 81 80 79 79 78 78 78 78 77 77 77 77 77 77 77 77 78 79 79 78 77 77 78 78 78 78 78 78 78 80 80 71 65 63 63 62 63 65
69 72 74 76 77 79 78 79 79 79 79 82 83 82 83 82 83 82 84 84 83 83 81 81 81 80 80 79 79 79 78 78 78 77 77 77 77 77 77 77 77 77 78 79 78 77 77 78 78 78 78 79 79 79 79 81 69 64 62 61 60 61 63
70 73 75 76 77 76 76 78 78 80 79 81 82 83 84 83 84 84 84 85 83 83 82 81 80 80 80 79 79 79 79 79 78 78 78 78 77 77 77 77 77 77 78 78 79 79 79 78 79 78 78 78 79 79 78 81 68 63 62 60 60 61 68
72 73 73 73 76 75 75 78 78 79 79 80 82 83 83 84 84 84 84 84 83 82 83 82 80 80 80 80 80 80 80 79 79 78 78 78 77 77 77 77 77 77 78 77 78 78 78 78 79 79 79 79 78 78 78 80 72 63 60 59 58 60 71
72 73 74 74 73 74 75 76 77 79 81 79 80 82 82 83 84 83 81 82 82 82 82 81 80 80 79 80 80 80 80 80 79 79 78 78 78 77 78 78 78 78 78 78 77 78 79 79 79 79 80 79 79 80 79 80 74 63 59 58 58 63 73
72 72 74 75 76 76 76 77 78 79 79 79 79 79 81 83 83 82 80 80 82 82 81 80 80 80 80 80 81 81 80 80 80 80 79 78 78 79 78 78 78 79 79 79 79 79 79 79 79 79 79 81 80 74 77 80 76 63 59 58 56 63 74
70 71 72 74 76 76 76 76 77 77 78 79 78 79 81 82 82 80 79 80 82 82 81 80 80 81 82 82 81 81 81 81 80 80 80 79 79 79 79 79 79 79 79 79 80 80 80 80 80 79 79 80 80 80 79 80 80 74 59 57 55 58 73
72 72 72 73 74 76 75 76 76 76 76 75 76 79 81 82 80 78 78 78 78 79 81 81 80 81 81 81 82 82 81 81 81 80 81 81 80 80 80 80 79 80 79 80 80 80 78 79 80 80 79 80 79 80 81 81 80 77 59 56 55 56 62
71 72 73 74 75 74 73 73 73 73 74 74 77 78 79 78 77 75 75 75 74 74 75 75 76 78 80 80 81 82 81 81 81 82 82 81 81 80 79 80 81 81 80 80 79 78 77 78 77 78 78 79 79 79 79 79 74 81 63 56 55 54 55
68 68 69 70 71 73 74 72 72 72 73 75 76 77 77 77 74 74 74 73 73 74 75 76 75 76 77 79 80 80 81 81 81 82 83 82 82 81 80 80 80 80 79 78 78 77 77 77 77 77 77 77 78 79 79 79 78 68 74 58 54 54 53
68 69 70 71 72 71 72 71 71 71 71 73 74 75 76 75 73 73 72 71 73 74 75 75 75 75 75 76 79 80 81 81 83 83 83 83 82 81 80 79 79 79 79 78 78 77 77 77 77 77 77 77 77 78 78 79 79 70 65 67 55 54 53
67 67 68 68 70 71 71 70 69 70 70 71 71 72 73 74 74 73 71 71 73 73 74 74 75 75 73 73 76 78 80 82 82 82 82 82 82 80 80 80 80 78 78 78 78 77 76 76 77 76 76 76 76 77 77 78 78 80 70 62 58 54 53
67 67 68 69 69 70 70 70 70 69 69 69 70 70 71 72 73 71 70 72 73 73 74 75 75 75 75 74 73 76 78 79 80 82 83 83 82 82 81 81 80 79 78 78 77 77 76 76 77 76 76 76 77 77 77 76 77 78 78 68 66 60 55
65 66 66 66 68 69 68 69 69 68 68 67 68 69 70 70 70 70 71 71 72 72 73 75 75 75 75 74 73 73 75 77 79 80 81 81 82 82 82 81 80 78 77 77 77 77 77 77 77 76 76 76 77 77 77 77 76 77 77 74 73 73 69
64 65 66 66 68 68 68 67 67 67 67 67 67 68 69 69 69 69 69 70 71 71 73 74 75 74 73 73 74 73 74 75 78 78 78 78 80 80 80 80 80 79 78 78 77 77 77 78 77 76 77 77 77 77 77 76 76 76 75 74 74 74 72
64 64 65 66 66 67 66 67 67 66 67 66 67 68 68 68 68 69 68 69 69 69 71 73 74 73 72 72 73 73 75 74 77 77 77 73 64 55 55 62 70 74 79 76 76 81 82 79 79 79 80 79 77 76 75 76 74 76 68 75 65 72 73
64 65 66 66 67 66 67 67 67 66 66 66 66 67 67 67 68 68 69 69 69 69 71 72 71 71 71 71 72 73 75 75 76 75 72 70 66 63 59 52 46 48 65 69 59 54 58 65 78 80 79 78 75 73 77 78 78 61 56 55 55 56 58
64 64 65 66 66 66 67 67 68 67 66 66 67 67 67 67 67 68 68 69 69 69 68 68 69 70 70 71 72 73 74 74 72 71 69 69 67 66 64 64 58 45 43 49 49 47 46 53 59 61 65 76 72 56 46 49 47 46 46 46 46 46 47
65 65 65 66 65 65 66 66 65 65 65 65 66 65 66 67 67 67 68 69 70 69 68 68 69 70 71 71 72 72 73 72 71 69 68 68 68 67 67 66 65 62 49 43 46 46 43 41 44 51 58 60 60 59 57 47 44 44 44 44 44 45 44

ECMWFFLT1_sfc_temp_060.txt.gz
Temp
96 95 94 94 92 93 92 91 90 91 90 90 90 91 92 91 90 89 88 86 85 85 85 85 85 86 85 86 86 86 87 87 87 87 87 88 89 89 89 90 89 89 91 92 91 91 91 91 92 93 92 91 91 91 90 90 89 90 90 89 89 89 89
96 96 96 95 94 93 92 91 91 91 91 91 91 90 92 91 90 89 88 87 86 86 86 86 85 85 86 86 87 86 86 86 87 87 88 88 88 89 90 89 89 88 89 91 92 91 91 92 92 92 91 91 91 91 91 90 89 89 90 89 89 88 89
97 97 96 95 94 94 91 93 92 92 92 92 92 92 91 89 90 89 88 88 86 86 87 86 85 86 86 86 86 86 86 87 87 87 88 89 89 91 90 89 90 91 91 91 91 93 93 92 91 91 92 91 93 91 90 90 90 90 90 89 89 89 87
96 97 97 96 95 94 93 93 92 93 94 94 93 93 92 90 91 90 90 89 87 87 86 87 87 87 87 86 86 86 86 86 87 88 89 90 90 90 90 90 89 91 91 91 93 93 94 92 92 90 90 91 91 92 92 91 92 90 90 89 89 90 88
97 98 98 96 96 94 94 94 93 92 94 96 94 92 93 92 93 92 92 92 92 89 90 90 91 90 88 88 88 88 87 87 87 89 89 90 90 90 90 91 91 91 91 93 92 91 90 91 92 91 90 89 91 91 91 91 91 90 90 89 89 90 90
97 97 97 97 96 96 95 95 96 96 95 96 95 94 95 95 95 95 94 92 92 93 91 90 90 89 88 90 90 89 88 88 88 88 88 89 89 90 90 90 91 91 93 92 93 92 91 91 91 91 92 92 92 93 93 92 92 92 90 89 89 90 91
97 97 97 97 97 97 96 96 97 97 97 97 98 96 96 96 95 95 95 94 94 91 92 92 92 91 89 90 89 88 87 89 88 89 90 90 90 89 89 90 90 92 93 92 91 92 92 90 90 91 91 92 92 93 91 90 91 92 91 89 88 89 89
98 98 97 98 99 99 98 96 97 98 97 97 98 97 96 97 97 97 96 96 95 95 94 94 93 91 89 90 90 90 89 90 90 90 90 90 90 89 90 91 90 91 91 92 91 92 93 91 92 91 91 92 91 90 91 90 89 92 91 89 88 89 91
100 98 98 99 99 100 100 98 97 97 96 95 96 95 96 97 97 97 96 97 96 96 95 97 96 94 90 90 89 89 90 91 90 90 90 91 92 93 93 92 92 92 91 92 94 92 92 92 93 90 90 90 90 89 90 89 90 90 91 90 89 89 90
99 97 97 99 99 101 99 99 97 95 94 93 93 94 95 95 96 96 97 97 98 97 97 97 97 95 92 91 91 91 91 90 91 92 92 92 93 93 94 95 94 92 92 93 95 93 91 92 92 91 89 89 89 89 89 89 90 90 91 90 89 89 88
100 97 96 98 98 98 98 98 95 93 93 91 92 96 94 95 96 97 96 98 98 98 99 97 97 96 94 93 93 92 91 92 93 92 92 93 94 95 95 96 96 94 93 94 94 95 93 91 92 90 89 90 89 89 89 89 90 89 91 91 91 90 91
96 97 94 95 96 97 96 95 94 92 91 91 94 95 93 93 96 97 97 97 99 99 98 98 98 97 95 94 93 91 91 91 93 93 93 93 95 95 96 96 96 96 94 94 93 94 95 93 92 91 89 89 90 90 89 89 89 89 90 93 93 91 91
96 93 93 94 93 95 94 93 92 91 91 94 96 96 96 96 96 97 95 96 98 99 98 97 97 95 95 95 94 91 92 93 93 93 94 93 95 96 96 96 97 97 96 95 94 94 95 95 92 91 91 90 90 91 90 89 90 89 89 90 91 90 90
89 95 95 94 93 93 92 92 92 91 91 93 95 96 96 97 97 96 95 95 97 99 99 98 96 94 93 93 92 91 93 93 94 93 92 93 91 93 95 96 96 95 95 94 94 95 95 96 94 93 93 91 91 91 90 90 90 89 89 89 90 91 90
94 96 96 95 92 91 91 92 90 90 91 92 94 94 95 96 96 95 95 96 96 99 99 96 95 94 94 92 91 90 91 92 93 93 92 91 90 90 92 94 94 94 94 93 94 96 97 97 97 94 92 92 91 91 91 91 90 91 90 89 89 90 91
94 96 97 97 94 93 91 92 91 89 90 90 93 93 96 95 94 96 96 96 97 96 98 96 95 93 93 93 91 91 91 90 90 90 90 90 89 89 90 93 93 95 94 93 93 93 93 94 94 96 94 92 91 91 91 91 92 84 75 79 89 90 91
93 93 95 96 96 95 93 92 92 91 89 89 91 93 93 94 94 96 98 98 98 96 98 98 94 94 93 91 92 91 90 89 89 89 88 88 88 88 88 90 92 92 90 91 91 91 91 92 93 94 95 94 93 92 92 92 92 74 68 70 73 87 90
89 89 91 93 94 96 95 94 93 92 91 93 94 94 94 93 95 97 97 98 98 98 99 98 95 94 91 92 91 90 89 90 88 88 87 87 87 87 88 89 90 89 89 90 91 89 92 91 91 91 94 94 94 94 93 93 79 68 67 68 68 74 89
87 88 89 88 89 89 95 98 96 93 95 96 95 95 97 96 96 94 96 95 97 98 98 97 96 92 90 92 91 89 88 88 88 87 87 87 87 87 87 87 88 89 89 90 90 90 88 88 90 90 91 92 91 93 94 95 74 65 65 66 66 67 77
86 87 88 89 90 91 92 93 97 98 97 95 96 99 99 97 97 96 98 98 97 97 95 94 94 92 91 91 89 88 88 88 87 87 87 87 87 87 86 86 86 89 91 91 89 88 88 90 89 89 88 89 90 90 93 94 73 64 63 64 64 65 71
84 84 85 86 87 90 90 90 92 96 96 98 99 98 98 98 99 98 98 98 96 96 93 94 93 92 91 90 89 88 88 87 87 86 87 87 86 86 86 86 86 87 89 90 90 88 87 88 88 88 88 90 91 90 91 95 68 63 62 62 61 63 68
84 85 85 87 86 86 86 90 92 97 97 98 99 100 100 99 100 99 99 99 97 97 95 93 91 92 91 89 89 89 88 88 87 86 87 86 86 86 86 86 86 86 88 89 91 90 91 89 90 89 89 89 90 90 90 94 66 61 61 60 60 62 77
84 86 87 87 89 90 90 91 92 96 97 98 100 101 100 101 100 99 99 98 98 95 96 94 91 90 89 89 90 89 89 89 88 87 86 86 86 86 86 86 86 86 88 88 89 89 89 89 90 89 90 90 89 89 89 93 73 59 59 59 58 65 82
86 88 89 89 89 91 91 93 95 97 99 98 98 100 100 100 99 98 96 96 97 96 95 94 91 90 89 89 90 89 89 88 88 87 87 86 86 86 87 87 87 87 88 87 88 89 90 90 90 91 91 91 90 91 90 92 77 58 58 57 57 68 83
85 88 88 88 89 91 94 95 95 97 97 97 98 99 100 100 99 98 95 94 97 96 94 92 91 90 89 90 91 90 89 89 88 88 88 86 87 88 87 87 87 88 88 89 89 89 90 89 90 91 91 94 93 81 87 93 81 58 60 56 56 69 84
82 85 86 89 91 93 93 93 92 94 97 97 96 100 98 99 97 95 93 95 97 95 94 92 90 91 92 92 90 90 89 89 88 88 89 88 87 87 87 88 88 88 88 89 90 91 92 91 91 90 91 93 93 93 92 91 93 74 57 57 55 60 82
84 86 86 88 90 86 92 94 94 95 97 96 95 99 100 99 96 93 92 92 93 93 95 94 92 91 91 91 92 91 89 89 89 88 89 89 88 88 88 89 89 89 89 90 92 91 90 90 91 92 90 92 91 92 94 93 92 81 56 56 55 56 66
84 86 89 88 86 87 92 95 93 94 98 96 97 98 98 96 92 91 90 91 92 93 97 95 92 91 91 90 90 90 89 89 89 89 90 90 89 88 87 89 90 90 90 91 90 88 88 88 88 90 90 91 92 91 91 89 81 92 60 57 54 56 57
78 81 84 85 87 89 91 92 93 95 97 98 98 98 98 97 91 90 89 89 91 95 95 94 93 91 90 89 90 89 89 88 89 90 93 91 90 89 88 89 89 89 88 87 88 87 87 86 87 88 89 89 91 91 91 90 86 73 76 57 55 53 55
76 80 84 88 89 88 90 90 93 95 97 97 96 96 96 94 89 88 88 89 92 94 94 93 91 90 89 89 89 89 89 89 91 91 92 91 90 89 88 88 88 88 88 87 87 88 87 87 88 87 89 89 89 91 92 91 92 76 69 68 53 55 54
75 77 80 81 86 86 88 90 90 95 95 94 94 94 93 93 89 88 87 90 92 92 92 91 90 89 89 89 90 89 89 89 90 90 91 91 91 88 88 87 88 87 87 87 87 87 86 86 87 86 87 88 87 89 91 93 92 94 76 63 57 54 53
74 76 76 79 80 84 87 88 88 87 88 92 94 92 92 92 91 87 88 91 91 92 92 90 89 88 88 89 89 89 91 89 91 91 92 92 92 90 90 90 89 89 88 88 87 86 86 86 88 87 87 87 90 90 92 92 93 92 90 72 66 60 55
73 73 73 74 77 80 83 85 85 84 83 83 87 91 92 92 92 91 90 90 93 93 90 90 89 87 88 88 90 90 90 90 92 93 93 92 93 92 91 90 90 89 87 87 88 87 87 87 87 87 88 89 90 92 91 91 91 92 93 89 83 81 72
71 72 73 74 75 76 77 79 80 82 82 82 83 85 88 89 91 91 91 93 93 94 90 89 88 89 89 90 90 91 90 90 87 89 93 91 91 92 92 91 92 92 89 89 89 89 88 89 88 89 91 91 92 91 91 92 92 91 92 93 90 87 85
69 70 72 72 73 74 73 75 77 78 79 80 82 83 84 84 86 87 88 90 92 91 89 88 87 88 89 90 90 89 90 90 90 90 93 92 90 93 90 90 94 93 92 93 95 95 95 93 91 91 94 94 91 90 92 92 91 94 80 91 78 86 92
68 69 71 72 73 74 75 75 76 76 77 78 80 82 83 83 84 85 87 87 89 89 87 87 87 88 88 89 90 90 90 90 92 92 92 95 93 90 75 51 46 60 82 88 64 52 51 60 84 85 90 93 92 93 90 90 90 69 64 64 61 63 59
66 67 69 71 71 71 72 73 75 76 76 78 80 81 81 82 84 84 86 87 87 88 88 87 86 87 88 88 90 89 91 91 92 91 90 92 94 93 86 81 69 46 42 51 55 49 42 41 41 45 52 73 91 79 53 56 52 53 56 56 56 53 50
66 66 68 70 71 71 71 72 73 74 75 77 79 80 81 83 84 84 86 86 87 88 88 87 87 86 89 88 89 86 88 91 90 91 90 90 92 91 87 86 81 74 50 42 46 46 43 42 41 40 44 45 55 76 82 57 46 47 49 50 50 49 46

ECMWFFLT1_sfc_temp_063.txt.gz
Temp
97 96 88 86 89 91 92 93 92 94 94 94 93 94 95 94 93 92 91 89 87 86 87 87 87 88 87 88 88 88 89 89 89 89 89 90 91 90 90 92 91 90 93 94 92 92 93 93 94 94 93 92 92 92 91 90 90 91 90 90 90 90 90
96 96 97 94 93 94 89 89 92 93 95 94 94 93 95 94 92 92 90 89 88 87 87 87 87 87 88 88 89 88 88 89 89 89 90 90 90 91 92 91 91 90 91 93 94 93 93 94 94 94 94 93 92 92 92 91 90 90 91 90 90 89 89
96 97 96 94 91 90 87 92 91 93 95 96 95 95 94 92 92 91 91 90 88 88 88 88 87 88 88 88 88 88 88 89 89 90 90 91 91 94 92 91 92 93 93 93 93 95 94 94 93 93 94 93 94 92 92 91 90 91 90 90 90 90 88
98 99 99 95 96 94 93 93 93 97 97 97 96 96 95 92 94 93 92 91 89 88 87 89 89 90 89 88 88 88 88 88 89 91 92 92 92 93 92 92 91 93 93 93 96 96 97 94 94 92 92 92 92 93 92 92 92 91 91 90 90 90 89
99 100 100 97 94 94 95 96 96 96 97 98 97 95 95 95 96 95 94 94 93 90 91 91 93 92 90 90 91 90 89 89 89 91 91 92 92 92 92 93 93 93 93 95 94 93 92 93 94 92 92 91 93 92 92 92 92 91 90 90 89 90 91
100 99 99 99 96 94 95 95 96 96 98 99 98 97 97 98 97 97 96 94 94 94 92 91 92 91 90 92 92 91 90 90 89 89 91 91 91 92 93 93 94 94 95 94 96 95 94 94 94 93 93 93 94 94 94 93 93 93 91 90 89 91 92
99 99 99 97 96 96 95 94 94 97 98 100 101 99 99 99 97 98 97 96 96 93 93 93 94 93 91 91 91 90 90 91 90 90 92 93 93 92 92 92 93 95 95 95 94 95 94 93 93 93 93 94 92 94 93 91 92 92 91 89 89 89 90
101 100 100 100 98 100 99 96 96 98 96 97 99 99 99 99 99 99 97 97 97 97 95 95 95 92 91 92 92 92 91 91 92 91 91 93 93 92 93 93 93 94 94 95 94 95 96 93 94 94 94 94 93 92 94 92 91 94 93 90 89 89 92
103 102 102 103 101 99 97 96 95 96 93 92 95 98 99 99 99 99 99 99 98 97 96 98 97 96 92 92 91 91 92 93 92 91 92 93 94 95 95 95 94 94 94 95 97 95 95 95 95 92 92 93 92 92 93 92 92 93 92 91 90 89 91
101 100 101 104 102 102 100 99 96 92 94 92 95 96 97 98 98 99 99 99 99 99 99 99 99 98 94 93 93 94 93 92 92 93 94 94 95 95 96 97 96 95 95 96 97 96 94 95 94 93 91 92 91 92 91 92 92 92 93 92 91 90 89
102 99 99 101 99 97 97 98 93 91 93 92 94 99 97 98 98 100 99 100 100 100 101 100 99 99 96 95 95 94 93 93 94 94 94 95 96 97 97 98 97 96 95 96 96 97 95 93 94 92 91 92 92 91 91 92 92 91 93 93 92 92 92
99 100 98 97 98 98 96 91 91 91 91 93 97 99 96 96 99 100 100 100 101 101 101 101 101 100 97 96 95 93 94 94 95 95 95 95 97 97 98 98 98 97 96 96 96 96 98 94 94 93 91 91 92 92 91 91 91 91 91 94 94 92 93
102 99 97 96 96 98 93 91 92 93 94 98 99 100 99 99 99 100 98 99 102 102 101 100 100 98 98 97 97 94 95 95 95 95 96 95 97 98 98 98 99 99 97 97 97 97 98 97 94 93 93 92 92 93 91 91 92 90 90 92 92 92 92
93 99 100 98 97 94 92 93 95 95 95 97 98 99 100 100 100 100 98 99 100 102 102 101 99 98 96 95 94 93 95 96 96 96 95 95 94 96 98 98 99 98 98 97 96 97 98 99 96 95 95 93 93 93 92 91 92 91 90 91 92 93 92
98 100 99 98 92 91 94 93 93 95 96 96 98 98 99 100 100 99 99 99 100 103 102 100 99 97 98 95 93 92 94 94 96 96 95 94 93 93 95 97 97 97 97 96 96 98 99 99 99 95 94 94 93 92 93 93 92 92 91 90 91 92 93
98 100 101 99 97 97 96 96 96 95 95 94 96 96 100 99 97 99 99 99 101 100 102 100 98 96 97 96 94 93 94 93 93 93 93 93 91 91 93 96 96 98 97 96 96 95 95 95 97 98 95 94 93 93 94 93 94 86 78 82 91 91 94
95 94 97 96 97 98 97 96 97 95 94 93 94 96 97 98 98 100 102 101 102 100 102 102 97 97 97 95 95 94 93 92 92 92 91 91 91 91 92 93 95 95 94 94 95 93 92 95 96 98 97 96 95 94 94 95 95 77 71 73 77 89 91
91 90 91 93 94 94 94 96 97 96 95 96 97 97 98 96 99 100 101 101 102 102 104 102 99 98 94 95 93 92 92 93 91 91 91 91 90 90 91 93 94 93 93 94 95 92 95 95 95 94 97 97 96 95 95 95 83 70 70 70 71 77 91
90 92 91 91 91 92 96 98 98 96 98 99 98 98 100 99 100 98 99 99 101 102 103 102 100 96 94 96 94 91 91 91 91 90 90 90 90 90 90 90 91 92 93 94 94 94 92 91 94 94 95 96 94 95 96 96 77 67 68 69 69 69 80
91 91 92 92 93 91 91 92 95 96 100 98 98 102 102 101 101 100 101 102 101 101 99 98 98 96 95 94 93 91 91 90 90 90 89 90 90 90 89 90 90 93 95 95 93 91 91 93 92 92 91 93 94 92 95 97 74 66 65 67 66 68 73
90 90 88 88 88 91 91 90 90 92 94 99 102 100 101 101 102 101 102 102 101 100 97 98 97 96 95 94 93 92 91 90 90 89 89 89 89 88 88 89 90 92 93 94 93 91 90 92 91 91 92 93 95 94 95 99 68 64 63 64 64 66 71
86 87 87 88 88 89 90 93 93 95 95 96 100 105 103 103 103 103 102 104 102 101 100 98 96 96 95 93 93 92 91 91 90 89 89 89 88 88 88 88 88 89 91 92 94 93 93 91 93 92 92 92 93 94 92 96 62 64 62 63 63 64 80
84 86 87 88 91 93 92 92 93 95 94 96 98 101 105 105 105 104 103 102 102 100 101 98 95 95 93 93 94 92 91 91 90 89 88 88 88 88 88 88 88 89 91 91 92 92 92 91 93 92 93 92 91 92 91 95 68 61 60 61 61 66 84
84 85 87 89 90 92 93 93 94 96 97 98 97 99 103 105 104 102 100 100 102 100 100 99 95 94 92 92 93 92 91 90 90 89 89 88 88 88 89 89 89 90 91 91 91 92 93 93 92 93 93 93 92 93 93 96 75 58 59 59 58 70 85
81 84 85 86 89 91 94 93 93 94 94 96 98 99 101 104 104 104 99 98 102 100 98 96 95 94 93 93 94 92 91 91 90 90 90 88 89 89 89 88 89 90 90 92 92 93 93 93 92 93 93 96 95 84 90 95 81 57 59 58 57 71 85
77 79 83 86 89 93 92 90 90 91 94 96 97 100 101 105 103 99 98 99 102 100 97 96 95 95 95 94 93 92 91 91 90 89 90 89 89 89 89 90 90 90 90 92 93 94 95 94 94 93 93 96 96 95 94 94 92 70 58 57 56 62 84
77 80 81 85 89 87 91 91 92 93 96 96 97 101 103 104 102 98 96 97 97 97 99 98 96 95 94 93 94 93 91 91 91 90 91 91 90 90 90 90 90 91 91 92 94 94 92 93 94 95 93 95 93 95 96 95 94 77 56 56 56 58 69
75 78 81 81 85 87 90 93 92 93 97 98 99 101 102 101 97 94 94 95 96 97 100 98 95 94 94 92 92 93 91 91 90 91 92 92 91 90 90 91 92 91 91 93 92 90 90 90 91 92 93 94 95 94 94 92 84 88 58 57 55 56 59
70 73 75 77 85 91 93 92 92 95 97 100 102 102 101 102 95 94 93 93 94 99 99 97 96 94 93 91 92 91 90 90 91 91 96 93 92 91 89 90 91 90 90 89 90 89 89 89 90 91 92 92 93 94 94 93 88 74 71 57 55 54 56
68 71 74 79 88 89 92 90 92 94 97 99 99 100 99 99 93 92 92 92 95 98 97 96 94 92 91 91 91 91 90 91 93 93 94 93 91 90 89 89 90 89 89 89 90 90 88 89 89 89 91 92 92 94 95 93 94 77 67 65 54 54 55
65 69 71 77 86 87 87 89 90 94 96 97 98 98 97 98 94 92 91 93 95 95 95 93 92 91 91 91 92 91 91 91 91 92 93 93 92 90 89 89 90 89 89 88 89 89 88 88 89 88 89 90 90 92 93 95 93 94 73 62 56 55 54
65 69 69 78 82 83 85 89 92 89 88 94 98 97 95 97 96 91 91 95 94 95 95 93 91 90 90 91 91 91 92 91 93 93 94 94 93 91 91 91 90 90 89 89 88 88 88 88 89 89 88 89 91 91 93 93 94 94 86 69 63 60 56
64 65 66 74 78 80 85 85 87 86 87 90 95 97 98 97 97 95 93 93 96 97 94 92 90 89 89 90 91 91 91 91 93 94 95 94 94 93 92 92 91 90 88 89 89 89 89 88 88 89 90 90 91 92 92 93 93 93 92 84 80 77 70
61 62 69 73 76 79 82 83 83 83 84 84 85 87 95 96 95 95 94 97 97 98 93 90 89 90 90 91 92 92 92 91 88 90 94 93 93 93 92 92 93 93 89 90 90 90 90 90 89 90 91 92 92 91 92 91 92 92 92 90 85 84 81
60 63 70 71 73 76 78 80 81 81 81 82 85 86 86 91 94 94 93 94 95 94 91 89 88 89 90 91 91 91 90 91 91 92 94 93 92 93 87 90 96 94 92 94 95 95 96 93 92 92 95 95 92 91 90 91 90 93 80 89 75 84 88
61 65 70 72 73 74 76 78 80 80 80 82 84 85 85 85 86 91 94 93 94 92 90 88 89 90 90 91 91 92 91 92 93 93 94 95 95 85 70 51 45 58 84 87 60 52 53 67 87 87 92 92 92 90 90 91 93 70 63 62 62 63 67
60 63 67 71 71 72 72 74 77 79 80 81 83 84 84 84 85 86 87 91 93 91 90 89 88 90 91 91 92 91 92 93 93 92 92 94 94 90 84 81 70 47 43 51 53 47 44 43 45 48 57 79 91 71 56 61 56 55 54 51 51 53 56
62 65 66 70 70 71 72 73 74 75 77 79 80 80 81 83 84 84 87 88 90 91 90 89 89 89 91 92 92 89 90 94 92 92 92 93 93 90 86 85 79 72 50 43 47 46 42 42 41 43 47 48 65 80 76 58 50 50 49 48 48 50 51

ECMWFFLT1_sfc_temp_066.txt.gz
Temp
88 88 87 89 89 90 89 89 89 91 91 90 91 92 93 92 90 89 88 86 84 84 85 85 85 85 85 85 85 85 86 85 85 85 85 85 86 85 86 87 87 85 87 87 86 86 87 88 89 89 88 88 88 88 88 88 87 89 88 88 87 86 86
90 90 91 91 89 89 89 89 89 91 92 91 90 90 92 92 90 90 88 86 85 85 85 86 85 85 85 85 86 85 85 85 85 85 86 84 85 85 87 86 86 85 85 87 87 87 88 89 89 89 89 88 89 88 89 88 87 87 87 86 86 85 86
91 92 91 89 89 89 88 90 90 91 91 92 92 92 91 89 90 89 89 87 85 85 86 86 85 86 86 85 85 85 86 86 86 86 86 87 87 90 88 87 87 87 89 88 88 89 90 90 88 88 89 89 90 88 88 88 87 87 87 86 86 86 85
87 88 90 91 90 89 90 91 90 92 93 94 94 94 92 89 92 91 91 89 87 86 85 86 87 87 86 85 86 85 86 86 87 88 89 89 88 89 88 87 87 89 88 88 91 91 93 90 90 88 89 88 88 89 89 88 89 87 87 86 86 87 85
90 92 91 89 90 90 91 91 91 89 91 95 94 92 93 93 94 94 93 92 91 88 88 88 89 88 87 87 88 88 87 87 87 88 89 89 88 88 88 90 89 89 89 91 89 87 87 88 90 88 88 87 89 88 88 88 88 87 86 86 85 86 86
92 91 90 90 90 91 91 92 93 92 92 93 95 93 93 94 95 96 95 93 91 90 89 88 89 88 87 88 88 88 87 87 87 87 88 88 87 88 89 89 90 90 91 90 91 90 90 89 90 89 90 91 91 90 90 89 89 89 87 86 85 87 87
91 92 92 90 91 91 92 92 92 93 93 94 90 86 84 84 86 91 94 95 93 90 90 90 90 90 88 88 88 87 87 88 88 89 89 90 89 89 88 89 89 90 91 90 90 90 91 89 89 89 89 90 89 90 88 87 87 88 87 85 85 85 85
92 92 93 92 93 93 93 92 93 94 94 91 88 84 81 80 81 80 79 88 93 93 92 91 90 89 88 88 89 89 88 88 89 89 89 90 90 89 90 90 89 90 90 91 90 91 92 89 92 90 90 91 89 88 89 87 86 90 88 86 85 86 88
98 95 97 94 93 95 95 93 93 92 90 88 87 84 83 83 82 82 81 85 93 93 92 92 92 91 89 89 88 88 89 89 89 89 89 90 91 92 92 92 91 91 90 92 93 91 91 91 92 88 88 89 88 87 88 87 88 88 88 86 85 85 87
98 96 96 97 95 95 94 94 93 90 88 88 86 85 85 84 84 84 86 89 91 94 93 93 93 92 90 90 90 90 89 88 89 90 90 90 91 92 93 93 93 92 92 93 94 93 91 91 91 89 87 88 87 87 87 87 88 88 89 87 87 86 85
99 94 95 95 93 93 92 94 92 89 89 87 87 89 86 87 87 89 90 90 90 90 94 94 94 93 91 91 91 91 89 90 90 90 90 91 92 93 94 94 94 93 93 93 93 94 92 90 90 88 87 89 88 88 88 88 88 87 89 89 89 87 88
95 95 92 94 91 91 91 90 91 89 89 88 90 89 87 87 91 93 92 90 92 90 92 95 95 94 92 92 91 90 90 90 91 90 90 91 92 93 94 95 94 94 93 94 93 93 95 91 92 90 88 88 89 88 88 87 88 87 88 90 90 88 89
98 94 93 95 91 92 90 88 89 89 88 92 93 93 91 91 93 95 91 90 94 94 92 93 94 93 93 92 92 90 91 91 91 91 91 91 93 94 94 95 96 95 94 94 94 94 95 94 91 90 90 88 89 89 88 88 89 87 87 88 88 88 88
96 97 97 94 91 90 89 89 89 89 89 91 93 94 94 94 94 94 92 92 92 94 93 93 95 94 92 91 91 89 91 91 92 92 91 91 90 92 94 95 95 94 93 93 93 94 95 95 93 92 92 90 90 89 88 88 88 87 87 87 88 88 88
97 98 97 95 90 89 89 89 88 88 90 92 94 93 94 94 94 93 92 93 91 94 93 94 96 94 93 91 90 88 90 90 92 91 90 89 88 89 91 93 93 93 93 92 93 95 95 96 96 92 91 91 90 89 90 90 89 89 88 87 87 88 89
92 95 96 97 94 92 91 91 89 88 89 89 92 93 95 94 92 93 93 92 93 89 91 95 95 93 93 92 90 90 90 89 89 90 89 88 87 87 89 93 93 95 93 92 93 92 91 92 93 94 92 91 90 90 90 90 90 84 78 80 87 87 90
91 92 92 91 89 90 90 92 94 91 89 88 90 92 93 93 92 94 95 94 94 94 96 96 94 95 94 91 92 90 89 88 88 88 87 87 87 88 88 90 92 91 90 90 91 90 89 91 92 94 94 92 91 90 90 92 91 77 71 73 77 86 87
88 89 90 91 91 89 91 91 92 92 89 92 91 91 94 92 94 95 96 96 96 95 92 92 96 96 92 92 90 89 88 89 88 87 87 87 87 87 88 90 90 89 88 90 91 88 91 92 91 90 93 93 92 92 91 91 82 71 70 71 71 78 87
87 88 90 91 90 88 90 91 90 89 92 90 86 81 80 81 86 92 95 95 96 96 96 98 98 94 91 93 91 89 88 88 88 87 87 87 87 87 87 87 88 89 90 91 91 91 88 88 90 90 91 92 90 91 92 92 79 68 68 69 69 70 81
87 87 86 87 89 90 89 88 89 90 91 91 92 91 90 84 80 91 96 96 96 96 95 94 96 95 93 92 90 89 88 88 88 87 87 87 87 87 87 87 87 91 93 92 90 88 89 91 89 89 88 89 89 88 92 92 77 66 66 67 67 69 74
82 83 85 86 86 87 87 87 88 90 91 94 92 92 96 96 99 97 92 82 80 83 89 95 96 95 93 92 90 89 89 88 88 87 87 87 87 86 87 87 87 89 91 92 91 89 88 90 89 88 89 90 91 90 92 95 71 64 64 65 65 67 71
80 81 82 83 84 85 85 89 89 91 91 92 94 95 95 96 98 99 96 86 87 86 85 89 92 95 93 91 91 90 89 89 88 87 87 87 87 87 86 86 86 86 88 90 92 92 91 89 91 90 90 89 90 92 90 95 66 64 63 64 64 66 77
79 79 81 82 84 85 85 87 89 91 91 93 94 95 94 95 99 97 95 97 97 93 94 90 87 93 91 92 92 91 90 90 89 88 87 87 87 87 87 86 86 87 88 89 90 90 90 89 91 89 91 90 89 90 89 91 67 62 61 62 62 67 80
78 79 80 81 82 84 86 88 89 91 93 94 94 95 95 95 96 97 95 95 97 95 94 94 93 93 91 91 92 90 90 89 89 88 88 87 87 87 87 88 88 88 88 88 89 90 92 91 90 91 91 91 91 91 89 92 71 58 60 61 60 70 81
75 76 77 79 80 81 84 85 86 89 90 91 91 92 93 94 94 96 94 92 97 96 94 92 92 93 91 92 93 91 90 90 89 89 88 87 87 88 87 87 87 88 88 90 90 91 90 90 90 91 91 93 93 83 88 93 76 55 60 58 58 70 83
71 72 74 77 79 81 80 81 82 85 90 91 91 94 94 94 94 92 92 95 96 95 94 93 93 94 94 94 92 91 89 90 88 88 89 88 87 87 87 87 88 88 89 90 91 91 92 92 91 90 91 93 93 91 91 91 87 65 57 57 57 63 82
71 72 72 74 76 75 78 81 84 87 90 91 90 94 96 97 96 93 92 92 93 94 96 96 95 93 93 91 93 92 89 90 89 89 89 89 88 88 88 88 88 89 88 90 92 91 90 91 91 92 90 92 90 92 93 92 90 72 56 56 56 59 70
69 69 72 72 72 74 77 80 82 86 91 92 94 96 96 94 91 89 89 91 92 94 98 96 93 93 92 90 91 92 89 89 89 90 90 90 89 87 87 88 90 89 89 91 89 87 87 87 88 89 89 90 91 91 91 88 82 83 58 57 55 58 62
65 65 66 68 70 74 76 77 79 84 89 92 94 95 96 98 91 89 90 90 91 96 96 95 95 93 91 90 90 89 89 88 89 89 92 91 89 88 87 88 88 88 87 86 86 86 86 86 87 88 88 88 90 91 91 89 85 73 68 56 55 55 58
64 64 66 68 70 71 73 74 79 84 88 90 90 92 94 94 89 88 89 90 93 95 95 93 92 90 90 89 89 90 89 89 91 91 92 90 89 88 87 86 87 86 86 86 86 86 85 86 86 87 88 89 89 91 91 89 89 72 66 63 55 55 56
62 63 63 64 67 69 71 75 80 83 85 88 90 90 89 91 90 89 89 91 91 91 92 91 90 90 90 90 90 89 89 90 89 89 90 91 90 87 87 87 87 86 86 86 86 86 85 85 86 85 86 87 86 88 89 90 90 84 68 61 57 56 55
62 62 63 65 66 68 70 76 81 83 84 86 89 87 87 91 92 90 89 93 91 93 93 91 89 88 88 89 89 90 91 89 90 90 91 91 91 89 88 88 88 87 86 86 85 85 85 84 86 85 86 86 87 88 89 89 90 86 76 65 61 59 56
60 60 60 61 64 66 70 76 79 81 82 82 84 87 88 90 95 93 91 91 94 95 91 90 88 87 87 88 90 90 89 89 90 91 91 91 91 90 89 88 88 87 85 85 86 86 86 85 85 85 86 86 88 88 88 89 90 88 82 74 72 70 67
58 59 60 62 64 67 72 74 76 78 81 81 84 85 86 87 92 95 94 96 97 96 90 88 88 88 88 90 90 90 90 89 86 87 90 90 90 90 89 89 90 89 86 86 87 87 86 87 86 86 87 87 88 88 88 89 89 90 86 80 78 75 74
59 59 60 61 64 67 70 73 75 78 79 81 83 85 84 86 86 93 92 93 94 91 89 87 86 87 88 88 88 88 87 88 87 88 90 90 89 89 83 87 92 89 88 91 91 90 90 90 90 89 91 90 88 88 87 88 88 90 79 84 71 78 80
59 59 60 63 65 67 69 71 72 76 79 80 82 82 84 83 85 86 92 93 92 91 88 86 86 87 88 88 88 89 88 87 89 89 89 92 89 74 66 51 46 58 82 90 69 64 68 73 87 90 90 89 88 89 88 87 90 76 68 61 61 62 65
59 59 60 62 64 66 67 69 71 73 77 79 80 81 82 83 83 84 85 86 89 90 88 87 85 86 88 87 88 87 88 88 89 88 88 90 86 80 76 73 67 49 42 50 56 52 46 50 56 63 70 84 91 75 58 68 69 62 60 54 57 57 57
61 61 61 63 64 65 67 66 68 70 75 79 79 78 78 81 83 81 83 84 85 87 88 87 85 85 86 87 87 85 85 89 87 88 88 88 84 81 79 79 75 69 51 44 47 46 44 43 44 45 51 59 70 80 75 59 54 52 53 53 55 55 54

ECMWFFLT1_sfc_temp_069.txt.gz
Temp
84 84 84 83 82 83 83 84 85 86 86 86 87 87 87 87 85 84 83 82 81 81 81 81 81 81 81 81 81 81 81 80 80 79 78 79 80 79 78 78 78 78 79 79 79 80 81 83 82 82 82 82 82 81 81 81 81 83 81 79 80 79 79
83 84 85 85 83 83 84 85 85 86 87 87 87 87 87 87 85 84 83 82 82 81 81 81 81 81 81 81 81 81 80 80 80 81 79 77 78 80 80 79 79 78 78 80 80 80 81 82 83 82 82 83 83 82 81 81 81 81 81 79 80 79 79
83 85 85 85 84 84 84 85 85 86 87 88 88 88 87 86 86 84 83 82 82 82 82 82 81 81 82 81 81 80 81 81 80 80 80 80 79 81 81 80 81 80 80 80 80 81 82 82 81 82 83 83 83 82 81 81 81 81 80 79 80 80 78
83 85 85 85 85 85 85 86 86 87 88 89 88 88 88 86 87 86 85 84 82 82 81 82 82 82 82 81 81 81 81 81 81 82 82 82 81 81 81 81 81 82 80 80 83 84 86 83 82 80 84 82 82 83 82 82 82 81 81 80 80 80 79
84 85 85 84 84 84 85 85 86 86 88 89 89 88 89 88 88 87 86 85 85 83 83 84 84 84 83 83 83 82 82 82 82 82 83 83 82 82 81 82 82 82 82 83 81 82 82 82 83 81 82 82 82 82 82 81 82 81 80 80 79 80 79
83 84 85 85 85 85 85 86 87 87 88 89 88 88 89 89 89 88 87 85 85 85 85 84 84 83 83 83 83 83 83 82 82 82 82 82 82 82 82 82 82 83 83 83 83 82 82 83 83 83 82 82 83 83 83 82 82 82 81 80 80 80 80
83 84 85 85 86 86 86 86 87 88 89 90 90 89 89 89 89 89 89 87 86 84 84 84 85 84 83 84 83 83 82 83 82 83 83 83 83 83 83 82 83 83 84 83 84 84 82 81 83 84 84 83 82 83 82 82 81 82 81 80 79 79 79
85 85 86 86 87 87 87 87 87 88 89 90 89 88 88 89 88 88 88 87 86 86 85 85 85 84 84 84 84 84 83 83 84 84 84 84 83 83 83 83 83 83 83 83 83 84 86 81 84 84 84 85 83 82 83 82 81 82 81 80 79 80 82
87 87 87 87 87 88 88 87 87 88 88 88 88 88 88 89 89 89 89 88 87 86 86 86 86 86 85 84 84 83 84 84 84 84 84 84 84 84 85 85 84 84 84 85 84 84 86 85 84 82 83 84 83 82 81 81 82 82 81 81 80 80 81
86 86 86 88 89 89 88 88 88 87 86 87 86 85 87 88 89 89 89 89 88 87 87 87 87 87 85 84 84 85 84 84 84 85 85 85 85 85 86 86 86 85 85 85 86 85 84 85 85 82 82 83 83 82 82 81 82 83 82 81 81 80 80
87 86 86 87 87 87 87 88 86 86 86 85 84 85 85 86 87 87 87 88 87 88 88 88 88 87 86 85 85 85 84 84 85 84 85 85 86 86 87 87 87 87 86 86 86 86 85 84 85 83 81 83 83 83 83 82 82 82 83 82 82 82 81
86 87 85 86 87 86 86 86 86 85 85 85 85 85 83 84 86 87 87 86 87 87 87 88 89 88 87 86 85 84 84 84 85 85 85 85 86 87 87 88 88 87 87 87 87 87 87 85 85 85 82 83 83 83 83 83 82 82 83 84 83 82 82
87 86 85 86 86 87 86 84 84 84 84 86 86 86 85 85 85 86 86 85 87 87 87 88 89 88 88 87 86 85 85 85 85 85 86 86 87 88 88 88 89 88 88 88 88 88 87 87 85 85 84 83 84 83 83 83 83 82 82 83 83 82 82
86 87 86 86 86 85 84 84 84 84 84 85 86 86 86 86 86 86 85 86 87 87 87 88 88 88 87 87 86 85 85 86 86 86 86 86 86 86 88 88 89 88 88 88 88 88 88 88 86 85 85 85 84 84 83 83 83 82 82 83 83 82 82
79 82 83 82 80 79 81 83 83 83 84 85 86 85 85 86 86 86 86 87 87 88 88 88 88 88 88 87 85 85 86 86 86 86 85 85 85 85 86 87 88 88 88 87 88 89 89 89 88 86 85 85 85 84 85 84 83 83 83 83 83 83 82
80 77 77 79 79 80 76 76 78 78 82 83 85 85 85 85 85 86 87 87 88 88 89 88 87 87 88 87 86 86 86 85 85 85 85 84 84 84 85 87 87 88 87 87 87 88 88 88 88 88 86 85 84 85 85 84 85 81 75 78 84 83 84
80 78 72 71 75 77 78 76 75 77 77 78 83 85 85 86 86 88 89 89 89 89 90 90 87 87 87 87 87 86 86 85 84 84 83 84 84 84 84 85 87 87 85 86 86 86 86 87 87 88 87 86 85 84 85 86 86 75 70 71 75 82 82
75 77 77 73 70 72 74 77 77 75 76 79 79 80 82 82 88 88 89 90 90 90 91 90 89 87 86 87 86 86 85 85 84 83 83 83 83 83 84 85 86 85 85 85 86 85 86 87 86 86 87 87 86 85 85 85 79 71 69 70 70 76 83
73 74 75 77 77 73 74 76 76 76 76 76 77 78 77 76 79 87 89 90 91 92 91 91 89 87 85 87 87 85 85 85 84 83 83 83 83 83 84 84 84 85 85 85 86 86 85 85 86 84 85 87 85 85 86 85 76 69 68 68 68 70 79
70 72 73 74 76 74 74 75 78 75 74 74 73 75 75 76 77 80 81 81 76 76 75 75 75 77 78 78 81 84 85 84 84 84 83 83 83 83 83 83 84 86 87 87 85 84 85 86 85 85 82 85 85 84 86 85 75 67 66 66 67 68 73
68 69 70 71 72 73 73 73 75 78 75 74 76 75 75 77 81 81 77 77 79 79 77 77 77 76 75 74 74 75 83 85 84 84 83 83 83 83 83 83 84 85 86 87 86 84 84 85 85 85 84 83 85 85 85 87 71 65 64 64 65 66 70
67 68 68 69 70 71 72 75 76 78 79 82 79 78 79 83 83 82 78 82 81 80 79 77 78 79 78 78 79 80 83 85 85 84 84 83 83 83 82 83 83 83 85 86 87 86 86 85 86 85 85 84 83 85 84 87 68 65 63 63 63 65 75
67 68 68 69 71 71 73 74 75 75 76 79 81 84 81 86 89 88 85 82 83 83 82 80 78 79 80 81 83 83 85 86 85 84 84 83 83 83 83 83 83 84 85 85 86 85 84 85 86 85 86 85 83 83 84 86 69 64 62 62 62 65 77
67 68 68 69 70 71 72 72 73 74 76 77 80 83 87 88 89 86 86 84 84 83 83 81 81 81 81 81 82 83 85 86 86 85 84 84 83 83 84 84 84 85 85 85 85 85 86 86 86 86 87 86 86 85 83 86 72 61 61 61 60 68 78
65 66 67 68 68 68 69 70 71 74 76 78 80 83 86 88 88 88 84 83 85 83 82 81 81 82 81 81 84 84 85 87 86 86 85 84 84 85 84 84 84 85 85 85 86 86 86 85 85 86 86 87 87 82 84 86 73 58 61 60 59 68 80
64 64 66 67 68 68 68 70 71 72 73 74 76 80 82 85 87 85 84 84 87 86 83 83 83 84 85 85 84 85 86 87 86 86 86 85 85 85 85 85 84 85 85 85 86 86 86 86 86 86 86 86 86 86 86 87 81 63 59 58 58 62 79
65 64 65 65 66 67 68 69 69 70 71 73 75 78 82 85 86 85 83 84 84 86 90 89 87 85 85 85 86 87 87 88 87 87 87 87 85 85 85 85 85 85 85 85 87 86 84 85 86 87 86 86 85 86 86 87 85 68 56 56 56 58 68
64 64 65 65 66 66 67 67 68 69 71 73 75 78 82 84 82 81 82 82 84 86 89 90 88 87 87 86 86 88 88 87 87 88 87 87 86 85 84 85 86 86 85 86 85 84 83 83 84 85 84 85 85 86 85 84 80 77 56 56 55 57 60
61 61 62 62 63 66 67 65 66 68 69 72 75 78 81 82 81 81 81 82 83 88 89 89 88 87 87 86 86 86 87 87 87 87 89 88 87 86 85 85 85 85 84 84 84 83 83 82 83 83 83 83 84 86 86 85 82 71 65 56 55 55 57
61 61 62 63 64 64 65 65 66 67 69 71 74 77 79 81 80 80 80 81 85 86 88 89 87 85 86 86 87 87 87 86 88 88 89 88 86 85 84 84 84 84 83 83 83 83 82 82 82 83 83 83 83 84 86 84 85 72 66 63 54 55 56
60 60 61 61 62 64 64 65 65 66 68 71 75 78 80 81 80 80 79 82 84 83 84 86 87 87 87 87 87 87 88 87 87 87 88 88 86 85 84 84 84 83 83 83 83 83 82 82 82 82 82 82 81 83 84 85 85 83 69 62 57 55 55
60 60 61 61 62 63 64 65 66 66 67 70 74 76 78 80 81 79 80 83 83 84 84 85 86 86 86 88 87 87 88 86 87 87 88 87 87 86 85 85 84 83 83 82 82 82 82 81 82 82 82 82 82 82 84 84 85 83 77 66 62 58 56
59 59 59 59 61 63 64 65 65 65 67 69 72 75 77 80 81 82 82 82 83 85 85 85 85 84 85 86 88 87 87 86 86 87 87 87 87 86 85 85 85 84 82 82 82 82 82 82 81 81 81 82 82 83 83 84 84 83 79 73 70 67 64
58 59 60 60 61 63 63 64 64 65 68 69 71 72 74 78 80 82 82 83 82 84 85 84 84 86 86 86 86 87 87 86 83 84 86 86 86 85 85 85 85 84 82 82 83 82 82 82 82 81 82 82 83 83 82 83 83 83 79 75 73 71 70
58 58 59 59 61 63 63 63 64 66 67 67 69 70 72 76 79 80 81 81 81 81 84 84 83 85 86 86 86 85 85 85 84 85 85 85 84 85 86 86 86 83 83 86 86 86 85 84 84 84 85 85 84 83 82 83 82 84 72 78 68 73 73
57 57 58 60 62 62 63 64 64 66 66 67 68 69 71 75 77 78 80 80 80 79 81 83 83 84 85 86 86 86 84 84 84 85 85 85 85 81 68 56 51 62 80 85 78 72 71 70 83 85 86 85 85 85 84 83 85 72 62 60 58 58 61
56 57 58 59 60 60 61 62 65 66 66 66 67 67 68 71 74 77 78 79 79 79 78 81 82 83 84 84 85 83 83 84 84 84 84 85 85 79 74 72 68 49 44 51 66 67 60 58 63 67 72 83 85 81 73 74 71 61 56 56 54 55 55
57 58 59 60 60 60 60 61 63 63 64 65 65 65 66 68 73 75 76 77 78 79 77 78 79 81 83 83 83 82 81 84 83 83 82 83 81 76 74 74 71 67 52 45 47 55 58 58 58 58 60 65 73 78 74 64 60 56 53 54 54 54 53

ECMWFFLT1_sfc_temp_072.txt.gz
Temp
79 79 80 80 80 81 82 82 82 83 84 83 83 83 84 84 82 81 80 79 79 78 78 78 78 79 78 78 79 78 78 77 77 79 79 78 78 77 76 76 77 78 78 78 79 79 79 80 80 80 79 80 79 79 79 78 78 79 78 79 79 78 78
78 79 80 81 80 81 82 82 82 83 84 84 84 83 84 83 82 81 81 80 79 79 79 79 79 79 79 79 79 78 77 77 77 79 79 78 77 76 77 76 77 77 78 79 79 79 79 79 80 79 79 80 80 79 79 79 78 78 78 77 78 77 78
78 79 80 80 80 81 81 82 82 83 84 85 85 84 84 83 83 82 81 80 80 79 80 79 79 79 79 79 78 78 78 78 77 78 78 79 78 78 77 76 77 78 79 79 79 79 80 79 79 79 80 80 81 79 79 79 79 79 78 77 78 78 76
78 80 81 81 81 81 82 82 83 84 85 86 85 85 84 83 84 83 82 82 80 80 79 80 80 80 80 79 79 78 78 78 78 79 80 81 80 79 77 75 76 78 77 78 80 80 81 79 79 78 81 79 80 80 79 79 79 79 78 77 77 78 77
79 80 81 81 81 81 81 82 83 83 85 86 86 85 85 85 85 84 83 83 83 81 81 81 82 81 81 81 80 80 79 79 79 79 80 80 80 80 78 78 77 77 78 79 78 79 78 78 78 78 79 79 79 79 79 79 79 78 78 78 77 77 77
79 79 81 82 82 82 82 83 84 84 85 86 86 85 85 86 85 84 84 83 83 83 83 82 81 81 80 81 81 81 80 80 79 79 79 79 79 79 80 79 79 79 78 78 79 79 79 78 78 78 79 79 80 80 80 79 79 79 78 77 77 78 77
80 80 81 82 83 83 82 83 84 85 86 87 87 87 86 86 85 85 85 83 83 82 82 82 82 82 81 81 81 81 80 80 79 79 80 80 79 79 80 80 80 80 81 79 79 80 80 79 79 78 78 80 79 80 79 78 79 79 78 77 77 77 77
81 81 82 83 84 84 84 84 84 86 86 87 87 86 85 85 85 84 84 84 84 84 83 83 82 82 81 81 81 81 81 81 81 80 80 80 80 79 79 80 80 81 80 80 80 80 81 80 81 80 78 79 79 79 80 79 78 79 79 78 77 77 78
82 83 83 84 85 85 85 84 85 85 85 85 86 86 86 86 86 85 84 84 84 83 83 84 84 83 82 81 81 81 81 81 81 80 80 80 81 81 81 80 81 81 80 81 81 80 81 81 81 80 79 79 79 79 79 79 79 79 79 78 78 77 78
82 82 83 84 86 86 85 85 85 84 84 84 84 85 85 86 86 86 85 85 84 83 84 84 84 84 83 82 82 82 81 81 81 81 81 81 81 81 82 82 81 81 81 81 82 81 81 81 81 80 79 79 79 79 79 79 79 79 79 79 78 78 77
82 81 82 83 83 84 84 84 83 83 84 83 84 85 85 86 86 86 85 85 85 84 85 85 85 84 83 83 82 82 81 81 81 81 81 81 82 82 83 83 83 82 81 82 82 82 81 81 80 79 79 80 80 79 79 79 79 79 79 79 79 79 79
80 80 80 82 83 83 82 83 83 82 83 83 84 85 84 85 86 87 86 86 86 85 84 85 85 85 84 83 82 81 82 82 82 81 81 82 82 83 83 84 83 83 83 82 82 82 82 82 81 80 79 80 81 81 80 80 79 79 80 80 80 79 79
81 79 78 80 82 83 82 80 81 82 82 84 85 86 86 86 86 87 86 86 87 86 85 85 85 84 84 84 83 82 82 82 82 82 82 82 83 83 83 84 84 84 84 83 83 83 82 82 82 81 80 80 81 81 81 80 80 79 79 79 79 79 79
73 73 73 73 72 72 74 75 77 79 82 84 85 86 86 87 87 87 87 86 87 87 86 86 85 84 84 83 82 82 82 83 83 83 83 83 82 82 83 84 84 84 84 84 83 83 83 83 82 82 82 81 81 81 82 81 81 80 79 79 80 79 79
69 69 70 71 71 72 72 72 72 73 76 79 83 84 85 86 86 87 87 87 87 87 86 86 85 84 84 83 82 82 82 83 83 83 83 82 81 81 82 83 83 83 84 83 83 85 85 85 84 82 81 82 81 81 82 82 81 81 81 79 79 80 79
67 67 68 68 69 71 72 72 72 72 72 72 75 79 83 82 83 85 86 86 87 87 87 86 85 84 84 83 83 83 83 82 82 82 82 82 81 81 81 83 83 84 83 83 84 83 84 84 84 84 82 82 81 81 81 81 82 79 74 75 81 80 81
65 65 65 66 68 69 70 71 71 72 71 71 71 72 78 81 81 83 86 86 87 86 87 87 85 85 84 83 84 83 83 82 82 82 81 81 81 81 81 81 83 83 82 82 83 82 82 83 83 84 84 83 82 81 82 83 83 74 70 70 73 80 80
64 64 64 65 65 66 67 69 70 70 70 71 72 72 72 73 80 83 83 84 86 87 87 86 86 85 84 84 84 83 82 82 82 81 81 81 81 81 81 82 82 82 82 82 82 82 83 83 83 83 84 84 83 83 82 82 76 70 68 69 69 73 81
63 64 63 64 65 65 66 67 68 69 70 71 71 71 71 72 74 76 80 83 86 87 87 86 86 84 83 84 83 82 81 82 82 81 81 81 81 81 81 81 81 81 82 82 83 83 81 81 82 82 83 83 82 82 83 83 75 69 67 68 68 68 76
63 64 64 63 64 64 65 66 67 68 68 69 71 73 72 72 71 74 75 79 82 84 84 84 84 84 83 81 79 79 80 81 82 81 81 81 81 81 81 80 80 82 83 83 83 82 81 82 82 82 81 82 82 82 83 82 75 68 65 65 66 67 71
62 63 64 64 63 64 63 64 65 67 67 68 70 73 74 72 73 73 73 74 75 78 81 81 81 80 80 79 78 78 79 79 80 81 81 81 81 81 80 80 81 81 82 83 83 82 81 82 82 82 82 83 83 82 83 84 73 66 64 63 63 65 68
62 63 63 64 64 65 65 66 65 65 66 69 72 73 77 75 75 73 74 76 76 76 78 81 80 80 80 80 81 80 80 79 79 80 81 81 81 80 80 80 80 80 82 82 83 84 83 82 83 82 82 82 83 83 82 85 70 65 63 63 62 64 72
63 63 64 65 66 66 66 67 67 68 70 71 72 73 74 76 76 75 76 77 77 77 78 78 79 80 80 81 82 82 82 81 80 80 81 81 81 80 81 80 80 81 82 82 83 83 82 83 83 83 83 82 82 82 82 84 72 63 62 62 62 64 74
63 64 65 65 66 66 65 67 68 69 69 70 71 72 73 73 73 74 74 75 77 76 77 77 78 80 80 81 82 82 82 82 81 81 81 81 81 81 81 82 82 82 82 82 82 82 83 83 83 83 84 83 82 83 83 84 75 61 61 60 61 66 76
61 63 64 64 64 64 65 65 66 68 69 69 69 70 72 72 72 73 73 75 77 79 78 77 79 81 81 81 82 82 82 82 81 82 82 81 82 82 82 82 82 82 82 83 83 83 84 83 83 83 84 84 84 80 82 84 77 60 61 60 60 65 77
60 60 62 64 65 65 64 65 66 66 66 67 68 70 71 73 74 74 74 77 81 81 81 82 82 82 83 84 83 83 82 82 81 82 83 82 82 83 82 83 83 82 82 83 84 84 84 83 83 83 83 84 84 84 83 83 83 70 59 59 58 60 76
61 61 61 63 64 64 64 65 65 65 66 67 68 70 72 73 73 73 74 76 76 78 82 83 81 83 82 83 84 83 82 82 82 83 83 84 83 83 83 83 83 83 82 83 84 84 82 83 84 84 83 84 83 84 83 84 83 75 58 58 57 58 65
60 61 62 63 63 63 63 63 64 65 66 68 69 70 71 71 71 72 73 75 76 79 82 83 82 82 82 81 82 82 82 82 82 84 84 85 84 83 82 83 84 84 83 84 83 81 81 82 81 82 82 83 83 83 83 82 78 82 60 58 56 57 57
58 58 58 59 60 62 63 62 62 63 65 68 69 70 70 72 70 72 73 73 76 79 81 82 81 80 81 81 81 81 81 82 82 83 86 85 85 84 83 83 83 83 82 81 81 80 81 80 80 81 81 81 82 83 84 84 81 72 70 58 56 56 55
58 59 59 60 61 61 62 62 62 64 65 67 68 69 70 70 70 70 71 72 76 79 80 80 80 79 79 80 82 82 82 82 83 84 86 85 85 84 83 82 82 82 82 81 81 81 80 80 80 80 80 80 81 82 83 83 83 72 66 65 55 56 55
56 57 59 59 59 61 62 62 62 63 64 66 67 69 69 70 69 69 69 72 75 77 78 79 79 79 79 80 81 82 83 83 83 84 85 86 85 83 83 82 82 81 81 81 81 81 80 80 80 80 80 80 80 81 82 82 82 82 70 63 58 56 55
57 59 60 60 60 60 61 61 63 63 63 65 68 68 68 69 69 67 68 72 74 76 78 79 78 77 78 79 80 81 84 83 83 84 85 85 86 85 84 84 83 82 81 81 81 81 80 80 80 80 80 80 81 81 82 82 82 82 78 66 63 58 56
56 57 58 58 59 60 60 60 60 61 63 64 67 67 68 68 68 69 70 71 74 76 77 77 76 76 77 78 79 81 82 83 84 84 85 85 86 86 85 84 83 82 81 81 81 80 80 80 80 79 80 80 81 82 81 82 82 82 81 74 71 68 65
55 56 58 58 59 60 60 60 60 61 63 63 65 66 66 66 67 68 69 70 72 75 75 75 75 75 76 77 79 80 82 83 81 82 84 84 85 84 84 84 84 83 82 82 81 81 80 81 80 80 80 81 82 81 81 81 82 82 83 79 75 74 71
54 54 55 56 58 59 59 59 60 61 62 62 63 64 64 65 66 67 67 69 72 73 71 71 72 74 75 76 78 79 80 82 82 83 83 84 84 84 85 84 83 82 84 86 85 85 84 82 82 82 84 83 82 81 80 81 81 82 73 82 69 74 75
53 54 55 57 59 59 60 60 60 60 61 62 62 63 63 64 65 66 68 70 70 70 68 69 70 73 74 76 77 80 81 81 83 83 83 84 83 82 74 66 66 77 85 83 77 73 71 70 82 84 84 83 83 83 82 82 83 71 63 61 58 58 62
53 53 54 56 57 58 59 59 60 60 61 61 62 62 63 63 64 65 67 68 68 67 67 68 69 72 74 75 77 78 80 81 82 83 83 84 83 81 76 74 65 52 55 66 71 66 59 58 63 66 71 81 84 80 70 70 68 66 59 56 54 54 55
53 54 55 56 57 57 58 59 60 60 60 61 61 61 62 62 64 65 66 66 66 66 66 67 68 70 72 73 75 77 78 81 82 81 81 82 82 78 76 75 74 68 55 47 57 61 56 55 56 57 59 64 71 78 81 67 58 58 55 54 54 53 53

ECMWFFLT1_sfc_temp_075.txt.gz
Temp
78 78 78 79 79 80 81 82 82 81 81 81 81 81 81 81 79 79 78 77 77 76 77 77 77 77 77 77 77 77 77 76 76 76 76 75 75 75 74 75 76 75 76 76 76 76 77 77 77 77 77 77 78 77 77 77 76 77 76 76 76 76 76
77 78 79 79 79 80 81 82 82 82 82 82 82 81 82 81 79 79 78 78 78 77 77 77 77 77 77 77 78 77 76 76 76 77 77 75 75 74 75 75 76 76 76 77 77 77 77 77 77 77 77 77 78 78 78 77 76 76 76 75 75 75 76
77 78 79 79 79 80 80 82 82 82 82 82 82 82 82 80 80 79 78 78 77 78 78 77 77 77 78 77 77 77 77 76 76 76 76 77 76 76 76 75 76 76 77 77 77 77 78 77 76 77 77 77 78 77 77 77 76 76 75 75 75 76 75
77 78 79 80 80 80 81 82 82 83 83 83 83 83 82 81 81 80 80 79 78 78 77 78 78 78 78 77 77 77 76 76 77 77 78 78 78 77 75 74 75 76 76 76 78 78 79 78 77 76 79 77 77 77 77 77 77 76 75 75 74 75 75
77 78 79 79 79 80 81 82 82 82 83 84 84 83 83 83 83 81 81 80 80 79 79 79 79 79 79 78 78 78 77 77 76 77 78 79 78 77 76 76 75 76 77 78 77 77 77 77 77 76 76 76 77 76 77 76 77 76 76 75 75 75 74
77 77 78 79 79 80 81 82 83 83 83 83 83 83 83 84 83 82 82 81 80 81 80 79 79 79 78 79 79 79 78 77 77 77 77 78 77 77 77 76 76 76 77 77 78 77 78 77 77 77 76 76 77 77 77 77 77 76 76 75 75 75 75
77 77 78 79 80 80 81 82 83 84 84 85 84 84 83 83 83 83 83 81 81 80 79 79 80 79 79 79 79 78 77 78 77 77 77 78 78 78 78 77 77 77 78 77 77 77 77 77 77 77 77 77 77 77 77 76 76 76 76 75 75 75 75
78 78 78 79 80 81 81 82 83 84 84 85 84 83 82 83 83 82 82 82 82 82 81 80 80 79 79 79 79 79 78 78 78 78 77 77 77 78 78 77 77 77 76 76 77 77 78 77 78 77 77 77 77 76 77 77 76 77 76 75 75 75 76
79 79 79 80 81 82 82 82 83 83 83 83 84 83 83 83 83 83 83 83 82 82 81 82 81 81 80 79 79 78 79 79 78 78 77 77 78 78 79 79 78 77 76 77 78 77 78 78 78 77 76 76 76 76 76 76 77 77 76 76 75 75 76
74 75 77 80 81 82 82 82 82 82 81 82 82 82 83 83 83 83 83 83 83 82 82 82 82 82 81 80 79 80 79 78 79 79 78 78 78 78 79 80 80 78 77 78 78 77 77 78 78 77 75 76 76 75 76 76 77 77 77 77 76 76 76
74 74 75 77 77 79 80 81 81 80 81 81 82 83 83 83 83 83 83 83 83 83 83 83 83 82 81 81 80 80 79 79 79 79 78 79 79 79 80 80 80 79 79 78 78 78 77 77 77 76 75 76 75 75 75 76 76 76 77 77 77 77 76
68 69 69 70 72 74 76 79 80 79 80 81 82 83 83 83 84 84 84 83 84 83 83 84 84 83 82 81 80 79 79 79 79 79 79 79 80 80 80 80 80 80 80 79 79 78 79 78 77 78 76 76 76 76 76 76 76 76 77 77 77 76 76
66 66 67 69 69 70 70 70 75 77 77 80 82 83 84 83 84 84 83 83 84 84 84 84 83 83 82 81 81 80 79 80 80 80 80 80 80 81 81 81 81 81 80 80 80 79 79 79 78 78 78 77 77 77 76 76 76 76 76 76 76 76 76
65 65 65 66 67 67 68 69 68 72 77 78 80 82 82 84 84 84 84 83 84 84 84 84 83 82 82 81 80 80 80 80 81 80 80 80 79 80 80 81 81 81 80 80 79 80 80 80 79 78 78 78 78 78 78 77 76 76 76 76 76 76 76
62 62 63 64 64 65 66 67 68 68 70 74 80 80 81 83 83 83 84 84 84 84 84 84 83 82 82 81 80 80 80 80 81 81 80 80 79 79 79 80 80 80 80 80 80 81 81 81 81 79 78 78 78 78 78 78 78 77 77 76 76 76 76
62 62 62 62 63 64 65 66 66 67 69 69 70 72 79 81 81 83 83 84 84 84 85 84 83 82 82 81 80 81 81 80 80 80 80 79 78 78 79 80 80 81 80 80 80 80 80 80 80 80 79 78 78 78 78 78 79 76 71 73 78 76 78
62 62 62 62 63 63 64 65 65 66 66 67 69 70 70 73 78 82 84 85 85 84 85 84 82 82 82 81 82 81 81 80 79 79 78 79 79 78 78 79 80 80 79 79 79 79 79 79 79 80 80 79 79 78 78 80 80 72 68 68 70 77 77
60 61 62 62 62 62 63 64 64 65 65 66 68 70 71 70 72 78 83 84 85 85 85 85 84 82 81 82 81 81 80 80 79 79 79 79 78 78 78 79 79 79 79 79 79 78 80 79 79 79 80 81 80 79 79 79 74 69 67 67 67 70 78
60 60 61 61 62 62 62 63 64 64 64 65 67 68 69 70 71 71 73 75 77 80 83 84 84 82 81 82 82 81 80 80 79 79 79 79 79 79 79 78 78 78 79 79 80 80 78 78 79 79 79 80 79 79 80 80 73 68 67 66 66 66 72
60 60 61 60 62 61 62 63 64 64 65 66 67 70 69 71 71 71 72 72 72 73 72 72 73 79 82 81 81 80 80 80 80 79 79 79 79 79 78 78 78 79 80 80 80 79 79 79 79 79 78 79 79 79 80 80 73 68 66 65 65 65 68
58 60 60 60 60 61 61 61 62 62 65 66 68 69 70 70 72 72 72 72 72 72 73 73 73 72 74 78 80 80 80 80 80 79 79 79 79 79 78 78 78 79 80 80 80 79 78 79 79 79 79 79 80 80 80 82 71 66 64 63 63 64 66
58 59 59 61 61 61 61 62 61 62 63 66 67 68 70 70 72 72 73 73 72 72 73 73 73 74 74 76 80 80 80 80 80 80 80 79 79 79 78 78 78 78 79 80 80 81 80 80 80 79 79 79 80 79 79 82 70 65 64 62 62 63 69
59 60 60 61 63 63 63 64 64 64 66 66 66 67 68 69 70 70 73 73 74 74 75 75 74 75 77 79 81 81 80 81 80 80 80 79 79 79 79 78 78 79 80 79 80 80 80 80 80 80 80 80 79 79 80 81 73 65 62 61 61 63 71
60 61 62 62 63 64 64 64 65 65 66 66 67 68 68 69 69 70 71 72 74 73 74 74 75 76 77 79 81 81 80 80 80 80 80 80 79 79 80 80 80 80 80 79 79 79 80 81 80 81 81 80 80 80 80 81 75 64 61 60 60 64 73
59 60 61 62 62 62 63 63 63 64 65 65 65 67 69 69 69 69 70 71 74 75 75 74 75 75 76 77 79 80 80 81 80 80 80 79 80 80 80 80 80 80 80 80 80 80 81 81 80 81 81 81 81 78 79 81 77 65 61 60 59 64 73
58 58 60 62 63 63 63 64 64 63 63 63 64 67 68 70 70 69 69 70 73 74 74 76 76 77 78 79 78 79 79 80 80 80 80 80 80 80 80 81 80 80 80 80 81 81 81 81 81 80 81 81 81 82 80 81 81 75 61 59 58 59 73
59 60 59 61 62 63 62 63 63 63 63 65 65 67 68 69 68 68 69 70 70 71 74 76 77 78 77 77 79 80 79 80 80 80 81 81 80 81 81 81 80 81 80 80 81 81 80 80 81 81 81 81 81 81 81 82 81 79 62 58 57 57 63
57 59 61 62 62 62 62 62 62 63 64 66 67 68 68 68 67 67 67 68 68 71 74 74 75 77 77 73 72 76 79 79 79 81 81 81 81 80 80 81 82 82 81 81 80 79 79 79 79 80 80 81 81 81 81 80 75 83 66 59 56 56 56
55 56 57 58 59 62 62 61 61 62 63 65 66 67 67 68 66 66 67 66 68 70 71 72 74 75 76 76 76 76 75 77 79 80 82 82 82 81 80 81 81 81 81 79 79 78 78 78 79 79 79 79 80 81 81 81 80 70 75 60 56 55 55
55 56 57 59 60 60 62 60 61 62 63 64 65 66 67 66 65 66 66 66 69 69 70 71 73 74 74 76 76 76 76 77 79 81 82 82 81 81 80 80 80 80 80 80 79 79 78 78 78 78 78 78 79 80 81 81 81 72 67 69 56 55 54
54 55 56 57 57 59 60 60 60 61 62 63 64 66 65 65 64 64 64 66 68 68 68 70 72 73 74 75 76 76 77 78 79 79 80 81 81 80 80 80 80 79 80 79 79 79 78 78 78 78 78 78 78 79 80 80 81 82 72 64 61 56 55
54 54 56 58 58 59 59 59 60 60 61 62 65 65 64 64 64 62 64 66 67 68 68 69 71 72 73 74 75 76 77 77 78 79 80 80 81 81 81 81 80 80 79 79 79 79 78 78 78 78 78 78 79 79 80 80 81 81 81 69 65 60 56
54 54 54 55 57 59 59 59 58 59 60 61 63 64 64 63 64 64 65 65 66 67 68 70 70 71 71 72 74 74 75 75 76 78 80 80 81 82 82 82 81 80 79 79 79 79 79 78 78 77 78 78 79 80 79 80 80 80 81 77 72 70 66
53 53 54 54 55 57 58 58 57 58 59 60 62 63 63 63 63 64 64 65 66 67 67 67 68 68 69 70 71 73 74 75 75 76 77 79 80 80 81 81 82 81 80 79 79 79 78 79 78 78 78 79 79 79 79 79 80 80 80 80 76 75 72
53 53 54 53 55 57 56 57 58 59 59 60 61 62 62 62 63 63 63 64 65 65 64 64 66 67 67 69 71 72 74 75 75 76 77 78 79 80 81 82 82 81 82 84 83 83 82 80 80 81 82 81 80 79 78 79 79 81 71 81 69 74 76
53 53 54 54 55 55 56 58 58 58 59 60 61 61 61 61 62 62 63 64 65 64 62 63 64 65 66 68 70 73 74 74 75 76 76 78 78 79 78 75 70 76 83 82 74 71 69 68 81 82 83 81 82 82 81 80 82 72 64 62 60 58 62
52 53 53 55 54 54 55 56 58 59 59 60 60 60 61 61 61 62 63 64 64 64 63 63 63 64 66 68 70 71 73 73 73 74 75 77 78 78 78 77 74 59 60 67 71 66 60 58 62 65 70 80 82 79 70 70 68 64 58 57 55 54 55
53 53 54 55 54 55 55 56 57 58 58 58 59 59 60 60 61 61 63 64 64 64 63 63 63 63 65 67 69 70 71 72 72 73 74 76 77 77 76 76 76 74 60 55 58 58 56 56 56 57 57 62 69 76 80 66 59 58 54 55 54 53 53

ECMWFFLT1_sfc_temp_078.txt.gz
Temp
77 77 77 78 78 79 79 80 80 80 80 79 79 80 80 80 78 78 77 76 76 75 76 76 76 76 76 76 76 76 76 76 75 74 74 74 75 75 75 75 76 76 76 76 77 77 77 78 78 78 78 78 78 78 78 78 78 78 78 78 78 78 77
76 77 78 78 78 79 79 80 80 81 80 80 80 79 80 80 78 78 77 77 76 76 76 76 76 76 76 76 77 76 76 76 76 76 75 74 75 74 76 75 76 76 76 77 77 77 77 78 78 78 77 78 78 78 78 78 78 78 78 77 77 77 77
76 77 78 78 78 79 79 80 81 81 81 81 81 80 80 79 79 78 78 77 76 77 77 77 77 77 77 77 76 76 76 76 76 76 75 76 75 76 75 75 76 76 77 77 77 77 78 77 77 78 78 78 79 78 78 78 78 78 78 77 77 78 77
76 77 78 79 79 79 80 81 81 82 82 82 82 81 80 79 80 79 79 79 77 77 76 77 77 77 77 76 76 76 76 76 76 77 77 77 76 76 75 75 75 76 76 77 78 78 79 78 77 77 79 78 78 78 78 78 79 78 78 77 77 77 77
75 77 78 78 78 79 79 80 81 81 82 83 83 82 82 81 81 81 80 80 80 78 79 78 79 79 78 78 78 78 77 77 76 77 78 77 76 75 75 76 75 76 77 78 77 77 77 77 77 77 77 77 78 78 78 78 78 78 77 77 77 77 77
74 75 77 78 79 79 80 81 82 83 83 82 82 82 82 82 82 81 81 80 80 80 80 79 79 78 78 78 79 78 78 77 77 76 77 77 76 75 76 76 76 76 77 77 78 78 78 77 77 77 77 78 78 78 78 78 79 79 78 77 77 78 78
71 76 77 78 79 79 80 81 82 83 83 83 84 83 82 82 82 82 82 81 81 79 79 79 79 79 78 78 78 78 77 77 77 77 77 78 77 76 76 76 76 77 78 77 77 78 77 77 77 77 77 78 78 78 78 77 78 78 78 77 76 76 77
69 75 77 78 79 80 81 81 82 83 84 83 83 82 82 82 82 81 81 81 81 81 80 80 79 79 78 78 78 78 78 78 78 77 77 77 77 77 77 76 76 76 76 77 77 77 78 78 78 78 77 78 78 78 78 78 77 78 78 77 77 77 77
65 69 75 78 78 80 80 80 81 82 82 82 82 82 82 82 82 82 81 82 81 81 81 81 81 80 79 78 78 78 79 78 78 77 77 78 78 78 79 78 78 77 76 77 78 77 78 78 78 77 77 77 77 77 77 77 78 78 78 77 77 77 77
64 65 66 73 77 79 78 80 80 79 80 81 80 80 82 82 82 82 82 82 82 81 82 82 82 81 80 79 79 79 79 78 78 78 78 78 78 79 79 80 79 78 77 78 79 78 77 78 78 77 76 77 77 76 77 77 77 77 78 78 78 77 77
64 63 65 66 67 72 76 78 78 77 79 78 79 81 80 82 82 83 82 82 82 82 83 82 82 82 81 80 79 79 79 79 79 78 78 78 79 79 80 80 80 79 78 78 78 79 78 77 77 77 76 77 77 77 77 77 77 77 78 78 78 78 78
63 63 63 63 64 66 65 68 73 76 76 77 80 81 80 80 82 83 83 82 83 83 82 83 83 82 81 81 80 79 79 79 79 79 78 79 79 80 80 81 80 80 79 79 78 78 79 78 77 78 76 77 77 77 77 77 77 77 78 79 78 78 78
64 63 63 63 63 64 65 65 65 67 71 78 81 81 82 81 82 83 81 82 83 83 83 82 82 81 81 81 80 79 79 79 79 79 79 79 80 80 80 80 81 81 80 80 79 79 79 79 77 77 78 77 77 77 77 77 77 77 77 78 77 77 78
65 64 63 64 63 63 63 64 64 66 67 68 75 80 81 82 83 83 82 82 83 84 83 83 82 81 80 80 79 78 79 80 80 80 79 80 78 79 80 81 81 80 80 80 79 80 80 80 78 78 78 78 77 77 77 77 77 76 77 77 77 78 78
62 62 62 63 62 63 63 63 63 64 65 67 69 69 74 80 82 82 82 83 83 84 84 83 82 81 81 80 79 78 79 79 80 80 79 79 77 77 78 79 79 80 80 79 80 81 81 81 81 79 77 78 77 77 78 77 77 77 77 77 77 77 78
60 61 61 61 62 63 63 63 64 64 65 65 67 68 70 70 73 81 82 82 83 83 84 83 82 80 81 80 79 79 80 78 78 79 78 78 77 76 77 79 79 80 80 79 80 79 79 79 79 80 79 78 77 78 78 78 78 75 70 72 78 77 78
59 59 60 61 62 62 63 63 64 64 64 64 66 67 68 69 71 72 80 84 84 83 84 84 81 81 81 80 81 80 79 78 78 78 77 77 77 77 77 77 79 78 77 78 78 78 77 79 79 80 81 80 79 78 78 79 80 71 67 67 69 77 77
58 58 58 59 60 61 62 62 62 63 63 65 66 67 68 68 70 72 72 77 84 84 85 84 83 82 80 81 80 79 79 79 78 77 77 77 77 77 77 78 78 77 77 78 78 77 79 79 78 78 80 80 80 80 80 79 73 68 66 66 66 70 78
57 58 58 59 60 60 61 61 62 63 63 64 66 66 67 68 69 68 71 72 74 83 85 84 83 81 80 81 81 79 79 78 78 78 78 77 77 77 77 76 77 77 77 78 79 79 76 76 78 78 78 79 78 79 80 81 72 67 66 66 65 65 72
58 58 59 59 60 60 61 61 61 62 63 64 66 67 68 69 68 69 70 71 73 73 79 79 79 78 78 78 78 78 77 77 78 78 78 78 77 77 77 77 76 78 80 80 78 77 77 79 77 77 76 77 77 77 80 80 72 66 64 64 64 65 67
57 58 59 59 59 60 60 61 61 61 63 64 65 66 68 69 69 69 70 71 72 73 73 76 78 77 77 77 78 78 78 78 78 78 78 78 78 77 77 77 77 78 79 80 79 78 77 78 78 77 77 78 79 78 80 82 71 65 63 62 62 63 66
58 59 59 60 60 60 60 61 61 62 62 65 65 65 67 67 69 69 70 71 72 72 73 72 73 76 78 77 78 78 78 78 77 78 78 78 78 77 77 77 77 77 78 78 80 80 80 78 79 79 78 78 79 79 79 82 69 65 63 62 61 63 70
59 59 60 61 62 62 63 63 62 63 64 64 65 65 65 66 67 68 69 70 70 72 72 72 72 72 73 75 78 78 78 78 78 78 78 78 78 78 78 77 77 78 78 78 79 79 79 79 80 79 80 79 78 78 78 80 73 64 62 61 61 63 72
59 60 62 62 63 64 63 63 64 64 65 64 65 66 66 67 67 68 68 70 70 71 72 72 72 72 72 73 75 77 78 79 79 79 79 78 78 78 79 79 79 79 79 78 78 79 80 80 80 80 80 80 80 80 79 80 74 64 61 60 60 64 73
58 59 61 62 62 62 62 63 63 64 64 64 63 65 66 67 67 67 68 69 70 69 70 70 71 71 72 73 75 76 77 79 79 80 80 79 79 80 79 79 79 80 80 80 80 80 80 80 80 81 81 82 82 77 78 81 76 64 61 60 59 64 73
57 58 59 61 63 63 63 63 63 62 62 62 62 65 66 68 68 67 67 68 70 70 69 70 70 71 72 72 73 75 77 79 79 79 80 80 80 80 80 80 80 80 80 80 81 81 81 81 81 80 81 82 82 82 81 81 81 76 61 59 58 59 73
58 58 58 60 61 63 63 63 63 62 63 62 63 65 66 67 67 66 66 67 67 68 68 69 70 71 71 72 72 72 73 76 78 79 79 79 78 79 79 80 80 81 80 80 80 80 80 80 81 81 81 82 81 81 82 82 81 78 63 58 57 57 63
58 58 60 60 61 62 62 62 62 62 64 64 65 65 65 66 64 65 65 65 65 67 68 68 69 70 71 71 72 72 72 72 72 75 78 79 76 75 75 77 79 79 80 81 80 79 78 79 79 80 80 81 81 81 81 80 74 83 67 60 57 56 56
55 55 56 57 58 61 62 60 61 61 63 64 65 65 65 65 63 63 64 64 64 66 67 68 68 69 70 72 72 73 73 72 72 72 74 77 79 78 77 78 80 80 80 79 79 78 78 78 78 79 79 79 80 81 81 81 79 68 76 62 57 56 54
55 56 56 58 59 59 61 60 60 61 63 64 64 64 65 64 62 62 62 62 65 66 66 66 67 68 69 71 73 73 73 73 72 73 74 74 74 74 76 78 79 79 79 79 78 78 78 78 78 78 78 79 79 81 81 81 81 72 65 70 59 56 54
54 55 56 56 56 58 59 59 59 60 61 63 64 64 64 64 62 61 61 63 65 65 64 65 66 68 70 71 72 73 74 74 75 75 75 74 73 72 72 73 76 78 79 79 79 78 78 78 78 77 78 78 78 79 80 81 81 83 71 63 63 57 55
54 55 56 56 56 58 59 59 60 60 60 62 64 64 64 64 63 61 62 63 64 65 65 65 65 66 68 69 71 72 73 73 74 74 74 74 74 73 72 72 72 73 77 78 78 78 77 77 78 78 77 78 79 79 80 80 81 81 81 69 65 62 57
53 54 54 54 56 57 57 57 57 58 59 60 62 63 64 64 64 63 64 64 65 65 65 64 64 64 65 66 68 69 70 71 72 73 75 76 76 74 73 72 72 73 72 74 78 78 78 78 78 77 78 78 79 79 80 80 80 81 82 80 76 73 68
52 53 54 55 55 56 56 56 56 57 59 59 61 62 63 63 63 63 64 64 65 65 64 64 64 63 64 65 67 68 69 70 71 72 73 75 75 76 76 75 74 72 73 75 78 78 78 79 78 78 79 79 80 79 79 79 80 81 81 82 79 76 75
52 52 53 53 54 56 55 56 56 57 58 59 61 62 62 62 63 63 63 63 64 64 63 63 64 64 64 65 65 67 69 70 72 73 74 75 75 76 76 77 79 78 79 83 82 82 82 80 81 81 82 82 80 79 78 79 79 81 71 80 69 76 79
51 52 52 54 55 55 55 56 57 57 58 59 60 61 61 62 62 63 63 63 64 63 62 63 63 63 64 65 66 67 69 70 72 73 73 74 74 74 75 72 65 71 81 81 73 69 67 67 80 82 82 81 81 81 80 80 82 70 62 59 59 58 62
50 51 52 53 53 53 54 55 57 58 58 59 60 60 61 61 61 61 62 63 63 63 62 61 62 63 64 65 66 67 68 69 70 72 72 73 73 74 73 75 74 56 56 65 70 65 59 56 59 62 66 78 82 79 68 68 65 61 58 54 55 55 54
51 51 52 53 53 53 54 55 56 57 58 59 60 60 60 60 61 61 61 62 62 62 61 61 61 61 63 65 66 66 67 68 69 71 72 72 72 72 72 73 72 75 61 54 56 58 55 54 54 55 55 58 66 75 80 66 58 56 56 52 54 53 52

ECMWFFLT1_sfc_temp_081.txt.gz
Temp
85 84 84 85 84 85 85 85 85 85 85 85 85 85 86 86 85 84 83 82 81 81 81 81 81 81 81 82 82 83 83 83 83 83 83 83 84 84 84 85 85 84 86 86 86 85 86 86 86 86 86 85 86 85 85 85 85 86 86 85 85 85 86
84 84 85 85 85 85 85 85 86 86 85 85 85 84 86 86 85 84 83 82 82 81 81 81 81 81 82 82 83 82 82 83 83 83 83 83 83 84 85 84 84 84 84 86 86 86 86 86 86 85 85 86 86 85 86 86 85 86 87 85 86 85 86
81 85 85 85 85 86 85 87 86 86 86 86 86 86 85 84 85 84 83 83 82 82 82 82 81 82 82 82 82 82 83 83 83 83 83 84 84 86 85 85 85 86 86 86 85 86 87 86 85 85 86 86 87 86 85 86 85 86 86 85 86 87 85
74 77 83 86 86 86 86 86 86 87 88 88 87 87 86 84 86 85 85 84 83 82 81 83 83 83 83 82 82 82 82 83 83 85 85 86 85 86 84 84 84 86 85 86 87 87 88 86 86 85 84 85 86 87 87 86 87 86 86 85 86 86 85
73 76 78 83 86 86 86 86 87 87 88 89 88 87 87 87 87 87 86 87 87 84 85 85 86 85 84 84 84 84 83 84 84 85 85 86 85 85 84 86 86 86 86 87 86 85 84 85 86 85 85 85 86 86 86 86 87 86 85 85 85 86 87
72 73 75 79 85 86 87 87 88 89 89 89 88 87 88 89 89 88 88 87 87 88 86 85 85 84 83 85 85 85 84 84 83 83 84 85 84 85 85 85 86 86 87 86 87 87 86 86 86 86 86 87 87 88 88 87 87 87 86 85 85 87 88
70 72 74 79 83 87 87 87 89 89 90 90 90 89 88 89 89 89 89 88 88 86 87 87 87 86 84 85 84 84 83 84 84 84 85 86 85 85 85 85 85 87 87 87 86 87 87 86 85 86 86 87 87 88 86 85 86 87 86 85 84 85 85
71 71 73 78 85 87 88 88 88 90 90 89 90 89 88 89 88 88 88 89 89 89 88 88 87 85 84 85 85 85 85 85 86 85 85 86 86 85 85 86 85 85 85 86 86 86 87 86 87 87 86 87 86 86 87 85 85 87 87 85 84 85 88
72 72 72 75 77 84 89 87 88 89 88 87 88 88 89 89 89 89 89 89 89 89 88 90 89 88 85 85 84 84 86 86 86 85 85 86 86 87 88 87 87 86 85 87 88 87 87 87 88 86 85 86 85 85 85 85 86 86 86 85 85 85 87
70 70 71 73 75 76 77 84 88 87 86 86 86 86 87 88 88 88 89 89 90 89 90 90 90 89 86 85 85 86 86 85 85 87 86 86 87 87 88 89 88 87 87 87 89 88 86 87 87 86 84 85 84 85 85 85 86 86 86 85 85 85 84
69 69 70 71 72 72 74 74 74 77 84 85 84 87 87 87 87 88 88 89 89 89 91 90 90 89 88 87 87 87 85 86 87 86 86 87 88 88 89 89 90 88 87 88 88 89 88 86 86 85 84 85 85 85 85 85 85 85 87 87 87 86 86
67 68 67 69 69 71 70 70 72 73 74 79 86 88 85 86 87 89 88 88 90 90 89 90 91 90 88 88 87 86 86 86 87 87 87 87 88 89 89 89 89 89 88 88 87 87 88 87 86 86 84 85 86 86 85 85 85 85 86 88 88 87 87
65 65 66 66 67 69 69 69 70 71 73 78 80 84 88 88 88 89 87 87 89 90 90 89 89 87 88 88 88 86 86 87 86 86 87 87 88 89 89 89 90 90 89 88 88 88 88 89 87 86 86 85 86 87 85 85 86 85 85 86 86 86 86
64 65 65 65 66 66 66 67 68 69 71 74 77 79 81 86 89 88 87 87 88 90 90 89 88 87 86 86 86 85 86 87 88 87 86 87 85 86 88 89 89 88 88 88 87 88 89 89 88 88 88 87 87 86 86 85 86 85 85 85 86 86 86
63 61 61 62 62 63 63 65 66 67 70 71 74 75 77 79 80 82 86 88 88 90 89 88 87 86 87 86 84 84 85 86 87 87 86 85 84 84 85 87 87 87 87 87 88 89 90 90 90 88 87 87 86 86 87 87 87 87 86 85 85 86 87
63 61 59 60 60 61 63 63 65 65 67 69 71 72 75 75 77 80 81 85 88 87 89 88 87 85 86 86 85 85 85 84 84 85 85 84 82 82 83 86 86 88 87 86 87 87 86 87 88 89 88 87 86 86 87 86 87 81 73 76 86 86 88
62 62 61 59 60 61 61 62 63 64 65 66 69 71 72 74 75 78 81 82 85 87 88 89 86 87 86 85 86 85 85 84 83 83 82 83 83 83 82 83 85 85 84 85 85 85 84 85 86 88 88 88 88 87 87 88 88 73 68 68 71 83 86
61 61 61 61 60 60 60 61 62 62 63 65 67 70 71 71 74 77 79 81 82 83 87 89 88 87 85 86 85 85 84 84 83 82 82 82 82 82 82 83 84 83 83 84 85 83 86 85 85 85 87 88 88 88 88 88 77 69 67 67 66 71 84
62 63 62 61 61 60 60 62 62 62 63 64 65 66 68 71 73 73 75 77 79 82 83 85 89 87 85 86 86 84 84 83 83 82 82 82 82 82 82 82 82 83 83 84 85 85 83 83 85 84 85 87 85 87 88 89 75 67 66 66 65 65 74
64 64 64 63 63 62 62 62 63 64 65 65 65 66 67 69 70 72 75 76 78 78 79 79 81 85 85 85 84 84 84 83 83 83 82 83 82 82 82 82 81 84 86 86 84 83 83 85 84 84 83 84 85 84 87 88 75 66 65 64 64 64 68
64 64 64 63 63 63 63 63 63 64 65 66 66 66 67 68 69 70 72 75 75 77 77 78 79 79 82 84 84 84 83 83 83 82 82 83 82 82 82 82 82 83 85 86 85 83 82 84 84 83 84 85 86 85 86 89 72 65 63 62 62 63 67
64 65 65 65 64 63 64 64 63 64 65 67 68 67 68 68 68 69 70 73 73 74 76 76 76 76 78 79 80 80 79 78 79 81 82 82 82 81 81 82 81 81 83 84 86 86 86 84 85 85 84 85 85 86 85 89 70 64 62 61 61 62 74
65 66 66 67 67 66 67 67 66 67 67 67 67 67 67 68 69 68 69 70 71 72 73 73 73 73 74 74 77 78 78 78 77 77 78 79 78 79 80 82 81 82 83 83 84 85 85 85 86 85 86 85 84 84 85 87 75 63 61 60 60 64 78
66 67 67 67 68 69 68 68 68 69 69 68 68 68 68 69 69 69 69 70 71 71 71 71 70 71 73 74 76 77 78 78 78 77 77 78 78 78 79 79 82 82 82 81 83 84 86 86 86 86 86 87 86 87 85 87 78 63 60 59 58 66 79
66 67 67 68 68 67 68 68 67 68 69 69 67 68 69 69 69 69 69 69 70 70 69 68 68 69 71 72 74 76 77 78 78 78 78 77 77 77 77 77 79 82 82 83 83 84 84 85 86 87 86 89 88 79 83 87 81 63 60 58 57 66 79
64 65 66 68 69 69 68 68 68 68 69 69 67 70 69 70 70 68 69 69 69 69 69 68 67 68 69 71 73 75 77 77 77 78 79 79 78 77 75 76 76 77 77 79 83 83 83 85 86 86 87 88 88 89 87 87 87 79 59 59 56 59 77
66 66 66 68 68 66 68 68 68 68 69 69 69 71 71 70 69 68 68 68 68 66 69 69 69 68 69 69 71 74 75 75 76 76 77 78 76 76 76 75 75 75 75 75 76 76 80 84 86 87 86 88 87 88 89 89 87 83 60 57 56 57 64
65 66 68 67 66 66 67 68 67 68 69 69 70 71 71 70 67 66 66 66 66 67 70 70 69 69 70 69 70 72 75 75 75 76 77 77 76 74 74 76 76 75 75 76 76 76 79 83 84 85 86 87 88 87 87 85 78 89 67 58 56 55 57
61 62 63 64 65 67 67 66 66 67 68 69 70 70 71 70 66 65 66 65 66 68 70 70 69 69 70 70 70 72 74 75 74 75 76 76 76 76 75 75 76 76 76 75 75 75 76 76 80 83 84 85 87 88 87 86 84 70 80 61 55 55 54
61 62 63 65 66 66 66 65 66 66 68 68 68 68 69 68 66 66 65 64 66 68 69 69 69 69 69 69 70 71 72 74 75 74 74 75 76 75 75 74 74 74 74 74 75 77 77 78 79 81 83 84 84 87 88 88 87 74 67 72 56 56 54
60 60 61 62 63 64 65 65 64 65 66 68 67 67 67 68 66 66 65 66 67 66 67 67 68 69 69 69 70 70 71 72 73 73 74 75 75 75 74 74 75 74 75 74 75 76 78 78 81 81 83 83 83 85 87 89 88 89 74 63 62 55 55
59 60 62 62 62 63 63 64 65 64 64 65 67 67 67 67 67 65 66 68 68 68 67 67 67 67 68 69 69 69 70 70 71 72 73 74 75 74 74 73 73 72 74 76 77 78 78 78 80 82 83 83 85 86 87 87 88 87 87 73 68 63 56
57 58 59 59 60 61 61 62 62 62 63 62 65 67 67 67 67 67 68 68 69 69 67 66 66 66 67 67 68 69 69 68 70 72 74 75 74 74 75 74 74 73 73 74 77 79 80 80 81 82 83 84 86 86 86 87 88 88 89 88 83 81 74
56 57 58 59 59 60 60 60 60 60 61 61 63 65 66 67 67 67 67 68 69 69 67 65 65 65 66 67 68 68 69 69 69 70 72 74 75 75 75 75 75 74 74 75 78 79 81 82 82 83 85 86 87 86 86 86 87 88 88 89 87 85 84
56 56 57 57 58 59 58 59 59 60 60 61 63 64 65 65 66 66 66 66 67 67 66 64 64 65 65 65 67 67 69 70 70 71 72 74 75 76 76 75 76 75 76 78 79 82 84 85 85 86 88 88 86 86 85 86 86 88 75 87 73 83 88
55 56 56 58 58 59 59 59 59 59 60 61 63 64 65 66 66 66 66 65 65 66 65 64 64 64 64 65 66 67 68 70 71 71 71 72 73 75 76 72 63 67 75 77 71 65 63 64 79 84 86 86 86 87 85 86 89 74 65 60 60 59 63
54 55 55 57 57 57 57 58 59 59 59 61 62 63 64 65 67 66 66 66 65 64 63 63 63 63 65 66 66 66 67 68 70 70 70 71 73 74 74 75 74 56 55 60 65 62 56 53 55 58 63 75 84 83 69 67 65 64 59 55 55 55 55
56 56 56 57 57 57 57 57 58 58 59 61 62 63 64 65 67 67 67 66 64 64 63 62 61 61 63 65 65 65 66 68 69 70 70 71 72 72 72 73 73 75 61 54 54 56 53 53 52 51 52 53 61 71 83 69 57 57 55 52 53 53 53

ECMWFFLT1_sfc_temp_084.txt.gz
Temp
91 91 91 91 90 91 91 91 91 92 91 91 92 93 93 93 92 91 90 88 86 86 86 86 86 87 86 87 87 88 88 88 88 88 89 89 90 90 90 92 91 90 92 93 91 91 91 92 92 92 92 91 91 90 89 89 89 91 90 89 89 89 89
88 92 92 92 90 88 91 92 91 92 92 92 92 91 93 93 92 91 90 88 87 87 87 86 86 86 87 87 88 88 87 88 88 88 89 89 89 90 91 90 91 90 90 92 93 92 91 92 92 91 91 91 91 90 91 90 89 90 91 89 89 89 90
84 86 89 92 92 91 91 93 92 92 92 94 94 93 92 91 92 90 90 89 87 87 88 87 86 87 87 87 87 87 88 89 89 89 89 91 90 92 91 91 91 92 93 92 92 93 93 92 91 91 91 91 93 91 90 91 90 90 90 89 90 90 88
80 82 85 87 89 92 93 93 92 93 94 95 94 94 93 91 93 92 91 91 89 88 87 89 88 89 89 87 87 87 88 88 89 91 91 92 92 92 91 91 90 92 92 93 94 93 95 93 92 91 90 91 91 92 92 91 92 91 90 89 90 91 90
80 80 81 84 87 91 92 92 92 92 93 93 95 93 94 94 94 94 93 94 94 91 92 92 93 91 90 90 90 90 89 89 89 91 92 92 91 92 91 92 92 92 93 94 93 92 91 91 92 91 91 90 91 91 91 91 91 91 90 90 89 91 91
80 80 80 82 85 89 92 94 94 95 94 95 91 94 96 96 96 96 95 94 94 95 93 92 92 91 90 91 92 92 90 89 89 89 90 91 91 91 92 91 93 93 94 93 95 94 92 92 92 92 92 93 93 93 93 92 92 93 91 90 90 91 93
77 79 81 82 86 88 92 93 95 95 93 93 95 96 96 96 96 97 97 96 96 94 95 94 95 94 91 91 91 90 90 91 90 91 92 92 92 91 91 92 92 94 94 94 93 94 94 92 92 92 92 93 92 94 92 91 91 92 91 90 89 89 90
76 78 81 82 82 84 88 91 94 94 91 88 88 91 95 95 95 95 95 97 97 97 96 96 95 93 91 91 92 92 91 92 92 91 92 92 93 91 92 92 92 92 93 94 93 93 94 93 94 93 92 93 92 91 93 91 90 93 92 90 89 89 93
76 77 79 80 79 80 80 80 83 90 92 91 92 92 95 96 96 96 96 97 97 97 97 98 98 96 92 92 91 91 92 93 93 92 92 93 94 95 95 94 94 93 92 94 95 94 93 94 95 92 92 92 92 91 91 90 91 92 92 91 90 89 91
72 73 76 78 78 79 78 77 79 79 82 87 90 88 91 95 95 96 97 97 98 97 98 98 98 98 94 92 93 93 93 91 93 94 94 94 95 95 96 97 96 94 94 95 96 96 93 94 94 93 90 91 91 91 90 91 91 92 93 91 91 90 89
72 72 73 75 76 76 76 75 74 73 76 80 85 92 92 93 94 96 96 97 97 97 98 98 98 98 96 95 94 94 93 94 94 94 94 95 96 96 97 98 98 96 95 95 96 97 96 93 93 91 91 92 91 91 90 91 91 91 93 93 93 92 92
71 71 71 72 73 74 73 72 72 72 73 76 82 85 86 88 93 96 96 97 98 97 96 98 99 98 97 96 95 93 94 94 94 95 95 95 97 97 98 98 98 98 97 96 95 95 97 95 94 93 91 91 92 92 91 91 91 90 91 94 94 93 93
70 69 70 71 71 71 72 71 70 71 72 76 79 82 85 86 88 92 93 94 97 98 93 91 96 95 96 97 96 93 94 95 94 94 96 95 96 97 97 98 99 99 98 96 95 96 96 97 94 93 93 91 92 93 92 91 91 90 90 91 92 92 92
71 70 69 69 70 70 69 70 70 71 71 74 77 79 82 85 84 85 88 92 95 97 96 94 92 93 94 94 93 92 94 95 96 95 94 95 93 94 96 97 97 97 97 96 95 96 97 97 96 95 94 93 93 92 92 91 91 90 90 90 92 92 92
73 72 70 68 67 67 66 68 68 70 71 72 74 75 77 80 83 84 86 85 88 96 96 94 93 93 94 92 92 91 92 93 95 95 94 92 91 91 93 95 95 95 95 95 95 98 97 98 98 96 94 94 93 93 94 94 93 93 92 91 91 92 93
74 74 72 69 67 67 67 67 67 68 69 70 71 72 75 76 78 83 85 86 88 88 92 93 92 91 92 91 88 90 91 91 91 92 92 91 89 89 90 93 94 96 95 94 94 94 94 94 95 97 96 94 93 94 95 94 95 88 79 82 91 92 94
73 72 72 71 69 67 67 67 67 67 67 68 69 71 72 73 76 79 85 88 88 86 88 92 91 91 91 91 92 91 90 89 89 89 89 89 89 89 89 90 92 92 91 92 92 91 91 92 93 95 97 96 95 94 95 97 96 78 71 72 74 89 91
71 71 71 71 70 69 67 66 66 66 67 69 70 70 70 70 74 76 78 81 86 89 90 89 90 91 88 90 90 90 89 90 88 87 87 87 87 87 88 89 90 90 90 91 92 90 92 92 91 91 94 96 96 96 96 96 84 71 69 70 69 75 90
71 72 71 70 71 70 69 67 67 67 68 69 69 68 69 70 71 71 72 75 80 85 87 89 86 88 89 90 90 88 88 88 88 86 86 86 87 87 87 87 87 89 90 91 91 92 89 89 91 90 91 93 92 94 96 96 81 69 67 68 68 68 78
72 72 72 71 71 71 71 71 69 68 68 70 70 70 70 71 70 71 72 74 77 79 81 80 82 83 84 86 88 88 88 87 87 87 86 87 87 86 86 86 86 88 91 91 90 89 89 91 89 90 89 90 90 90 94 94 82 68 65 65 65 66 71
71 71 71 71 70 71 70 71 71 71 69 70 71 71 72 72 72 72 73 74 74 77 78 80 80 80 82 84 86 88 87 86 86 85 86 86 86 86 86 86 86 87 88 90 90 88 87 89 89 89 89 91 91 91 93 96 77 68 63 63 63 64 69
71 72 72 72 72 71 71 72 71 71 70 71 73 74 73 72 73 73 73 74 73 74 75 78 77 77 78 80 84 84 85 85 86 86 86 86 86 85 85 85 85 85 87 88 91 91 92 91 91 90 90 90 91 91 91 95 73 67 63 61 62 63 78
72 73 73 73 75 75 74 74 74 75 74 73 73 72 73 74 73 73 72 72 73 73 73 72 72 73 74 73 75 80 81 82 83 84 83 85 85 85 85 85 85 86 87 87 88 89 90 90 92 90 91 91 90 90 90 93 79 65 62 60 60 65 82
74 74 75 75 75 76 75 75 75 76 77 77 75 73 73 74 73 73 73 72 72 73 74 72 72 71 70 72 74 77 80 82 82 83 84 85 84 85 86 87 87 87 87 86 86 87 90 91 91 91 92 92 91 93 91 92 82 64 61 59 59 69 84
72 75 75 75 75 75 75 74 74 76 77 77 74 75 76 74 74 74 73 73 72 72 73 73 72 71 71 71 72 74 76 79 82 83 83 83 84 85 85 85 86 87 87 87 87 87 88 89 89 90 87 89 90 83 89 93 86 65 61 59 58 68 83
71 72 74 75 77 75 74 73 74 75 76 77 74 77 77 77 75 73 73 73 73 73 72 72 72 73 73 72 73 74 74 77 78 80 83 83 84 84 84 85 85 86 86 87 88 88 88 86 86 86 87 88 87 89 91 92 92 83 59 59 57 60 81
73 73 73 75 75 72 74 75 75 75 76 76 75 78 78 77 74 71 72 73 73 71 73 74 73 73 73 73 74 75 74 75 76 77 80 83 83 84 85 85 84 84 84 85 85 85 84 84 84 84 84 86 86 87 88 91 92 89 61 58 57 57 65
73 73 74 74 71 72 74 75 74 74 77 77 78 78 78 76 72 71 72 72 72 73 75 75 75 75 74 73 75 76 76 76 76 77 78 79 79 80 81 82 83 83 83 84 84 82 82 82 82 82 83 84 84 85 86 86 80 94 68 58 56 56 56
69 69 70 70 71 74 74 73 73 74 75 77 78 77 76 76 72 71 72 71 72 74 74 73 74 74 73 73 75 75 76 77 76 76 78 79 80 79 77 79 81 82 82 81 81 80 80 81 81 82 83 84 85 86 87 87 86 71 83 60 55 55 55
68 69 70 72 73 72 73 71 72 73 75 76 75 75 75 73 71 71 70 71 74 74 74 73 73 72 73 74 74 75 76 76 77 77 76 76 78 79 77 78 80 81 81 80 79 79 79 80 81 81 82 84 84 87 88 88 88 77 69 73 55 56 54
66 67 68 69 70 70 70 71 70 71 73 74 73 73 73 73 71 71 70 72 74 73 73 73 73 72 72 73 75 75 76 78 77 77 76 77 77 77 78 79 80 78 80 79 79 78 78 79 80 79 80 81 82 84 88 90 90 92 77 65 62 56 55
66 67 68 69 69 69 68 69 70 70 70 71 73 73 72 73 73 70 71 74 74 74 74 73 71 71 72 72 73 75 77 77 78 79 78 77 79 78 77 77 78 78 78 79 79 78 78 78 79 79 79 79 81 83 87 88 87 88 88 78 69 63 57
64 64 64 65 66 66 66 67 67 67 67 67 70 72 74 73 74 74 74 74 76 76 74 73 72 71 71 72 74 75 75 75 78 79 80 79 79 79 78 78 78 78 76 77 78 79 78 78 79 79 80 80 81 83 83 85 84 82 81 81 81 80 76
62 63 64 64 65 65 64 65 64 65 65 65 67 70 71 72 72 74 75 76 76 76 73 71 72 72 72 73 74 74 75 76 74 75 79 79 79 78 78 79 80 79 77 78 78 77 78 81 80 80 80 80 83 83 83 81 81 80 79 78 78 80 80
62 62 63 63 63 63 63 63 64 63 64 64 67 68 68 70 71 72 73 73 74 73 71 70 70 71 71 72 73 73 74 75 75 77 78 79 79 79 78 77 79 79 80 82 81 81 82 83 83 83 84 83 81 82 84 83 83 83 69 77 66 75 82
61 61 62 63 64 64 63 64 63 64 64 64 66 66 67 68 70 71 73 74 73 72 70 70 70 70 72 73 74 75 74 74 75 75 75 78 79 79 79 75 64 70 79 80 73 66 59 60 75 80 81 80 81 83 82 84 83 65 61 57 55 56 57
60 60 61 62 62 63 63 63 63 64 64 65 66 66 66 67 69 70 71 72 73 72 71 70 70 70 72 72 74 73 72 73 73 74 74 74 75 76 76 77 78 57 53 59 64 61 57 53 53 54 57 69 79 78 66 63 59 57 56 55 54 55 55
61 62 62 63 62 62 62 62 63 63 63 65 65 65 66 68 69 70 72 72 73 73 71 70 68 68 70 72 72 71 71 73 73 73 73 73 74 73 71 71 72 75 62 51 53 55 51 51 51 51 52 53 57 66 77 67 59 57 57 56 54 52 51

ECMWFFLT1_sfc_temp_087.txt.gz
Temp
82 75 77 77 81 86 87 86 87 89 88 90 90 92 93 96 94 93 92 89 88 87 88 88 88 89 88 89 90 89 90 90 90 90 90 90 91 91 91 92 91 90 92 92 92 92 92 93 93 93 92 92 92 91 90 90 90 91 90 89 90 89 88
87 81 77 81 79 83 86 87 88 89 88 89 90 91 95 93 91 93 91 89 89 88 88 88 88 89 89 89 90 89 89 90 90 89 91 90 91 91 93 92 92 91 91 92 93 93 93 94 93 92 92 92 92 92 91 91 90 90 89 86 89 89 88
89 88 83 80 85 87 87 90 88 87 86 87 88 92 92 89 92 91 91 90 88 89 89 89 89 90 90 89 89 89 90 91 90 91 91 92 92 94 93 92 92 93 94 94 93 95 95 94 92 92 92 92 94 92 92 91 90 89 88 89 87 88 87
85 86 85 83 85 84 86 88 87 88 87 89 91 94 93 92 92 92 89 89 89 88 87 88 91 91 91 89 90 89 89 90 91 92 93 94 93 94 93 93 92 94 94 94 95 95 97 93 93 92 91 92 92 93 92 92 92 91 91 90 90 88 86
85 87 85 86 84 83 84 83 84 85 85 89 88 90 91 91 96 93 93 92 90 90 91 92 94 94 92 92 93 93 91 91 91 93 93 94 93 93 93 94 94 94 94 96 94 93 92 92 93 92 92 91 92 92 92 92 92 92 91 91 90 90 90
84 85 85 85 84 82 79 79 80 81 79 78 82 86 91 93 96 93 93 92 92 92 91 91 91 92 92 94 94 94 92 92 91 91 93 93 93 94 94 94 95 94 96 95 96 95 94 94 94 93 93 94 94 94 94 93 93 93 92 91 90 92 93
79 81 82 83 86 85 86 83 78 77 77 76 78 83 85 95 94 92 94 93 92 90 91 91 93 93 92 94 93 92 92 93 92 93 94 95 94 94 93 94 94 96 96 95 95 95 95 93 93 93 93 94 93 94 93 92 92 93 92 90 90 90 91
77 79 80 82 84 86 87 86 83 81 80 78 76 80 85 90 91 88 89 94 91 92 92 92 91 93 93 94 94 94 94 94 95 94 94 95 95 94 95 95 94 94 95 96 95 95 96 94 95 94 94 94 93 93 94 92 91 94 93 91 90 91 95
78 78 80 81 81 83 84 84 84 84 80 80 76 79 80 85 88 87 86 83 85 89 86 85 93 97 93 94 93 94 95 95 95 94 95 95 96 97 97 97 96 95 95 96 98 96 96 96 96 93 93 93 92 91 93 92 92 93 93 92 91 90 92
76 76 78 80 80 80 80 81 81 81 83 84 80 76 75 80 83 82 80 82 81 82 80 90 95 98 93 94 96 97 96 95 95 96 96 97 97 97 98 99 98 96 96 97 99 98 95 96 96 94 92 93 92 92 92 92 93 93 93 92 92 91 90
76 76 76 78 78 78 78 77 77 77 80 83 84 84 80 79 79 78 77 80 79 78 81 78 91 87 93 96 97 97 96 96 97 97 96 97 98 98 99 99 100 98 97 98 98 99 97 94 95 94 93 94 93 92 92 92 92 92 93 94 93 92 92
76 76 74 76 77 77 75 75 76 76 77 80 85 85 81 77 78 81 78 79 80 81 79 80 87 89 86 92 96 96 96 96 97 97 97 97 98 99 100 100 100 100 98 98 97 97 99 97 96 95 93 93 93 93 92 92 92 91 92 95 95 93 93
76 75 74 75 74 75 74 74 74 76 76 80 81 82 83 83 81 82 81 81 79 78 82 86 88 89 88 85 93 92 96 98 97 97 98 97 98 99 99 100 101 101 100 98 98 98 99 100 96 95 95 93 94 94 93 92 93 91 91 92 93 93 93
75 76 75 74 73 72 73 73 74 75 76 78 79 80 81 84 84 83 80 77 78 78 80 80 80 86 89 83 88 92 96 97 98 98 96 97 95 97 99 100 100 99 99 99 97 98 99 100 99 98 96 95 95 94 94 93 93 92 91 91 92 93 94
77 76 76 75 73 71 71 72 72 73 75 76 78 78 78 80 81 79 80 78 78 78 78 80 85 85 89 87 84 86 92 92 96 95 96 95 94 94 96 98 98 98 98 97 98 100 99 100 101 99 96 96 95 94 95 96 95 95 93 92 92 93 94
78 77 76 75 74 74 73 72 72 72 74 75 76 76 78 77 79 80 81 81 81 81 83 82 81 85 90 90 87 85 87 93 93 95 94 94 92 92 94 96 97 98 97 97 97 96 96 96 97 99 98 96 95 95 97 96 98 89 82 84 92 92 95
77 76 76 74 73 74 74 74 73 72 72 74 75 76 76 76 77 80 82 80 79 80 82 83 84 83 87 88 89 90 89 91 92 92 92 92 91 92 92 94 95 95 93 94 95 94 93 95 96 98 99 99 97 96 97 99 99 81 73 75 78 91 92
75 74 75 75 73 74 75 75 74 73 73 75 77 77 77 75 77 79 79 81 79 79 79 82 80 79 76 77 85 86 88 89 90 89 90 91 90 90 91 93 93 92 93 94 95 93 96 95 94 94 97 98 99 98 98 98 88 73 72 73 72 78 92
76 75 74 74 74 73 74 76 75 74 74 74 75 75 76 76 77 75 77 77 79 81 78 78 81 80 79 81 78 77 83 87 87 88 87 88 90 90 88 89 91 92 93 94 94 95 91 91 94 93 94 96 94 97 98 99 84 70 70 71 71 71 82
77 76 76 74 74 74 75 75 76 76 76 75 75 76 77 77 77 77 77 77 77 77 76 76 76 77 78 77 77 77 77 79 83 85 85 86 88 89 88 88 89 92 95 95 93 91 92 93 92 92 91 92 93 92 96 96 84 68 68 68 68 70 75
75 76 75 75 74 74 74 74 75 76 77 78 77 76 79 78 79 78 78 78 76 75 75 74 74 74 75 77 77 76 77 77 77 80 83 81 77 81 85 86 87 89 93 95 94 91 90 92 91 91 91 93 94 93 95 98 79 66 65 65 66 67 72
76 77 76 76 76 74 75 75 75 76 76 80 81 79 80 78 79 79 79 80 78 76 76 75 73 73 73 74 75 74 75 76 76 77 79 79 77 77 76 80 83 84 89 92 95 94 94 92 93 92 92 92 93 93 92 96 77 66 63 63 64 66 80
77 77 78 78 79 78 77 78 78 79 79 79 80 79 79 79 77 77 77 78 77 76 76 75 74 73 72 72 73 74 74 75 76 76 76 77 76 77 76 77 78 80 83 87 92 93 93 92 93 92 93 93 92 91 92 95 80 64 61 61 61 67 84
78 79 79 79 80 80 79 78 79 80 81 81 81 80 80 80 78 77 76 76 77 77 77 75 74 74 72 72 73 73 74 75 75 76 77 76 75 75 76 77 78 79 81 80 87 92 94 94 93 94 94 94 93 94 92 94 83 63 61 59 59 70 85
77 79 79 79 80 78 79 77 77 80 81 81 80 80 82 81 79 78 77 77 77 78 76 74 75 74 73 72 72 73 74 75 76 76 76 76 77 76 75 75 76 78 77 77 83 89 91 92 92 94 94 97 96 87 91 94 86 63 62 59 58 69 85
76 76 78 80 81 78 77 77 78 79 80 81 78 81 82 83 81 77 76 77 77 77 76 75 74 75 76 74 73 74 74 76 76 77 77 77 77 77 76 76 77 78 78 79 79 81 86 91 92 92 92 95 95 97 95 94 94 81 59 60 58 61 83
77 77 76 78 77 74 78 79 79 79 80 80 79 82 83 82 80 76 76 76 76 75 77 76 76 75 75 75 75 74 73 74 75 75 76 78 76 76 75 75 75 76 77 77 77 77 77 84 89 91 91 94 93 95 96 97 94 88 58 58 57 58 67
76 77 78 76 75 76 77 79 77 78 81 81 82 83 82 80 76 74 75 76 75 77 79 78 77 76 75 75 76 75 75 74 74 74 75 76 76 75 74 74 75 75 75 75 77 77 78 78 81 86 88 88 91 91 91 91 84 95 66 57 57 56 58
72 72 73 73 75 77 77 75 76 77 78 81 82 81 80 79 75 74 75 74 75 78 78 78 78 77 76 75 75 75 76 75 75 76 77 76 75 75 74 74 75 75 76 76 77 78 80 79 79 83 85 86 87 91 92 90 89 72 82 59 54 55 55
71 72 73 76 76 75 75 74 75 76 77 78 78 78 78 76 73 73 73 73 76 77 77 77 77 77 76 76 76 75 75 76 77 77 77 77 77 77 76 74 74 74 76 75 75 76 77 80 82 83 85 85 85 89 91 91 91 79 70 75 54 55 53
70 70 72 72 73 73 73 73 72 74 75 76 76 76 75 76 73 73 72 75 76 76 76 76 77 76 76 76 77 76 77 76 77 76 76 78 79 78 77 78 78 77 77 77 76 75 75 78 82 83 83 83 84 86 89 91 91 93 78 66 63 54 54
69 70 71 72 71 71 71 72 73 73 72 73 74 75 74 76 76 73 73 76 76 77 78 77 76 75 74 76 77 78 79 78 79 79 80 81 81 80 80 80 78 77 75 75 76 76 77 76 77 81 81 83 84 85 87 88 89 90 91 78 72 64 56
67 67 67 67 68 68 69 69 70 69 70 69 72 73 75 75 76 75 75 75 78 79 78 77 76 74 75 75 77 78 79 78 80 80 80 79 79 81 82 81 80 79 79 80 79 79 79 79 79 76 79 81 82 85 85 86 87 87 84 84 84 84 76
66 66 67 67 67 67 67 68 67 67 68 68 69 71 72 73 73 75 76 77 78 78 76 74 74 75 75 76 77 78 79 79 78 77 79 80 81 80 78 78 80 80 79 81 82 82 82 83 84 83 83 82 84 82 80 82 79 79 79 76 78 80 83
66 66 66 66 66 66 65 66 66 66 66 67 69 70 70 71 72 73 73 73 75 74 73 73 73 73 73 75 75 76 77 78 79 80 81 81 80 82 82 82 82 78 78 83 85 84 82 82 80 81 86 87 81 77 78 79 75 74 66 69 63 71 78
66 66 66 67 66 67 66 66 66 66 66 67 69 69 69 70 70 71 73 73 74 73 72 72 73 73 74 75 76 78 78 79 81 80 80 81 82 82 82 78 67 72 79 79 74 69 61 60 75 79 81 79 79 80 79 77 79 67 57 57 57 55 55
64 65 65 65 65 65 65 65 66 66 66 67 68 69 69 69 70 71 72 72 73 73 72 72 72 73 74 74 76 76 77 77 77 78 78 78 79 79 78 80 80 61 56 58 61 57 53 52 52 52 55 67 78 78 67 63 58 53 52 52 52 53 52
66 65 65 65 65 64 64 65 65 65 66 67 68 68 68 69 70 70 72 72 73 73 72 72 72 71 73 74 75 74 74 76 75 76 76 77 77 77 77 77 76 78 63 52 54 54 50 49 48 48 49 51 55 65 75 66 59 54 52 51 49 50 49

ECMWFFLT1_sfc_temp_090.txt.gz
Temp
84 84 84 82 77 76 79 85 87 88 89 89 90 91 93 93 91 89 88 86 85 84 85 86 86 86 85 86 86 86 87 87 87 86 86 86 87 86 87 88 88 86 88 87 87 87 87 89 89 89 88 88 87 86 86 86 86 87 86 84 83 82 82
84 83 83 84 84 84 85 86 84 87 88 89 89 89 92 92 90 90 88 86 86 85 86 86 85 86 86 86 87 86 86 87 87 86 87 86 86 86 88 87 87 86 87 88 87 88 88 90 90 89 88 88 88 87 88 86 86 86 86 85 84 82 81
82 81 81 80 81 83 86 86 85 86 86 88 89 90 90 88 88 88 88 87 86 86 87 86 86 86 87 86 86 86 87 87 87 88 88 89 88 91 90 88 88 89 90 90 89 90 90 90 88 88 89 88 90 87 87 87 86 87 86 85 85 84 82
80 80 79 78 79 80 81 84 84 85 87 89 88 89 90 86 86 86 86 88 86 86 85 87 87 88 87 86 86 86 86 87 87 89 90 90 89 91 89 89 88 90 89 90 92 92 93 90 89 88 89 88 88 88 89 88 88 87 86 84 83 85 84
79 79 77 77 77 76 77 81 83 83 84 89 87 88 88 85 83 83 85 87 90 87 89 89 90 90 88 89 89 89 88 88 88 89 90 90 89 89 90 91 90 91 90 92 90 89 88 88 90 88 88 87 89 88 88 88 88 87 86 84 82 84 85
77 74 74 75 76 76 77 79 79 80 82 83 84 81 81 81 82 82 81 84 85 89 89 88 90 89 89 90 90 90 89 88 88 88 89 89 89 90 90 90 91 91 93 91 92 91 91 90 90 89 89 90 91 91 90 89 90 89 87 86 84 86 86
80 77 76 75 78 81 81 81 80 82 82 79 79 80 83 80 80 79 78 79 80 80 84 86 86 90 89 90 89 89 88 90 89 90 91 92 91 90 90 90 90 92 93 91 91 91 91 90 89 89 89 90 89 91 88 87 87 88 87 86 85 86 86
78 79 80 80 81 81 80 78 80 82 81 79 78 79 81 80 77 76 75 76 77 78 76 77 78 87 88 89 91 91 90 91 91 91 91 92 92 91 91 91 91 91 91 93 91 92 93 90 92 91 90 91 89 88 90 87 86 90 89 86 86 87 91
77 77 78 80 81 81 81 80 79 80 79 78 78 77 79 79 79 78 77 76 77 77 76 78 80 80 78 74 78 85 91 91 91 91 91 92 93 93 94 93 93 92 92 93 94 92 92 92 92 89 89 89 88 87 89 87 89 89 89 87 86 86 89
75 75 76 78 78 79 79 79 78 77 76 76 77 76 76 77 78 79 79 79 79 79 80 80 80 79 79 77 76 77 77 86 92 92 92 92 93 93 94 95 94 93 93 94 95 94 92 92 92 90 87 89 88 88 88 88 89 89 89 88 88 87 86
75 75 75 76 76 76 76 76 75 73 74 74 75 76 76 76 78 78 78 79 79 78 81 81 80 79 77 78 78 77 77 77 84 92 92 93 94 95 95 95 95 94 94 94 94 95 93 91 91 88 88 90 89 88 88 89 89 88 90 90 89 88 89
74 74 73 74 75 74 73 73 73 73 73 73 75 76 73 75 77 77 76 77 79 79 78 79 79 79 78 78 77 77 77 78 79 85 93 93 94 95 96 96 96 95 94 95 94 94 95 92 93 91 88 88 89 89 88 87 88 87 88 91 91 89 90
75 74 73 74 73 73 73 72 71 72 71 73 74 74 75 75 76 76 78 79 79 79 79 79 79 79 78 77 78 77 78 78 79 81 90 92 95 96 96 96 97 96 95 95 94 94 95 95 92 91 91 89 90 90 88 88 89 87 87 88 89 89 88
75 76 75 74 73 73 72 73 73 73 73 72 71 73 72 74 76 77 77 77 79 80 80 79 78 78 77 77 77 77 79 81 82 82 83 92 91 93 96 97 97 96 95 94 94 95 96 96 94 93 93 91 91 90 89 88 89 88 87 88 89 90 89
76 75 75 75 73 72 73 73 72 73 75 75 74 72 71 71 73 75 76 76 77 80 80 79 78 79 79 78 77 78 78 77 78 78 77 79 88 90 92 95 95 94 94 93 94 97 96 97 97 93 92 92 90 90 91 92 91 91 89 88 88 89 90
76 75 74 74 74 75 73 74 74 74 75 74 74 74 74 72 72 73 75 76 78 79 80 80 81 80 80 78 77 77 77 78 78 76 76 76 76 83 89 94 95 97 95 93 94 92 91 92 93 95 93 92 91 91 93 92 93 86 81 83 88 88 91
75 74 74 73 74 75 75 74 75 75 74 74 75 76 76 75 75 75 77 77 78 79 81 82 80 80 79 79 78 78 78 76 77 76 76 76 76 76 77 84 92 93 90 91 92 90 88 91 92 95 96 94 93 92 93 94 94 80 73 75 79 88 87
73 73 74 73 72 74 75 75 74 74 75 76 77 78 78 76 78 78 76 78 77 79 80 80 78 78 78 80 79 78 78 77 77 77 77 77 77 77 76 76 75 80 88 92 93 90 93 93 91 90 94 96 95 94 93 93 85 73 71 72 73 79 88
74 74 73 73 73 72 74 75 75 75 76 76 76 76 77 78 79 78 78 76 77 79 78 77 77 77 77 78 78 78 77 78 77 77 77 77 78 76 76 77 77 76 76 80 89 93 89 88 91 90 91 93 90 93 94 94 83 71 70 71 71 72 82
76 76 74 73 74 73 74 75 76 77 77 76 76 78 77 77 77 79 80 79 78 77 76 75 75 75 75 76 76 77 77 77 77 77 77 77 75 75 75 75 76 75 77 78 77 78 82 91 90 89 87 89 89 88 93 93 84 69 67 69 69 70 76
75 75 75 74 72 73 73 74 75 76 77 78 78 78 79 78 79 78 78 78 78 77 76 75 74 74 74 74 75 75 76 76 76 76 77 77 76 75 75 75 75 76 76 76 78 78 78 77 82 88 89 91 92 91 93 97 79 68 66 66 66 68 73
76 76 76 76 74 73 74 75 75 76 77 80 80 79 80 78 79 79 79 80 80 78 76 76 74 73 74 73 73 74 75 75 75 75 75 77 76 75 75 76 76 76 77 76 77 79 77 77 78 80 84 88 91 91 91 94 77 65 65 64 65 67 76
78 77 78 78 78 77 77 77 78 79 80 78 80 79 79 79 78 77 78 77 78 77 76 75 74 74 73 72 72 74 75 75 75 75 75 75 76 76 76 76 76 76 77 77 77 75 76 77 79 77 76 78 79 84 89 91 82 66 61 62 63 67 78
79 79 79 79 78 79 78 78 79 81 81 81 80 80 80 79 77 76 76 76 77 77 76 75 74 74 74 74 74 74 75 75 76 75 75 75 74 75 75 76 76 76 77 76 76 76 76 75 76 77 77 76 76 80 81 87 84 66 60 60 61 68 79
77 79 79 79 77 77 78 77 78 80 81 80 79 81 82 80 77 76 76 76 77 77 76 74 74 74 74 74 76 76 76 75 75 75 74 74 74 74 74 75 75 76 76 76 76 76 77 77 75 75 76 77 78 77 78 81 83 68 59 59 59 66 80
75 75 77 78 78 78 78 77 78 78 80 80 78 82 81 81 79 76 75 77 77 76 76 75 75 76 76 76 76 76 76 76 75 75 74 74 75 75 74 75 74 74 74 75 76 75 75 76 76 76 76 78 78 80 81 81 85 81 59 59 57 61 79
76 76 75 76 76 76 77 77 77 77 79 78 78 81 81 80 77 75 74 75 75 74 76 76 76 76 76 76 76 77 76 75 75 74 75 75 74 74 75 75 74 74 74 74 76 76 75 75 75 76 76 77 79 80 83 86 87 86 61 57 57 58 66
75 75 76 76 76 75 75 76 75 77 78 78 80 80 79 78 74 73 73 74 74 75 78 77 76 76 76 75 76 76 76 74 74 75 75 76 75 73 72 75 76 75 74 74 74 75 74 75 75 75 76 78 79 81 83 86 85 89 68 57 56 56 58
71 71 72 73 73 75 74 73 74 75 76 78 78 78 77 77 73 72 73 72 73 76 77 77 77 76 76 76 76 76 76 76 76 75 76 75 75 74 72 73 74 75 75 74 74 73 72 73 75 75 75 77 78 81 83 84 83 71 75 62 54 55 55
71 71 72 74 74 73 73 72 72 73 75 76 76 75 75 73 71 72 72 72 75 76 76 76 76 76 76 76 76 76 76 77 78 76 75 74 73 73 73 72 73 73 73 74 73 72 72 72 72 72 72 73 75 78 80 78 74 73 67 70 58 54 53
69 69 70 70 71 70 70 70 70 72 73 74 73 74 73 73 72 71 71 72 74 74 74 75 76 76 76 75 75 75 77 78 78 78 77 76 74 73 73 73 73 71 73 73 73 72 72 72 71 71 71 71 72 74 75 75 76 76 72 64 61 54 53
69 69 70 70 69 68 68 70 70 70 70 70 72 72 72 73 73 70 70 73 74 75 75 75 74 73 73 74 75 76 78 77 79 80 81 80 78 76 75 75 75 72 71 71 73 73 73 73 72 72 71 71 72 72 73 74 74 74 75 73 72 66 57
68 67 67 66 67 67 67 67 67 67 67 67 69 71 72 72 73 72 72 72 74 75 73 72 72 72 72 73 75 76 76 76 78 79 80 80 80 78 77 76 76 76 73 73 73 76 75 73 72 71 71 71 72 72 72 73 73 74 73 73 75 75 72
66 66 67 67 67 67 66 66 65 65 66 65 67 69 70 71 71 73 72 73 74 73 72 71 71 71 72 73 74 74 75 75 77 76 77 79 80 80 80 79 79 77 75 76 77 75 75 75 75 74 74 73 72 73 73 72 73 72 72 73 75 75 76
66 66 66 66 66 66 65 65 65 65 65 65 67 68 68 69 70 71 71 71 72 71 70 69 70 70 71 72 73 73 74 75 76 77 79 80 79 80 80 80 81 78 78 81 79 77 75 73 73 73 75 72 72 72 73 72 71 73 67 71 66 70 76
66 66 66 67 66 66 65 65 64 65 65 65 67 67 67 68 69 70 71 71 71 70 69 69 69 70 70 72 73 74 75 76 78 78 77 78 78 79 80 78 69 71 78 78 74 69 63 62 71 74 73 71 71 72 72 72 74 62 57 55 54 54 56
65 65 65 65 64 64 64 64 65 65 65 66 67 67 68 68 68 69 70 70 70 70 69 68 68 68 69 71 72 73 74 74 74 74 74 75 76 76 75 77 77 60 56 63 68 64 58 51 51 52 55 66 72 72 64 62 59 54 53 51 49 48 48
66 65 65 65 64 63 63 64 64 65 64 65 66 66 66 67 68 68 70 70 70 70 68 67 66 66 67 69 70 71 72 74 73 73 73 73 73 74 73 74 73 75 61 51 54 55 50 49 48 47 48 50 57 66 70 62 56 52 51 50 48 48 47

ECMWFFLT1_sfc_temp_093.txt.gz
Temp
77 76 75 76 75 76 74 75 75 75 75 75 75 82 88 87 84 83 82 81 80 79 80 79 80 80 80 79 80 80 80 80 81 80 79 80 81 80 80 80 81 80 81 80 81 80 82 83 81 84 82 82 81 80 80 80 80 82 79 79 79 79 79
77 75 75 76 76 77 75 75 74 74 75 77 77 77 85 86 84 83 82 81 81 80 81 80 80 80 80 80 80 79 79 80 81 81 81 80 81 80 81 80 80 80 80 81 81 81 83 83 83 83 82 82 82 81 81 80 80 80 80 78 78 78 77
78 76 77 76 76 76 75 76 75 76 75 76 77 79 83 81 84 83 82 82 81 81 82 81 81 81 80 80 79 79 80 80 80 81 80 81 81 83 82 82 80 81 82 83 82 83 84 83 83 83 83 82 83 81 81 80 80 80 79 78 79 78 77
76 75 76 76 76 75 75 75 75 76 77 79 79 79 77 79 82 83 83 83 82 81 80 82 81 82 82 80 79 79 79 79 80 82 83 82 82 82 81 81 81 83 82 83 85 86 88 83 83 82 84 81 82 82 82 81 81 80 80 79 78 78 77
74 76 75 74 74 75 75 74 75 76 76 75 75 75 77 81 79 82 83 84 84 83 83 84 84 83 83 82 83 82 81 81 80 82 82 83 82 82 81 82 82 82 83 84 83 83 82 83 83 82 82 82 81 82 82 81 82 81 80 79 78 78 78
73 73 72 74 74 73 74 76 77 77 76 75 75 76 79 80 80 80 78 79 76 77 77 78 82 83 83 84 84 84 82 81 80 80 82 82 82 83 82 82 83 83 84 84 84 84 83 84 84 83 83 83 83 83 83 82 82 82 80 79 78 79 80
74 73 74 75 76 76 74 73 76 76 74 75 75 78 80 80 78 78 79 79 77 76 76 75 75 75 76 81 83 83 82 83 81 82 83 84 82 83 83 82 82 84 83 84 84 85 83 83 84 83 83 84 82 84 82 81 81 82 80 79 78 78 79
73 75 76 76 76 76 75 74 76 76 75 74 74 75 76 75 74 74 74 74 75 75 75 75 75 75 75 76 78 81 83 84 84 84 83 84 83 83 84 83 82 83 84 84 84 85 85 84 85 84 84 84 83 81 82 81 80 83 81 80 79 79 83
73 74 74 75 74 75 75 76 75 75 75 73 73 73 73 73 73 74 75 75 74 75 75 76 76 76 75 75 77 76 78 83 85 84 84 85 85 84 86 85 84 83 85 84 85 85 86 85 85 83 83 84 82 82 81 81 82 82 81 81 80 80 82
70 71 73 73 73 74 74 75 75 74 73 72 72 72 72 74 74 74 74 74 75 74 75 76 77 76 76 75 74 76 77 78 80 85 86 85 86 86 87 87 87 85 85 86 86 85 84 85 86 83 82 83 82 82 82 81 82 82 82 81 81 81 80
70 69 70 71 71 71 71 71 71 71 72 72 72 73 73 73 73 73 74 75 75 76 77 76 76 76 76 76 76 76 76 79 82 81 84 86 87 87 88 88 88 87 86 86 87 87 85 83 85 83 81 84 83 82 83 82 82 82 83 82 82 82 83
70 70 70 71 70 70 70 70 70 70 70 71 72 72 72 73 73 74 73 75 76 76 75 75 75 76 75 76 75 75 75 75 76 79 80 80 82 85 87 89 88 87 88 87 87 85 87 85 84 85 82 82 83 82 82 82 81 81 83 84 83 82 83
70 70 70 71 70 70 69 69 70 70 70 71 71 71 73 73 73 74 75 75 75 75 76 75 75 75 75 75 74 74 75 74 74 75 78 78 77 77 78 79 83 88 88 88 88 87 86 88 85 83 84 83 83 83 82 82 82 80 81 83 83 82 81
70 70 71 71 70 70 69 69 69 70 70 70 71 71 71 73 75 74 74 74 74 74 75 76 75 74 74 74 73 74 75 75 75 76 76 76 76 77 77 78 78 79 83 87 88 89 89 88 88 85 85 85 84 84 83 81 82 80 80 82 82 82 82
71 70 71 71 70 69 70 69 68 68 70 72 72 71 71 71 72 73 74 74 75 76 76 75 75 75 75 74 73 73 74 75 75 75 76 75 74 74 74 76 78 79 79 81 87 90 90 90 89 88 85 85 84 84 85 84 84 84 83 82 82 83 82
71 71 70 70 71 71 71 70 69 68 69 70 72 72 72 71 72 73 74 74 76 76 77 76 75 76 76 75 74 74 75 75 76 75 75 74 74 73 74 76 78 82 80 78 80 85 88 89 87 88 87 85 84 85 86 86 86 83 79 79 84 83 85
69 70 70 71 71 71 71 71 70 69 70 70 71 72 73 73 73 74 75 75 76 76 77 77 75 75 76 76 76 75 75 75 75 74 74 75 74 74 74 75 78 79 79 79 79 78 80 86 88 87 88 88 86 85 87 88 89 78 72 73 76 83 83
68 67 69 69 69 71 71 71 69 68 70 71 72 73 74 73 74 74 74 76 75 76 77 76 73 72 73 74 74 75 75 75 75 75 74 75 75 75 75 75 76 77 79 81 82 80 80 82 85 86 87 88 88 87 87 87 82 73 70 71 71 76 83
68 68 66 67 69 68 69 70 68 68 69 69 70 70 72 73 73 73 73 74 75 76 74 74 73 72 72 73 74 74 75 75 75 75 75 74 75 75 75 74 75 76 78 81 81 81 77 76 79 81 85 86 85 87 87 87 78 72 69 69 70 70 78
69 68 68 66 67 67 68 68 68 70 69 69 69 71 72 72 72 73 75 75 74 73 72 72 71 72 72 72 72 73 73 74 75 74 74 75 74 74 74 74 74 75 76 77 78 77 76 78 77 78 76 78 81 82 86 86 79 71 69 67 67 69 72
68 68 67 66 64 66 66 67 68 69 69 70 71 72 73 72 73 73 74 73 72 72 71 71 71 71 71 71 71 72 72 73 73 73 74 75 74 74 73 74 74 75 75 75 75 76 76 77 78 77 78 79 80 80 82 87 77 69 67 65 65 67 70
70 70 69 68 67 65 66 68 68 69 69 72 72 71 73 72 73 73 74 74 73 73 73 72 71 71 70 70 71 72 72 73 73 73 74 74 74 74 74 74 74 74 75 75 75 75 75 75 76 77 78 78 78 78 79 83 74 69 65 65 63 65 73
72 71 71 70 71 70 69 70 70 71 70 69 71 70 71 71 70 70 71 71 71 70 70 69 69 69 70 70 71 72 72 72 73 73 73 73 73 73 74 74 74 74 75 74 74 74 74 74 76 75 76 76 77 77 77 79 73 68 63 60 62 63 73
73 73 72 72 70 71 70 70 72 73 73 73 72 70 70 70 70 68 68 69 69 69 69 68 68 68 68 69 70 72 72 73 73 72 73 73 73 72 72 73 74 74 75 74 73 74 74 75 74 75 75 75 75 77 77 78 76 65 62 61 57 63 73
70 72 72 71 71 70 71 70 71 73 72 72 72 72 72 70 69 69 68 68 69 69 68 67 67 68 69 69 70 71 71 72 72 72 72 72 73 73 72 73 73 74 73 73 74 74 74 75 74 74 74 75 76 77 76 77 75 67 63 62 60 62 70
68 68 70 71 72 71 69 70 70 70 72 71 70 73 73 73 71 69 68 68 68 68 67 68 68 68 69 69 70 71 70 71 71 72 72 71 71 72 72 73 73 72 73 73 73 73 74 74 74 74 75 75 75 77 77 77 77 76 62 56 55 56 66
69 69 68 70 69 71 69 70 70 70 71 68 69 73 73 71 69 67 67 67 66 67 68 68 68 69 69 69 69 70 70 70 70 69 71 72 73 73 73 73 72 72 72 72 73 73 73 74 74 74 74 75 76 76 77 79 79 71 57 59 57 54 58
68 69 70 70 70 69 68 69 68 69 71 70 71 72 71 69 66 65 65 65 66 68 69 68 68 67 68 68 68 69 69 69 69 70 71 71 72 71 70 72 73 73 72 72 72 72 72 72 72 73 73 75 76 77 77 79 75 74 65 61 61 56 53
64 64 65 65 65 67 68 66 66 68 68 71 71 69 69 69 65 65 66 64 65 68 69 69 69 68 68 68 69 69 70 70 70 72 72 71 71 69 69 70 71 71 72 71 71 71 71 71 71 72 72 73 74 75 77 76 73 69 71 64 59 58 53
63 64 65 67 66 65 66 64 65 66 67 68 67 67 68 66 64 65 64 63 66 67 69 68 67 67 68 69 68 68 69 70 71 71 70 71 70 68 68 69 71 71 71 70 70 69 69 70 70 70 70 71 72 75 74 73 73 69 67 70 61 56 54
62 63 64 63 63 64 64 63 63 64 65 66 65 65 65 65 63 64 63 64 66 65 66 66 67 67 67 67 67 68 69 69 69 70 71 70 70 69 69 69 70 69 70 69 67 67 67 67 70 70 69 69 70 71 72 72 72 73 70 64 63 59 55
62 62 63 63 61 62 62 63 63 62 62 62 64 64 64 65 64 62 63 65 66 66 66 66 66 66 66 66 67 68 69 69 70 71 71 71 70 71 70 70 70 70 69 67 67 68 68 69 71 70 69 69 70 70 72 73 72 72 73 73 72 68 60
60 60 60 59 61 62 60 61 60 60 60 60 61 62 65 65 65 64 64 64 67 67 65 65 65 65 65 65 66 67 68 67 68 70 71 71 71 71 72 71 70 71 70 69 68 69 70 71 71 70 70 70 70 70 71 71 72 72 71 71 72 72 70
58 59 59 59 60 60 59 59 58 58 59 59 59 61 62 63 63 65 65 66 66 65 64 64 64 64 64 66 66 67 67 67 72 72 69 70 71 70 70 71 71 70 71 70 71 70 70 69 70 69 69 69 70 70 70 70 71 71 71 71 72 72 73
58 58 58 58 58 59 57 58 57 57 58 59 59 60 60 61 62 63 63 64 64 63 62 63 64 64 63 64 65 65 67 68 68 68 68 68 70 70 69 69 70 70 70 72 72 72 74 71 70 71 71 70 68 68 67 68 68 71 65 69 63 68 71
57 57 57 58 58 57 58 59 57 58 58 58 59 60 60 61 61 62 64 63 63 63 62 62 61 61 62 63 64 65 66 66 68 68 68 69 68 69 69 73 65 65 69 70 71 67 63 63 69 71 71 70 70 70 69 68 70 62 53 54 53 53 54
56 55 56 57 56 57 57 56 59 58 58 58 59 59 60 60 60 60 62 63 63 62 62 61 61 61 60 62 62 64 65 65 65 66 66 67 66 67 67 67 69 58 56 58 64 60 54 52 53 54 57 66 69 69 62 61 57 52 49 49 49 48 47
57 56 57 57 57 57 56 57 57 56 57 57 58 58 58 59 60 60 62 62 63 62 60 60 60 59 59 61 60 63 63 63 64 64 65 65 66 66 64 63 64 66 58 54 53 52 49 48 47 46 46 48 54 64 67 61 54 50 48 47 47 47 45

ECMWFFLT1_sfc_temp_096.txt.gz
Temp
76 75 74 74 74 75 75 75 75 74 74 77 79 82 82 82 80 80 79 78 78 77 76 77 77 77 77 78 78 78 78 77 77 78 77 77 78 78 77 78 78 78 78 78 78 78 79 80 80 80 80 79 79 79 78 78 78 79 77 77 77 78 76
74 74 74 74 74 74 75 76 75 74 75 77 77 77 81 81 80 80 79 79 79 78 77 77 78 77 78 78 78 77 77 77 78 79 78 77 78 78 79 78 78 78 77 78 78 79 79 80 80 80 80 80 80 79 79 78 78 78 77 76 76 76 76
74 74 74 74 74 74 73 74 74 74 75 77 76 76 77 79 80 80 79 79 78 78 79 78 78 78 78 77 77 77 78 77 77 78 78 78 78 80 79 78 78 79 79 79 79 80 81 81 79 80 80 80 80 79 79 78 78 78 77 76 77 77 75
74 74 74 74 74 74 73 73 74 74 75 76 76 76 76 77 80 81 80 80 79 79 77 78 79 79 79 78 78 77 77 77 78 79 79 79 79 80 79 78 78 79 79 79 81 82 84 81 80 79 81 79 79 79 79 79 79 78 78 77 76 76 76
71 72 71 71 72 72 73 74 74 73 73 74 74 74 75 77 78 81 81 81 81 79 80 80 81 80 80 80 80 80 79 78 78 79 79 79 79 79 79 80 79 79 80 81 80 80 80 80 80 80 80 79 79 79 79 79 79 78 78 77 76 76 76
69 69 70 71 71 71 71 72 72 72 72 72 73 73 73 73 73 76 78 77 76 78 79 80 80 80 80 81 81 81 79 78 78 77 79 79 78 79 79 80 80 80 80 80 81 81 81 80 81 80 80 80 80 80 79 79 79 79 78 77 77 77 77
70 70 70 71 71 71 70 71 71 72 72 72 73 74 75 74 73 73 74 75 75 75 76 77 79 79 79 81 81 80 79 79 78 78 79 79 79 79 79 79 80 81 81 80 80 81 81 80 80 81 81 81 80 80 79 78 79 79 78 77 76 76 77
71 71 72 72 73 72 70 71 71 71 72 72 73 73 74 74 73 73 74 75 76 77 77 76 75 78 78 79 81 81 80 81 80 79 78 80 79 79 79 79 79 80 81 81 81 81 82 81 82 81 82 82 80 80 80 79 78 79 78 77 76 76 79
70 70 70 71 71 71 71 70 70 71 71 71 72 72 73 73 73 72 73 74 75 76 76 77 76 76 76 76 78 80 81 82 81 80 79 80 80 80 81 81 80 80 81 82 83 82 82 81 82 81 80 81 80 79 79 79 79 79 78 78 77 77 78
68 69 70 71 71 69 69 69 70 71 70 70 71 71 71 72 72 72 72 73 74 75 74 75 75 75 75 75 75 75 76 78 80 81 81 81 82 81 82 83 83 81 81 82 83 83 81 81 82 81 79 80 80 79 79 78 79 79 79 79 78 77 77
68 69 69 70 70 69 68 68 67 69 69 69 69 71 71 71 72 72 72 73 73 74 75 75 75 75 75 75 74 73 73 77 76 78 80 82 83 83 83 83 84 83 82 83 83 83 83 80 80 80 79 81 80 80 79 79 79 79 79 79 79 79 79
68 68 68 68 69 69 68 69 69 69 68 69 70 70 70 71 72 72 73 73 73 73 74 74 74 75 75 75 74 72 72 74 74 73 74 75 76 79 83 84 84 84 83 83 83 82 83 82 81 81 80 80 81 80 80 80 79 79 79 80 80 79 79
67 68 68 68 68 69 69 69 68 69 69 68 69 72 72 71 71 72 73 73 74 75 73 74 73 74 74 74 74 73 74 74 73 73 75 74 74 75 75 77 80 83 84 84 84 83 82 83 82 81 81 80 81 81 80 80 79 78 79 80 79 79 79
68 68 68 68 69 68 68 68 69 68 69 69 69 70 71 72 72 72 72 72 73 74 74 73 74 74 73 73 73 73 74 74 74 74 73 73 73 74 76 77 76 76 76 79 81 83 84 84 83 82 82 81 81 81 81 80 80 78 78 79 80 79 79
67 67 67 66 67 68 68 68 68 68 69 69 69 69 69 69 70 70 73 72 72 73 73 74 74 74 74 73 72 73 74 73 74 74 74 74 73 72 73 75 77 77 77 76 79 83 84 85 85 83 82 83 82 81 81 81 81 81 79 79 79 80 79
67 67 67 67 67 67 68 69 68 68 68 68 69 69 69 69 70 71 71 71 72 73 74 74 74 73 73 73 72 73 73 73 74 73 73 73 73 73 73 74 75 78 78 78 78 77 78 79 81 84 83 82 82 81 82 82 83 80 76 77 80 79 81
67 67 67 68 67 68 68 69 69 70 69 69 69 69 70 69 70 70 71 72 72 71 72 73 72 74 74 73 73 73 73 73 73 73 73 73 73 74 74 75 76 76 77 77 78 77 76 77 80 82 84 83 83 82 83 84 85 76 70 71 74 81 79
66 66 67 67 66 68 68 69 68 68 69 70 70 70 70 70 71 71 71 72 71 71 71 71 71 69 70 71 73 73 73 73 74 73 73 73 73 74 74 74 75 76 77 78 78 78 78 78 78 78 81 83 83 83 83 83 79 72 69 70 69 75 81
65 66 66 66 67 66 67 68 66 66 67 67 68 69 70 72 72 71 71 71 72 72 70 70 70 70 70 70 71 71 72 73 74 73 73 73 74 73 73 73 74 74 75 76 77 77 76 75 75 75 77 80 80 82 83 83 76 70 69 68 68 68 76
65 65 64 63 64 64 66 67 68 67 66 66 68 69 70 71 71 71 72 71 71 71 70 69 69 69 70 70 70 71 71 72 73 73 73 74 74 73 73 73 73 73 74 75 75 74 74 76 76 75 73 75 77 79 82 82 77 69 67 67 67 67 70
63 63 63 63 63 63 62 64 65 66 66 68 69 69 70 69 69 70 71 71 70 70 69 69 69 69 69 69 70 70 70 71 72 73 73 74 73 72 72 72 73 73 73 73 73 73 73 74 74 74 74 76 76 76 76 83 75 68 64 63 64 65 67
65 65 64 64 64 63 63 63 64 65 65 68 68 68 69 68 69 69 69 70 70 70 70 69 68 68 69 69 70 70 70 71 71 72 73 73 73 73 73 73 72 72 73 74 73 73 73 73 73 73 73 74 74 75 74 77 63 64 63 62 62 64 69
67 65 65 66 67 66 65 66 66 67 66 65 67 66 67 67 67 66 67 67 67 66 66 66 67 68 69 69 70 71 71 71 71 71 71 71 71 71 72 72 72 73 73 73 72 73 72 73 73 73 73 73 73 73 73 76 65 61 59 58 60 63 69
67 67 67 67 67 67 67 67 69 69 68 68 67 66 66 66 66 65 65 65 65 66 66 65 65 66 67 68 69 70 70 70 71 70 70 70 70 70 70 71 72 72 74 73 73 72 72 73 73 73 73 73 73 74 73 75 67 61 59 58 59 66 69
65 66 66 66 66 65 66 66 67 68 67 67 67 67 67 66 65 66 64 64 64 65 64 64 65 66 66 67 67 68 69 70 70 70 70 70 70 70 70 70 71 72 73 72 72 72 73 74 73 73 73 74 74 76 74 74 69 58 57 57 56 65 70
63 63 64 65 66 65 65 65 66 66 65 65 64 67 67 67 66 66 65 64 64 64 64 64 64 65 66 66 66 67 68 69 69 70 69 69 70 69 69 71 71 70 71 71 72 72 73 73 73 73 73 74 74 75 75 74 74 64 55 55 55 60 69
63 63 62 64 64 66 64 64 64 64 65 63 64 67 67 66 65 63 64 63 63 63 64 64 64 65 65 65 65 66 66 67 67 68 69 69 68 70 70 70 69 70 70 71 71 72 72 72 73 73 73 73 74 75 75 76 75 66 54 53 55 57 63
63 63 64 64 66 65 63 63 63 64 64 64 65 66 66 64 63 62 62 62 62 63 65 65 64 64 64 65 64 66 66 66 67 68 69 69 69 68 68 68 69 70 70 70 69 70 70 71 71 71 71 72 74 74 74 77 76 72 58 53 52 53 56
60 60 60 60 61 64 64 61 61 62 62 64 64 64 64 63 62 62 62 61 61 63 64 65 64 64 64 65 65 65 66 66 67 68 68 69 69 68 67 67 67 69 70 68 68 68 68 68 69 70 70 71 72 73 74 74 74 69 70 57 51 52 52
59 60 60 62 62 62 62 60 60 61 62 62 62 62 62 61 60 62 61 59 61 62 63 63 63 63 64 65 64 64 65 66 67 66 66 67 67 66 66 66 67 68 69 68 68 66 65 65 68 68 69 69 70 71 72 73 73 71 67 68 62 56 53
59 59 60 59 60 61 60 59 58 59 60 61 61 61 60 60 59 61 60 60 62 62 61 63 63 63 63 62 63 64 65 65 65 66 66 66 65 66 66 67 67 67 68 68 67 66 65 65 68 68 69 69 69 69 70 71 72 72 70 66 64 59 56
58 58 59 59 58 60 59 59 59 58 58 59 60 60 60 60 59 59 59 60 62 62 61 62 62 62 62 62 62 63 64 64 65 67 67 67 67 67 66 67 67 67 67 67 66 66 66 67 70 70 70 70 70 70 70 71 70 71 72 72 71 68 60
56 57 57 57 58 59 57 56 56 56 57 57 58 58 60 60 60 60 59 61 62 62 60 61 61 61 61 60 61 62 63 63 65 66 67 67 67 67 67 67 67 67 67 67 67 67 68 69 70 70 70 70 70 70 70 70 69 69 71 71 71 71 71
54 54 54 55 56 56 55 55 54 55 55 56 56 57 58 59 59 60 60 61 62 61 60 61 61 60 59 60 60 61 62 62 67 65 63 65 65 65 66 66 67 65 65 65 66 66 66 68 67 66 68 68 68 69 68 68 68 68 67 69 70 71 70
53 54 54 54 55 55 53 54 55 55 55 55 55 55 56 57 58 59 58 59 60 59 59 60 61 60 59 59 58 59 63 62 62 62 62 63 64 64 64 64 66 64 65 66 67 67 68 66 65 67 67 67 67 67 66 67 67 68 63 68 60 63 68
53 54 53 54 55 54 55 56 54 54 55 54 54 55 56 57 57 58 59 59 59 58 58 60 59 58 58 59 59 60 61 61 61 61 62 62 62 62 64 67 61 59 62 64 67 62 55 56 63 67 66 66 67 68 67 67 69 62 54 50 48 48 47
53 52 53 53 52 52 52 53 56 54 55 54 55 56 56 56 57 57 58 59 59 58 57 56 57 59 57 59 59 60 63 61 59 60 59 59 60 61 61 62 64 56 54 55 58 55 51 48 46 46 50 59 65 66 61 60 55 50 48 47 45 43 43
54 53 54 52 52 53 53 53 54 54 55 53 55 54 54 55 56 56 58 59 59 58 56 56 56 56 56 57 57 60 61 59 59 60 59 59 59 59 60 60 60 62 56 53 50 51 49 48 46 44 44 46 51 59 63 59 55 51 49 47 44 44 43

ECMWFFLT1_sfc_temp_099.txt.gz
Temp
75 75 74 73 73 74 73 73 75 77 77 77 78 79 79 79 77 77 76 75 75 74 75 75 75 76 76 75 76 76 76 76 76 76 76 76 77 76 75 75 76 76 76 76 76 76 77 77 77 78 77 77 77 76 76 76 76 78 76 76 76 76 75
73 74 74 73 72 73 74 74 73 76 77 77 78 78 79 79 77 77 76 76 76 75 75 76 76 75 76 76 76 75 76 76 76 77 77 76 77 76 77 76 76 76 76 76 76 77 77 77 78 77 77 77 77 76 77 77 76 76 76 75 76 75 75
72 73 74 74 72 73 74 74 72 73 76 78 78 79 79 78 78 77 77 76 76 76 76 76 76 76 76 76 75 75 76 76 76 76 76 76 76 77 77 77 77 77 77 77 77 77 78 78 77 77 78 77 78 77 77 77 76 76 76 75 76 76 74
72 73 74 74 74 74 74 74 72 72 73 76 76 76 77 77 78 78 78 77 77 76 75 76 77 77 77 76 76 76 76 76 77 77 77 77 77 77 76 76 76 77 76 77 78 79 80 78 77 77 79 77 77 77 77 77 77 76 76 75 75 75 75
71 73 72 72 71 70 70 69 70 71 71 72 73 73 74 77 78 79 78 79 79 78 78 78 79 79 78 78 78 78 77 77 76 77 77 77 77 77 77 77 76 77 77 78 77 78 77 78 78 77 77 77 77 77 77 77 77 77 76 76 75 75 75
67 67 68 68 67 68 69 70 71 71 71 72 72 72 73 75 77 78 78 78 77 78 77 77 78 78 78 78 79 79 77 77 77 77 77 77 77 77 77 77 77 77 77 77 78 78 78 78 78 78 78 78 78 78 77 77 77 77 76 76 76 76 76
67 68 68 68 68 68 69 70 71 71 72 73 73 73 73 73 75 76 76 76 76 76 76 76 77 77 78 78 78 78 77 77 76 76 77 77 77 77 77 77 78 78 78 77 77 78 78 77 78 78 78 79 78 78 77 77 77 77 76 76 75 75 75
66 67 69 70 70 70 69 69 69 70 71 72 72 71 71 72 72 73 74 75 77 77 76 76 76 76 76 77 79 78 78 78 77 77 76 77 76 77 77 77 77 78 77 78 78 78 79 78 79 78 78 79 78 78 78 77 77 77 76 76 75 75 76
66 66 66 67 68 69 69 69 70 70 70 70 70 70 71 71 72 73 74 74 74 75 75 77 77 77 77 76 77 78 78 79 78 77 76 77 77 77 78 78 78 78 78 78 79 78 79 79 79 78 78 78 78 77 77 77 77 77 76 76 76 75 76
65 66 66 66 67 67 68 69 69 69 69 70 70 70 71 72 72 73 74 74 74 74 75 75 76 76 76 76 76 76 77 77 77 78 77 77 78 78 78 79 79 78 78 79 79 79 78 78 79 78 77 78 77 77 77 77 77 77 77 76 76 76 75
65 66 67 67 67 67 67 68 68 68 69 69 70 71 71 72 72 72 73 74 74 74 75 75 74 74 75 75 75 75 75 77 78 78 78 78 79 79 79 80 80 79 79 79 79 79 79 78 78 77 77 78 78 77 77 77 77 76 77 77 77 77 76
66 67 66 66 66 66 66 66 67 68 68 69 70 70 70 71 72 72 72 73 74 74 74 74 74 74 74 75 75 74 74 75 76 76 77 79 79 80 80 81 80 80 79 79 79 79 80 79 78 78 77 77 78 78 78 77 77 77 77 77 77 77 77
66 66 66 66 66 65 67 67 66 67 68 69 70 71 71 71 71 71 71 72 73 74 74 73 74 74 74 74 74 73 74 74 74 74 76 77 78 79 79 79 80 81 81 80 80 80 80 80 78 78 78 78 78 78 78 78 77 77 76 77 77 77 76
66 66 67 67 66 65 65 66 67 67 67 69 70 70 70 70 70 70 70 71 72 73 73 73 73 73 73 73 72 72 73 73 74 73 74 75 74 75 76 77 77 78 79 79 80 81 81 81 80 79 78 78 78 79 79 78 78 77 76 77 77 77 76
65 65 65 64 66 65 64 65 66 67 67 68 68 68 68 69 69 70 71 72 72 73 73 73 72 72 71 72 71 71 71 71 71 71 72 73 72 72 73 74 74 74 74 76 79 82 81 82 81 79 78 78 78 78 79 79 79 79 78 77 76 77 77
64 64 64 64 64 65 65 66 66 66 67 67 68 68 68 68 69 70 70 70 72 72 73 72 72 72 71 72 72 71 72 72 72 72 72 71 71 72 72 73 73 75 73 73 74 76 78 79 79 80 79 78 78 78 79 79 80 79 74 76 79 77 78
64 64 64 64 64 64 65 66 66 66 66 66 67 68 68 68 69 70 70 70 70 70 71 73 72 72 71 71 72 72 72 72 72 72 71 71 71 71 71 73 74 73 73 73 74 73 73 75 78 79 80 79 79 78 79 81 82 75 69 69 72 79 77
64 64 64 63 63 64 64 65 66 66 67 67 68 68 68 68 68 68 68 69 69 70 70 70 70 71 71 72 73 72 72 72 72 72 72 72 72 72 71 71 72 74 73 74 75 74 75 75 75 76 78 80 79 79 80 80 77 71 68 68 68 72 79
64 64 63 64 64 64 65 66 66 66 66 67 67 67 68 68 68 68 68 68 69 70 69 69 69 69 69 70 70 71 71 72 72 72 72 72 72 72 71 71 72 72 72 74 75 75 74 75 75 75 74 76 76 78 80 80 74 69 67 67 67 67 73
64 63 63 63 64 64 64 65 66 67 67 67 68 68 68 69 68 68 69 69 69 68 68 68 68 69 69 69 69 70 70 71 72 72 72 72 72 72 72 72 71 71 72 73 72 72 73 74 74 74 73 73 73 74 76 77 75 68 66 65 65 66 68
64 63 63 63 63 63 63 64 65 65 66 67 67 68 69 68 68 69 69 69 68 68 67 68 68 68 69 69 69 70 70 70 70 71 72 73 73 73 72 71 71 71 71 72 72 72 72 72 73 73 73 74 73 72 73 78 69 66 64 63 63 65 66
64 64 63 63 63 63 63 64 63 63 63 66 66 66 67 66 68 68 67 68 67 68 67 67 67 67 68 68 69 69 69 69 70 70 70 70 70 70 70 70 71 70 71 72 72 72 72 72 72 72 72 72 72 74 73 75 62 66 64 62 62 63 69
64 63 63 63 64 63 64 65 64 65 64 63 64 63 63 64 65 65 65 65 65 65 65 65 65 65 66 67 68 69 69 69 69 70 70 69 69 70 70 70 71 71 72 71 71 72 72 71 72 72 72 72 73 73 73 74 64 60 62 60 59 63 69
63 64 64 63 63 64 63 64 65 65 64 64 64 63 63 64 64 63 63 63 63 63 63 63 63 63 64 65 67 68 68 68 68 68 69 69 69 68 69 69 70 71 73 71 70 71 71 72 72 72 72 72 72 73 73 74 68 58 58 58 57 65 69
62 63 63 63 63 62 63 63 63 64 63 63 62 63 64 64 64 63 62 62 62 62 61 61 62 62 62 63 65 66 67 67 68 68 68 68 68 68 68 68 69 70 71 72 72 71 71 72 72 73 72 73 73 74 73 73 71 58 55 55 56 65 70
60 61 62 63 63 63 62 62 62 61 61 61 60 63 63 64 63 63 62 61 61 61 60 60 61 62 63 63 64 64 65 66 67 68 68 67 67 68 68 69 69 69 70 71 71 71 72 72 72 72 73 73 73 74 73 73 73 69 56 54 54 59 71
62 62 62 62 63 64 62 61 61 60 60 59 60 62 63 63 62 60 61 61 60 60 60 60 61 62 62 63 63 63 63 64 65 65 66 67 67 68 68 69 67 68 68 69 70 70 70 71 71 72 72 72 73 73 73 75 74 71 58 53 53 54 61
62 62 64 64 64 62 60 60 60 60 61 60 61 62 61 61 60 59 59 58 58 59 60 61 61 61 62 62 62 63 63 63 64 65 65 66 66 65 66 67 68 68 68 68 68 68 68 69 69 70 70 71 71 72 72 74 75 74 61 54 53 52 52
59 59 59 59 59 61 61 58 58 59 59 60 60 60 60 61 59 59 59 57 57 59 60 61 61 61 61 62 61 62 62 62 63 64 65 65 65 64 64 65 66 67 67 67 68 67 67 66 67 68 69 70 70 71 71 72 74 70 70 60 54 53 52
59 59 59 60 60 59 59 57 58 58 58 59 59 58 58 58 58 59 58 56 57 58 60 60 60 60 60 61 60 61 61 62 63 63 63 64 63 63 63 64 65 66 67 67 67 66 65 65 65 67 68 69 70 71 71 72 72 71 69 67 57 52 51
57 57 57 57 58 59 58 57 56 57 57 57 57 57 57 57 57 58 56 56 58 58 58 59 60 60 59 59 59 60 60 61 61 62 62 63 62 62 62 63 64 63 64 66 65 65 65 65 66 68 69 69 70 69 70 70 71 72 71 66 65 61 57
54 55 56 56 56 57 56 56 56 56 56 55 56 56 57 56 56 56 55 56 58 57 58 59 59 60 59 58 59 58 59 60 61 62 62 62 62 62 62 63 63 62 63 63 63 64 65 66 67 68 68 68 68 69 69 70 70 70 69 70 70 68 63
53 54 54 54 54 56 55 54 54 54 55 54 53 54 56 55 56 56 56 56 57 58 57 58 59 59 57 56 58 58 57 58 61 61 61 61 61 61 62 62 62 62 62 62 61 62 63 64 65 64 65 65 66 67 69 69 69 68 67 68 68 68 69
51 52 51 52 53 53 51 52 52 53 53 53 52 53 54 54 55 55 55 57 57 56 56 58 58 56 55 56 57 58 59 58 65 62 58 59 60 59 60 60 62 61 60 61 62 61 62 62 62 62 63 62 63 64 66 67 67 67 67 67 67 68 68
51 52 51 52 52 52 51 52 52 52 53 52 52 52 53 53 54 55 55 56 56 55 56 57 58 56 55 55 55 56 61 60 58 57 57 57 58 58 58 59 60 59 60 61 62 62 61 60 61 64 63 62 61 62 63 65 65 67 58 58 53 58 61
51 51 51 51 51 51 53 53 52 53 53 51 51 52 53 53 54 54 56 56 56 55 56 56 56 55 54 55 55 56 59 60 57 57 57 57 56 57 58 64 60 57 58 59 63 59 55 54 59 61 60 59 61 63 63 63 66 58 46 44 45 44 45
51 50 50 50 51 50 51 52 54 53 53 51 53 53 53 54 53 54 55 56 56 55 54 54 55 55 53 56 55 58 60 58 57 57 56 56 55 56 56 57 58 54 53 54 58 54 49 47 48 48 50 57 61 62 58 56 52 47 44 44 44 44 44
51 51 51 50 51 51 52 52 52 52 52 51 52 52 52 53 53 53 55 55 55 55 54 54 54 52 52 53 55 58 58 56 57 58 57 55 55 56 55 54 55 57 54 52 52 52 50 48 47 47 45 46 49 56 61 58 54 48 44 43 43 44 43

ECMWFFLT1_sfc_temp_102.txt.gz
Temp
73 72 72 71 71 71 73 75 75 75 75 75 76 77 78 77 76 76 75 74 74 74 74 75 75 75 75 75 75 75 76 76 76 76 76 76 76 76 76 76 77 76 77 77 77 77 78 78 79 79 79 79 79 78 78 79 79 79 78 78 78 78 78
72 72 72 72 71 72 72 74 75 75 75 76 77 76 78 77 76 76 75 75 75 75 75 75 75 75 76 75 76 75 75 76 76 77 77 76 77 76 77 76 77 76 76 77 77 77 78 79 79 79 79 79 79 79 79 79 79 79 79 78 78 78 78
73 71 73 72 72 72 72 73 73 75 76 76 77 77 77 76 76 76 76 75 75 75 75 75 76 75 76 75 75 75 76 76 76 77 76 77 77 78 77 77 77 77 78 78 78 78 79 79 78 79 79 79 80 79 78 79 79 78 78 78 79 79 77
73 74 74 73 72 71 72 72 73 74 76 77 76 77 77 76 77 77 77 76 76 75 74 75 76 76 76 75 75 75 75 76 77 77 78 78 77 78 77 77 77 78 77 78 79 79 80 79 79 78 80 79 79 79 79 79 79 79 79 78 78 78 78
72 73 69 68 70 70 70 70 71 72 74 76 76 76 77 77 77 77 77 77 78 76 77 77 77 77 77 77 77 77 76 77 76 77 78 78 78 77 77 78 77 78 78 79 78 78 78 78 79 78 78 78 79 79 79 79 79 78 78 78 78 78 78
68 68 67 69 69 69 70 70 71 72 73 73 73 74 75 76 77 77 77 77 76 77 76 76 77 77 77 77 78 78 77 77 77 77 77 77 77 77 77 78 78 78 78 78 79 79 79 79 79 79 79 79 79 79 79 79 79 79 78 78 78 78 78
67 67 67 68 68 68 68 70 71 71 72 72 73 74 75 75 76 76 76 76 76 75 75 75 76 77 77 77 77 77 76 77 76 77 77 78 78 78 77 78 78 79 80 79 78 79 79 78 79 79 79 79 79 80 79 78 78 79 78 78 77 77 77
68 67 67 68 68 69 69 70 71 71 72 72 72 72 73 74 73 74 75 76 76 76 75 75 76 76 76 77 78 78 78 78 77 77 77 78 77 78 78 78 78 78 78 79 79 79 80 79 80 80 79 80 79 79 80 79 78 79 79 78 77 78 79
66 68 68 68 68 69 69 70 70 70 71 71 71 71 72 73 73 73 74 74 75 76 75 76 77 77 77 76 77 77 78 78 78 77 77 78 78 79 79 79 79 79 79 79 80 79 80 80 80 79 79 79 79 78 79 79 79 79 79 78 78 78 78
65 65 67 68 69 69 69 69 69 70 70 70 70 70 71 71 72 74 74 75 75 75 75 75 76 76 76 75 76 77 77 77 77 78 77 78 78 78 79 80 79 79 79 80 80 79 79 79 80 79 78 79 79 78 79 79 79 79 79 78 78 78 78
65 65 66 66 67 67 68 68 69 69 70 70 70 70 70 70 71 72 72 73 74 75 75 75 76 76 76 76 76 75 76 77 78 77 77 78 79 79 80 80 80 79 79 80 80 80 80 79 79 78 78 79 79 79 78 79 79 78 79 79 79 79 79
65 66 66 66 66 66 67 67 68 68 69 69 69 69 69 70 71 71 72 73 74 74 74 74 73 74 75 76 75 75 75 76 76 76 77 78 79 80 80 80 80 80 80 80 80 79 80 80 79 79 78 78 79 79 79 79 79 79 79 80 80 79 79
65 65 65 65 65 66 66 67 67 68 68 69 70 70 70 70 71 72 71 71 72 72 73 73 73 74 74 74 75 75 75 75 75 75 77 77 78 79 79 79 80 80 80 80 80 80 80 81 79 79 79 79 79 80 79 79 79 78 78 79 79 79 79
65 65 65 65 65 65 65 66 66 67 68 69 70 70 70 71 71 71 71 71 72 72 72 73 73 72 72 72 71 71 73 74 74 74 74 75 74 76 77 79 79 79 79 80 79 80 81 81 81 80 80 79 79 79 80 79 79 79 78 79 79 79 79
63 64 64 64 64 65 65 66 66 67 67 68 68 68 68 69 69 70 71 72 72 73 72 72 72 72 72 71 70 71 72 72 73 72 72 73 72 73 74 75 76 77 77 78 80 81 81 82 82 80 79 80 79 79 80 80 80 80 79 79 78 79 79
63 63 64 64 64 65 65 65 66 66 67 67 68 68 68 68 69 69 70 70 71 72 72 72 72 71 71 71 71 71 72 71 72 72 72 72 71 72 72 73 74 75 75 76 77 78 78 79 79 81 81 80 79 79 80 80 81 78 73 75 80 79 80
63 63 63 64 64 64 65 66 66 66 66 66 66 67 67 68 68 69 69 69 70 70 71 72 71 72 71 71 72 72 72 71 72 72 71 71 72 72 72 72 73 73 73 74 75 74 75 77 78 80 81 81 81 80 80 81 82 74 69 68 71 79 79
62 63 63 63 64 64 64 65 65 65 66 66 67 67 67 67 67 68 68 69 69 69 70 71 71 71 71 71 71 71 72 71 72 72 71 71 72 72 72 72 72 71 72 73 74 75 76 75 75 76 78 80 81 81 81 81 76 69 67 67 67 71 79
62 63 63 62 63 63 62 64 65 65 66 66 66 67 67 68 68 67 67 67 68 70 70 69 69 69 69 70 71 71 71 72 72 71 71 71 72 72 72 71 71 72 72 72 73 74 74 74 75 76 77 77 77 79 80 81 74 68 66 66 66 66 72
63 63 62 62 63 62 63 64 65 65 65 66 67 68 68 68 67 67 68 68 68 68 68 69 69 68 69 69 70 70 70 70 71 71 71 72 72 71 71 71 71 72 72 73 72 73 73 74 74 75 75 76 76 76 78 79 75 68 65 64 64 65 67
62 62 62 62 62 62 62 63 64 64 64 65 66 66 67 66 67 66 66 66 66 66 65 66 67 67 67 68 68 69 69 70 69 68 69 70 71 71 71 71 72 72 72 72 72 72 73 74 74 75 75 76 77 76 77 80 72 67 64 62 61 63 66
62 62 61 61 61 62 63 63 63 62 62 65 65 65 66 65 66 66 65 66 66 66 65 65 65 65 66 66 67 67 68 68 69 68 67 68 69 69 69 70 71 71 71 72 73 73 73 73 73 74 75 75 76 76 77 80 67 61 62 61 61 62 70
63 63 62 63 64 63 64 64 64 64 64 63 64 63 63 64 64 63 64 63 64 64 64 64 64 64 64 64 65 65 66 67 67 68 68 68 67 67 68 68 69 71 72 71 72 72 72 73 73 74 74 74 75 74 75 77 70 61 61 61 59 63 71
64 64 64 64 64 64 64 64 65 65 65 64 63 63 63 63 63 62 62 62 62 63 63 62 62 63 63 64 64 65 65 66 66 67 67 67 67 67 67 68 69 69 70 71 71 71 71 71 72 73 74 74 74 75 75 76 73 62 57 58 58 65 73
61 63 64 64 63 62 63 63 64 64 63 63 62 62 63 63 62 62 61 61 62 62 61 61 61 62 62 63 64 65 65 65 66 65 65 65 66 67 67 68 68 69 69 69 70 71 71 72 72 73 74 75 75 75 75 76 74 63 58 57 56 63 72
59 60 61 62 62 62 61 62 62 61 61 60 60 63 63 63 63 62 61 61 61 60 60 60 61 62 63 63 64 64 64 65 65 65 65 65 65 66 67 68 68 67 68 68 69 70 70 71 72 72 72 74 75 75 75 75 76 72 60 56 55 57 67
60 61 61 61 62 63 61 60 60 59 59 59 60 62 63 63 61 59 60 60 59 59 59 60 61 62 62 62 63 63 63 64 64 64 65 65 65 67 67 67 67 67 67 68 69 69 69 70 69 70 71 72 73 73 74 75 75 72 58 56 53 54 61
60 61 62 63 63 61 60 60 59 59 60 59 61 62 62 61 60 59 59 58 58 59 60 61 61 61 62 61 62 63 63 63 64 64 64 65 65 64 65 66 67 67 68 68 68 68 68 68 68 68 70 72 73 73 73 74 74 73 64 59 56 55 55
57 58 58 58 59 61 60 58 58 58 58 59 59 59 61 61 59 58 58 57 57 59 61 61 61 61 61 62 61 62 62 62 63 63 64 64 64 64 63 64 65 66 67 67 68 67 67 66 67 68 70 72 72 72 73 73 74 70 71 60 55 54 55
58 58 59 60 60 59 59 57 57 57 57 58 58 58 59 60 59 59 57 56 58 59 61 61 61 60 61 61 61 61 61 62 62 62 62 63 63 63 62 62 63 64 64 65 65 65 65 66 67 68 68 68 69 71 71 72 72 70 67 65 57 56 53
57 57 58 58 59 60 59 58 56 56 56 56 57 57 57 58 58 58 57 57 59 58 59 60 61 61 59 59 60 60 60 61 61 61 62 62 62 61 62 62 62 62 62 63 63 63 64 64 66 66 66 66 67 67 68 70 71 71 69 65 62 58 57
56 57 58 58 58 59 58 58 57 56 55 55 56 57 57 57 57 56 56 58 59 58 59 60 60 60 58 59 60 59 60 61 62 62 62 62 62 62 62 62 62 61 61 61 62 62 62 62 63 63 64 64 65 66 67 69 70 69 70 71 70 68 63
55 56 56 56 57 57 56 56 56 56 55 55 55 56 56 56 57 56 57 57 58 59 59 61 59 59 58 57 59 59 60 60 63 62 61 61 62 62 62 62 61 61 61 61 60 60 61 61 62 62 62 62 63 65 67 68 68 68 68 67 67 68 69
54 54 55 55 56 55 55 55 54 55 55 54 54 55 56 56 56 56 56 57 57 58 59 60 60 57 56 57 58 60 61 61 63 61 59 60 61 60 61 62 62 61 60 60 61 60 60 60 60 61 62 61 62 63 65 65 66 66 63 64 64 64 64
54 54 53 53 54 55 54 54 54 54 55 54 53 54 54 54 55 56 56 56 57 57 58 58 58 57 56 57 57 59 61 60 59 59 60 59 59 60 59 61 61 60 60 62 63 62 61 60 61 63 62 61 61 62 64 64 65 65 55 57 53 55 59
53 53 53 54 54 54 55 55 54 54 54 52 53 54 54 54 55 55 57 57 56 57 58 58 57 56 56 57 58 59 59 58 59 58 58 59 58 59 60 62 56 56 59 60 62 58 53 52 60 61 60 59 61 63 64 63 65 54 46 46 45 44 45
53 52 52 53 53 53 53 53 55 54 54 53 54 54 54 54 54 55 55 56 56 56 55 56 56 56 56 58 58 59 58 57 58 57 56 57 57 57 58 59 59 51 49 53 56 52 47 47 47 47 50 56 60 62 57 55 52 48 45 43 43 42 42
53 53 53 53 54 53 54 54 54 54 54 53 54 53 53 54 53 54 55 55 55 55 54 54 54 54 54 56 57 58 58 57 57 57 57 56 56 57 57 57 57 58 53 50 50 50 48 46 46 47 47 47 49 56 60 56 53 46 43 43 43 43 42

ECMWFFLT1_sfc_temp_105.txt.gz
Temp
79 76 76 79 80 82 82 82 83 82 82 83 84 85 86 85 84 83 83 82 81 81 82 82 82 82 82 83 83 83 84 84 84 85 85 85 86 85 85 86 86 85 86 86 86 86 86 87 87 87 87 87 87 86 86 86 86 88 87 86 86 86 86
77 76 74 74 78 81 82 83 83 83 82 83 84 84 85 85 83 83 82 82 82 82 82 82 82 82 83 83 84 83 83 84 84 84 85 84 84 85 86 85 85 85 85 86 87 86 87 87 87 87 87 87 87 87 87 87 87 87 87 86 86 85 85
78 77 76 74 73 78 80 83 82 83 83 84 84 85 85 83 84 83 82 82 81 82 83 83 82 83 83 83 83 82 83 84 84 85 85 86 86 88 87 86 86 87 87 87 86 88 88 87 86 87 87 87 89 87 87 87 86 87 86 85 86 87 85
78 77 75 74 73 75 77 79 81 82 84 84 83 85 85 83 85 84 84 83 82 82 81 83 84 84 84 83 83 82 82 83 84 86 88 88 87 87 86 85 85 87 86 87 88 88 90 88 87 86 86 87 87 88 88 87 88 87 87 85 86 86 85
79 79 77 75 73 74 76 77 78 80 82 83 83 83 85 85 85 85 85 85 86 84 85 85 87 86 85 85 85 85 84 84 84 86 87 88 87 87 86 87 87 87 87 89 87 86 86 86 88 87 87 86 87 87 86 87 87 86 86 86 86 86 87
79 77 76 74 73 73 75 76 78 80 80 80 81 82 83 84 85 85 85 85 84 84 84 85 86 85 84 86 86 86 85 84 83 84 86 86 86 87 87 87 88 88 89 88 89 88 87 87 88 88 88 89 89 89 89 88 88 88 87 86 86 87 88
78 77 75 73 74 74 74 75 77 79 80 80 81 82 82 82 82 83 83 83 83 81 82 82 84 85 84 85 85 84 84 85 84 84 86 87 87 87 87 87 87 89 90 89 88 88 88 87 87 87 88 89 88 89 88 86 87 87 87 85 85 86 86
77 77 77 76 73 75 76 76 77 78 78 79 79 80 80 80 81 81 81 82 82 82 82 82 83 83 83 85 85 85 86 86 86 86 85 87 88 87 88 88 87 88 88 88 88 88 89 88 89 88 88 89 88 87 88 87 86 88 88 86 85 86 89
77 77 76 76 75 72 70 71 73 75 74 74 74 76 77 76 77 78 80 81 82 82 81 82 83 83 84 84 84 84 86 87 87 86 86 87 88 89 90 89 89 88 88 89 90 89 89 89 90 87 87 88 87 86 87 86 87 88 87 86 86 86 88
72 74 75 76 76 74 72 71 72 72 72 73 74 75 76 74 74 76 77 79 80 80 81 81 82 83 82 82 83 84 86 85 86 87 88 88 88 89 90 91 90 89 89 90 91 90 88 89 89 88 86 87 86 86 86 86 87 88 88 86 86 86 85
71 72 73 74 75 74 73 71 70 70 71 72 73 74 74 74 75 76 76 76 77 77 78 79 80 81 81 82 82 82 84 86 87 86 87 88 89 89 90 90 91 90 89 90 90 91 90 88 88 86 86 88 87 87 86 87 87 87 88 88 88 87 88
68 70 71 72 73 73 73 73 73 71 71 71 71 72 72 73 73 74 75 76 76 76 76 77 77 79 80 81 81 81 81 83 84 84 86 88 89 89 90 90 90 90 90 90 89 89 90 89 89 88 86 87 87 88 87 87 87 87 87 89 89 88 88
70 70 70 69 70 71 72 70 69 71 72 72 72 72 72 72 72 73 73 73 74 76 76 76 75 76 77 79 81 80 81 82 81 82 86 86 88 89 88 89 89 90 90 90 89 89 90 91 89 88 88 87 88 88 87 87 88 86 86 87 87 87 87
68 69 69 69 69 69 69 69 70 70 72 74 73 74 73 73 74 74 75 74 75 75 76 76 76 75 75 76 77 78 79 81 82 84 84 84 84 85 87 88 88 88 88 88 88 89 90 91 90 90 90 89 89 88 88 87 88 87 86 87 88 88 88
68 67 67 68 69 69 69 68 69 70 71 72 73 72 72 73 73 73 74 75 75 76 75 76 76 75 74 73 73 73 74 75 78 80 81 81 81 82 84 85 86 85 86 86 87 90 90 91 91 90 89 89 88 88 89 90 89 90 88 87 87 87 88
67 67 67 67 67 67 67 67 67 68 69 69 70 71 72 72 73 73 73 74 75 76 77 76 76 75 74 73 73 73 73 73 74 75 77 78 79 80 80 82 83 85 84 85 86 86 86 87 88 89 89 88 88 88 90 89 90 85 78 79 87 88 89
65 65 65 65 65 65 66 66 66 67 67 68 68 68 68 69 70 71 72 72 74 75 76 76 74 75 74 73 75 75 74 73 72 74 74 77 77 76 77 79 80 80 81 82 83 83 82 84 86 87 89 89 89 89 90 91 91 79 71 69 71 83 87
64 64 65 65 65 65 65 65 65 65 65 66 66 67 67 68 70 71 71 71 72 73 74 73 73 74 74 75 76 75 74 73 73 73 74 76 76 74 75 76 77 78 79 80 81 80 83 84 84 85 87 88 88 89 90 91 83 72 69 68 67 72 84
64 65 65 65 64 64 65 65 65 65 65 65 65 65 66 67 68 67 68 69 69 71 71 71 71 71 72 75 75 75 75 75 74 73 73 74 72 70 71 73 75 77 79 79 80 80 79 80 82 83 85 86 85 87 88 90 80 69 67 66 66 65 74
66 65 66 65 65 64 65 66 66 66 66 66 66 66 67 68 67 67 68 69 69 69 69 70 70 70 70 70 71 73 74 74 74 73 72 72 72 70 70 72 74 76 78 79 79 78 78 81 81 82 82 83 84 84 87 88 81 70 66 65 64 64 69
65 66 65 65 65 64 64 65 67 67 66 67 68 68 68 68 69 69 69 69 68 68 67 68 68 68 69 69 70 70 70 70 70 71 72 73 73 72 71 72 74 75 76 76 77 79 78 80 80 81 83 85 85 85 87 90 75 69 66 63 62 63 69
67 68 65 64 64 65 65 65 65 67 67 68 68 67 69 69 71 71 70 71 70 69 68 67 67 67 67 66 68 68 70 71 71 70 70 70 71 71 71 72 73 74 74 74 75 77 78 78 80 81 82 83 85 85 85 88 68 66 64 62 61 63 77
67 67 67 68 69 67 67 67 67 69 69 68 69 67 67 68 69 70 70 69 68 68 67 67 66 66 66 66 67 67 67 68 68 69 70 70 69 68 68 69 70 72 73 73 74 74 76 78 79 79 80 81 82 83 83 87 70 62 61 63 60 69 82
68 68 69 70 70 70 68 67 67 68 70 70 69 69 68 67 67 68 68 67 68 69 68 66 65 66 66 66 67 68 68 68 68 68 68 68 68 69 69 69 69 69 71 72 73 73 75 76 76 77 78 78 81 83 82 85 74 63 61 60 60 71 81
68 69 70 71 71 69 68 67 66 67 67 68 67 68 69 68 67 67 67 68 69 69 68 66 66 66 66 66 67 68 68 69 69 68 69 69 68 68 69 69 70 70 70 71 71 71 74 75 76 76 76 76 77 76 79 82 75 62 59 57 59 69 80
64 64 66 67 68 67 66 67 67 66 65 65 65 69 69 69 68 66 67 68 68 68 67 67 67 68 69 69 69 69 69 69 68 68 69 69 70 69 68 69 70 70 70 70 71 71 71 72 73 75 75 77 77 76 76 75 74 65 55 54 56 60 75
67 67 66 68 67 68 68 68 67 66 66 65 67 69 70 70 68 66 66 67 67 66 67 67 68 68 68 69 69 69 68 68 67 68 67 68 68 69 68 68 69 69 70 70 72 72 71 70 71 72 73 74 74 74 74 75 72 65 54 54 55 58 67
69 68 68 68 67 68 69 69 68 69 69 69 70 71 71 70 67 66 66 67 66 68 70 69 69 69 69 68 68 68 68 68 68 67 67 68 68 67 67 69 70 70 69 70 70 71 71 71 71 71 71 72 72 72 72 74 73 71 58 54 55 57 62
65 66 65 65 66 68 69 68 68 69 69 70 71 71 71 70 66 66 66 65 65 69 69 69 69 69 69 68 68 68 68 68 67 67 69 69 69 68 68 69 69 69 70 69 70 70 70 70 71 71 71 72 71 71 72 72 72 69 69 59 53 53 54
62 65 66 67 68 68 69 67 67 67 68 68 68 69 69 67 65 65 64 64 67 69 69 69 68 68 68 68 68 68 68 69 68 68 68 68 69 68 67 67 68 68 68 68 69 69 69 68 69 70 70 72 72 72 72 72 71 69 68 67 57 55 55
62 62 62 64 64 64 67 67 66 67 66 67 67 67 67 67 65 64 63 64 67 67 68 68 68 68 68 68 68 68 69 69 68 68 68 68 68 67 67 67 68 67 67 68 68 68 68 68 69 68 69 69 70 70 71 72 72 72 70 67 66 61 57
62 63 64 63 62 63 65 66 66 66 65 65 67 66 66 67 67 63 63 66 67 68 68 68 67 66 66 67 68 69 70 70 70 70 69 68 69 68 68 67 67 66 66 67 68 68 67 67 68 68 69 69 70 70 71 72 72 71 71 70 69 68 63
62 63 63 61 60 60 60 63 62 64 64 63 65 67 67 66 67 65 65 66 68 68 67 67 66 65 66 66 68 68 68 68 70 70 70 69 70 69 69 68 67 67 65 66 67 67 67 67 67 67 68 68 69 70 71 70 70 71 70 71 70 70 70
61 62 63 62 60 60 59 59 60 61 62 61 63 64 65 65 66 66 66 67 68 68 67 65 65 66 66 67 67 68 68 67 66 67 69 68 68 68 68 69 69 68 65 65 65 66 67 68 67 67 68 68 69 69 69 70 71 71 68 68 69 69 69
61 61 62 62 61 60 59 59 58 58 58 58 60 62 62 63 65 65 65 65 66 66 65 64 64 65 65 65 66 65 66 67 67 67 68 68 68 68 66 66 67 66 67 67 66 65 66 67 68 68 69 69 68 68 68 69 69 68 57 57 52 55 61
60 60 60 61 61 61 61 60 59 58 57 57 58 58 59 60 61 63 65 65 65 66 65 64 64 64 65 65 66 66 66 66 67 66 66 69 68 68 68 62 55 60 66 66 62 55 50 51 63 63 65 66 68 69 67 68 68 53 45 44 43 43 44
58 59 60 60 60 61 61 61 61 59 58 59 60 60 60 59 60 60 61 62 64 64 64 63 63 63 64 65 65 64 65 66 66 66 65 65 66 67 66 68 64 48 49 56 58 52 46 45 46 46 50 58 66 66 57 56 50 45 44 42 43 42 41
59 58 60 61 62 61 61 61 61 60 60 60 61 61 61 61 61 60 61 61 62 63 62 62 62 61 62 63 63 63 64 65 64 64 65 65 65 65 65 65 65 66 54 50 53 52 47 46 47 46 46 47 49 58 66 58 50 43 42 42 41 41 40

ECMWFFLT1_sfc_temp_108.txt.gz
Temp
82 78 80 85 86 88 88 89 89 90 89 90 90 92 93 93 92 91 90 89 88 87 87 87 87 87 87 88 88 88 89 89 89 90 90 90 91 90 90 92 91 90 92 92 91 91 91 91 91 92 91 90 91 90 89 89 89 91 90 88 89 89 89
83 82 83 85 87 88 89 90 90 90 90 90 91 91 93 93 92 91 90 89 88 88 88 88 87 88 88 88 89 88 88 88 89 89 91 90 90 89 91 90 91 89 89 91 91 91 91 92 92 91 91 91 91 90 90 90 89 89 91 89 89 89 89
83 82 84 85 85 89 89 91 90 90 90 92 92 93 92 91 91 90 89 90 88 89 90 89 88 89 89 88 88 88 89 89 89 90 90 92 91 94 92 90 90 92 93 92 91 93 93 93 91 91 91 91 93 90 90 90 89 90 89 88 89 90 88
80 83 83 85 83 87 89 89 90 91 92 91 91 93 92 90 92 91 91 91 90 89 88 90 90 90 90 89 88 88 88 89 89 91 92 93 93 93 92 91 90 92 92 92 94 93 96 93 92 91 90 90 90 92 91 91 92 90 90 88 89 89 88
83 83 82 80 84 86 88 88 89 89 90 90 90 91 93 92 92 93 92 93 95 92 93 93 95 93 92 92 92 92 90 90 90 91 92 93 92 93 92 93 93 93 92 94 92 91 90 91 93 92 91 89 91 91 90 90 91 89 89 89 89 90 90
83 81 78 78 80 79 83 86 86 86 87 88 88 89 91 91 92 93 92 92 92 92 92 92 94 93 92 93 93 93 92 90 89 89 90 91 91 93 93 92 94 93 94 92 94 93 92 92 93 93 93 94 93 94 93 92 93 93 90 89 90 91 91
84 83 80 81 81 82 83 83 84 83 86 88 88 89 90 90 89 90 89 90 90 88 88 90 92 94 92 93 92 92 91 92 91 91 92 92 93 92 92 92 92 94 95 94 93 94 93 92 92 92 93 94 92 94 92 90 91 92 91 89 88 89 89
87 85 84 83 84 82 80 79 80 83 85 87 87 87 87 87 87 88 87 89 89 88 88 88 90 91 90 92 93 93 93 93 94 92 92 93 93 93 93 94 92 93 93 94 93 94 94 93 94 94 93 94 93 92 93 90 89 93 93 90 89 90 94
87 85 83 83 83 81 79 77 76 79 81 83 84 85 86 86 86 86 87 87 88 87 87 88 90 90 90 90 91 91 93 93 94 93 93 93 94 95 96 96 95 94 93 94 95 94 94 95 95 92 92 92 92 90 92 90 91 92 92 91 89 89 92
82 82 82 82 83 82 79 76 75 74 73 77 80 82 84 84 85 86 86 86 87 86 87 88 88 89 88 87 88 91 93 92 92 95 94 94 94 94 96 97 97 95 95 95 97 96 94 95 94 93 90 91 90 90 91 90 92 92 93 91 91 90 89
81 81 81 81 81 80 78 77 74 73 73 72 73 77 78 78 81 83 84 86 86 87 87 87 88 87 87 87 87 88 90 93 94 93 93 94 96 96 96 97 98 96 95 96 96 97 96 93 94 92 91 93 92 91 90 91 91 91 93 93 93 92 92
78 79 80 79 80 80 78 77 75 73 73 73 74 75 75 75 78 79 79 82 84 85 85 86 87 87 88 87 87 86 87 90 92 92 93 94 95 96 96 96 97 97 96 96 95 95 96 95 95 94 91 91 92 92 91 91 91 90 91 94 94 93 93
76 76 77 78 79 79 79 78 77 75 73 73 73 74 74 74 75 75 76 78 81 83 84 84 84 84 85 86 87 87 87 89 89 90 93 92 93 95 95 96 97 96 96 96 95 95 96 97 94 94 94 92 93 93 92 91 92 90 90 91 92 92 92
72 74 74 73 72 74 75 77 78 76 75 74 72 73 73 74 74 75 75 76 78 79 79 79 80 81 82 83 84 86 88 89 90 91 90 90 90 91 94 95 95 94 94 95 94 95 95 96 96 96 95 94 94 93 93 92 92 91 90 91 92 93 92
72 73 73 73 72 74 76 75 75 77 76 76 76 75 74 73 74 74 74 75 76 77 78 80 79 78 77 78 78 78 81 84 86 87 88 88 88 87 89 91 92 92 92 92 93 96 96 96 97 96 95 95 94 93 95 96 95 95 92 90 90 92 93
73 73 72 71 71 71 72 73 74 75 76 75 75 74 75 75 75 75 75 75 76 76 77 78 79 78 77 76 77 78 78 78 80 83 85 85 85 85 86 89 90 93 92 91 91 91 91 92 94 96 96 95 94 94 96 96 97 91 84 86 91 92 95
71 70 69 70 70 71 72 73 73 73 73 74 75 76 76 75 75 75 76 77 78 77 76 76 76 76 76 75 76 76 76 76 76 77 78 80 82 83 83 84 87 88 88 89 89 88 88 90 92 94 95 95 95 95 96 97 98 79 74 75 77 88 91
69 69 68 68 68 69 69 70 70 71 71 71 71 71 73 73 74 75 75 77 78 78 77 75 75 75 76 77 77 77 77 77 77 78 78 78 78 80 81 81 83 84 85 87 89 87 89 89 89 90 93 95 96 96 97 97 83 71 71 72 71 77 89
69 68 67 67 67 68 68 69 69 70 71 71 72 70 69 70 69 68 72 74 76 78 77 76 75 76 77 78 79 80 80 79 79 79 79 80 80 79 79 78 80 82 84 85 88 89 86 86 88 88 89 91 91 93 95 98 73 71 69 70 68 68 79
70 68 68 68 69 69 69 69 69 68 68 68 69 69 69 69 68 69 72 72 73 73 74 74 74 74 75 77 77 78 79 80 80 80 80 80 79 78 78 77 78 80 82 85 85 84 86 88 87 88 86 87 88 88 92 95 76 69 67 68 65 66 72
70 69 68 67 67 68 69 69 68 67 69 71 70 70 70 69 70 70 71 71 71 72 72 73 73 73 74 74 75 76 76 76 78 78 79 79 78 77 76 76 77 78 81 83 83 83 83 86 87 87 88 88 89 89 90 96 70 67 66 65 64 65 71
71 71 70 70 68 67 69 71 70 70 69 72 75 73 75 73 73 71 69 70 69 70 70 71 71 71 71 71 72 73 75 76 76 76 78 78 77 75 75 74 75 75 76 78 81 83 84 84 87 88 88 89 89 90 89 86 63 65 64 64 64 64 82
72 71 72 72 73 71 70 71 73 74 75 74 76 75 75 76 74 72 70 70 69 68 69 70 69 70 71 72 73 73 73 73 73 73 74 74 72 72 73 73 73 73 74 75 76 78 80 83 86 86 88 89 88 89 89 84 66 60 61 61 61 70 86
70 71 72 73 73 73 72 72 74 76 77 76 76 76 75 75 75 75 73 74 73 71 71 71 69 70 70 71 74 75 76 75 75 73 73 72 72 73 73 72 71 72 74 75 75 74 76 79 80 83 85 86 87 88 87 81 70 60 59 60 60 74 86
70 72 72 72 72 71 71 70 71 73 75 76 75 75 75 75 75 75 75 75 76 76 73 71 71 71 70 70 72 75 77 78 77 76 75 73 71 71 70 71 70 71 72 72 72 73 74 75 76 78 79 82 84 79 79 82 73 58 59 59 61 73 85
68 72 72 73 72 71 69 70 71 72 73 73 73 76 76 76 75 73 73 75 76 75 73 72 72 74 74 73 73 74 75 77 77 76 76 75 73 72 70 71 71 71 71 71 71 71 71 72 73 76 77 80 80 81 80 76 75 65 55 57 60 62 77
72 73 72 72 71 71 71 72 72 71 71 71 72 76 76 76 73 71 72 73 73 72 73 72 73 73 73 74 74 75 74 75 76 76 75 75 75 74 74 73 71 72 71 71 71 71 70 71 72 72 72 73 73 73 73 73 72 67 54 55 56 58 67
68 70 72 72 71 71 71 71 70 71 72 73 74 75 75 73 69 69 70 72 72 74 76 74 73 74 74 73 72 73 73 73 74 76 77 76 76 74 74 74 75 74 73 72 72 72 72 71 70 70 70 71 71 72 72 74 74 73 61 55 54 56 58
64 66 67 68 70 72 72 71 71 72 72 74 75 75 75 73 69 69 69 69 70 74 74 74 74 73 73 72 72 73 73 73 74 75 76 76 76 75 74 74 74 74 74 74 74 74 73 73 73 73 73 73 73 72 72 71 70 68 70 60 55 54 56
65 63 68 72 72 72 73 71 72 72 73 73 72 72 72 71 68 68 67 67 71 73 74 74 74 74 73 73 72 73 73 74 75 75 75 75 75 75 74 74 74 73 74 75 75 74 74 74 75 76 76 75 75 75 72 72 70 69 68 67 59 56 54
68 67 63 63 66 69 72 73 71 72 71 71 71 71 70 71 69 68 66 69 72 72 72 73 74 74 74 74 74 74 75 75 75 75 75 76 76 74 74 73 74 73 74 74 73 73 73 74 77 76 76 75 75 74 73 74 75 74 71 67 67 60 59
68 68 67 66 65 67 68 69 72 71 70 70 71 71 70 71 71 67 68 71 72 73 73 72 72 71 72 73 74 75 77 77 78 77 76 76 77 76 75 75 74 73 73 74 74 73 73 73 75 76 76 76 76 76 76 76 76 76 76 75 74 71 63
68 69 68 66 64 64 65 67 67 67 68 67 70 73 73 72 72 71 71 71 74 73 71 72 71 70 71 72 74 74 74 74 77 78 78 77 78 77 76 76 75 74 73 74 74 74 73 74 74 75 75 75 76 76 77 77 76 74 74 74 75 77 77
68 69 69 68 66 68 67 65 63 63 63 64 66 69 71 72 72 72 72 74 74 74 71 70 71 72 71 73 73 74 74 74 70 73 76 75 76 76 76 77 77 76 73 73 73 73 74 75 74 73 73 74 75 75 76 76 78 74 70 70 70 71 74
66 67 67 66 66 67 67 67 67 66 65 63 63 65 66 68 70 71 70 71 72 71 70 70 69 69 70 71 71 71 72 73 73 74 76 75 75 73 72 73 74 73 73 71 71 71 72 74 75 74 75 75 73 72 73 75 74 68 54 56 51 55 62
64 65 66 67 67 67 66 66 65 65 64 63 64 64 63 64 66 68 70 71 71 71 69 69 69 70 70 71 72 72 73 73 74 72 73 76 76 75 71 62 56 63 72 71 63 54 48 51 67 66 69 71 73 71 70 70 66 51 45 43 43 42 43
57 58 59 64 66 66 65 65 65 65 64 65 64 62 62 62 63 64 66 68 68 69 68 68 68 69 71 70 70 68 70 73 72 72 70 71 72 73 72 72 65 47 50 59 59 53 46 43 44 47 51 60 72 69 53 52 47 44 43 43 42 41 40
58 57 59 60 63 64 65 65 65 65 64 65 65 64 63 62 62 62 64 65 66 67 67 67 67 67 69 69 69 67 68 71 69 69 70 70 70 70 70 71 71 67 50 47 50 46 44 45 45 45 45 47 50 61 68 56 49 44 43 43 42 42 40

ECMWFFLT1_sfc_temp_114.txt.gz
Temp
81 80 82 85 89 90 90 90 90 90 89 90 92 93 93 93 90 89 88 86 85 85 86 86 86 86 86 87 87 87 87 87 88 87 87 86 86 86 87 88 87 85 87 87 88 87 86 87 88 88 88 87 87 86 86 87 87 88 86 86 85 85 84
82 81 82 82 87 90 91 90 90 91 90 91 91 91 93 93 90 90 87 87 86 86 87 87 86 86 87 87 87 87 86 87 87 87 88 86 87 86 88 87 86 85 86 87 86 88 88 87 87 87 87 88 88 86 88 87 87 87 87 86 87 85 85
83 83 83 83 82 88 89 92 90 91 91 92 92 93 92 90 91 89 88 88 86 86 88 87 87 87 87 87 87 87 87 88 87 89 89 90 90 90 89 88 89 88 89 88 86 89 90 90 88 88 87 88 90 87 87 87 87 88 86 86 87 86 85
83 83 83 83 82 82 89 90 90 91 92 92 92 94 93 90 92 90 90 89 88 87 86 88 89 89 88 87 87 87 87 87 88 90 91 91 91 91 89 89 88 89 88 87 89 90 91 89 90 88 88 88 88 88 88 88 89 88 87 85 86 87 85
81 84 83 81 81 80 83 87 88 88 90 91 90 90 93 93 93 93 91 91 92 89 90 90 91 90 89 89 90 90 88 89 89 90 90 91 90 90 90 91 90 90 88 90 88 86 84 86 89 88 88 87 89 88 88 88 88 87 86 86 85 87 86
81 81 81 81 81 81 81 83 87 89 89 88 89 90 91 91 93 93 91 91 91 89 89 90 91 90 89 90 90 91 89 89 88 88 89 89 88 90 89 90 91 91 90 88 90 89 87 87 88 88 89 90 90 90 90 89 89 89 87 86 86 87 88
80 80 81 82 80 80 81 81 83 87 88 88 90 91 91 91 90 90 89 90 89 86 87 89 91 91 90 91 90 90 89 90 90 90 91 93 90 89 89 89 89 91 92 90 89 90 89 87 88 88 89 90 88 90 88 86 87 87 87 85 85 86 86
82 80 81 82 83 82 82 82 83 83 85 87 87 89 89 87 85 84 87 88 88 87 88 89 91 89 88 90 91 91 91 91 91 91 91 92 92 91 91 90 90 90 90 91 90 90 90 89 91 89 89 89 89 89 89 87 86 90 88 86 85 86 90
84 82 82 83 83 83 82 83 83 82 83 85 85 86 86 85 83 85 86 88 88 89 88 91 92 90 90 90 90 91 92 92 91 91 92 92 93 93 94 94 92 91 90 91 91 91 90 91 91 89 88 88 88 88 88 87 88 89 88 86 86 86 88
79 80 81 80 79 80 82 83 84 82 82 83 84 84 83 82 81 82 82 83 87 87 89 90 90 90 88 88 89 92 93 91 92 93 93 93 93 93 94 95 94 93 92 92 93 92 90 91 90 88 86 87 87 87 87 88 88 89 89 88 87 87 86
79 79 79 77 76 77 78 80 80 81 82 82 81 79 79 78 80 80 80 81 81 84 86 88 88 88 89 90 90 90 91 93 94 93 93 93 94 94 95 95 96 93 92 91 92 92 91 89 90 87 86 88 88 87 87 88 88 88 90 90 89 88 89
78 78 75 73 72 71 71 74 76 76 77 80 80 78 78 78 78 78 76 78 80 80 81 81 87 88 90 88 88 87 88 91 93 93 94 94 95 95 96 96 96 95 93 92 90 89 90 90 90 89 87 87 88 88 88 87 87 87 88 90 91 89 89
76 74 74 75 73 73 73 73 72 73 75 79 80 81 81 81 80 78 77 77 78 79 80 80 84 86 86 85 86 86 87 90 90 92 94 93 94 96 95 96 96 96 95 92 91 90 90 90 89 89 89 88 89 89 87 87 89 86 87 89 88 88 88
73 75 76 74 73 73 73 73 74 73 74 77 78 80 80 81 82 81 79 78 78 78 78 81 84 86 85 84 83 84 87 89 90 92 90 90 89 91 95 96 96 95 94 92 91 91 91 91 91 91 90 89 90 89 89 88 89 87 87 88 89 89 88
72 73 72 74 73 72 72 72 73 73 74 76 77 77 77 78 79 79 79 80 80 79 80 84 85 85 84 84 83 83 85 85 88 88 88 89 89 89 90 92 93 93 92 91 92 93 92 92 91 90 90 90 88 89 90 91 89 89 88 87 88 89 89
67 69 70 71 72 72 71 72 72 74 74 75 75 74 74 76 77 78 78 78 79 80 82 84 83 82 83 84 84 84 85 86 86 84 84 86 87 88 88 90 90 93 93 91 91 89 89 88 89 91 91 89 89 89 91 90 91 88 84 84 88 88 88
67 68 67 66 68 70 71 71 71 73 74 74 73 73 72 73 76 78 78 78 78 79 80 80 80 82 82 82 83 84 84 83 83 83 83 81 81 82 83 83 84 83 80 81 84 85 86 86 84 87 88 90 89 89 89 90 92 83 75 76 81 89 88
66 66 67 67 67 69 70 70 70 70 72 73 75 75 75 75 77 78 77 78 78 79 79 79 78 79 80 81 81 83 83 82 82 82 79 77 79 81 82 82 82 82 82 83 84 80 82 84 84 84 83 86 88 90 90 90 86 76 73 74 76 82 88
68 70 70 68 67 67 68 68 68 68 68 69 70 70 72 76 77 77 78 78 79 79 78 78 77 77 77 79 80 81 81 81 81 81 76 74 75 76 78 80 81 82 82 83 81 78 79 80 83 86 85 84 82 84 89 90 76 71 71 70 72 75 84
69 69 70 70 68 68 67 67 67 68 69 70 71 71 71 72 72 74 76 78 78 78 77 77 77 76 76 78 79 79 79 79 79 80 79 76 76 75 76 77 79 80 81 79 78 76 77 80 80 81 80 82 83 84 84 77 66 62 65 69 70 73 79
69 70 70 69 69 69 69 70 70 69 69 71 70 71 71 71 73 73 75 75 74 74 72 71 71 72 73 74 73 75 76 76 77 77 77 77 78 78 78 78 78 79 78 77 77 78 77 77 79 79 78 80 80 80 79 76 64 63 63 65 68 69 78
70 70 70 70 70 70 70 71 71 72 72 72 73 73 75 74 75 74 73 73 72 72 72 71 71 71 71 71 72 73 73 74 74 74 74 75 75 76 76 76 76 75 75 76 77 78 78 78 78 77 77 77 77 77 78 74 61 62 61 61 62 68 83
73 73 75 74 75 73 74 74 74 74 74 74 76 74 74 75 75 74 72 72 71 71 71 71 70 71 71 71 72 73 74 74 72 71 72 72 73 74 74 73 74 74 74 73 74 74 76 78 78 77 76 76 76 74 73 73 62 60 59 59 62 72 82
74 74 73 73 74 74 74 75 76 76 75 74 74 75 75 75 74 73 72 71 71 71 70 70 70 71 71 72 73 73 73 74 73 72 72 72 72 72 72 72 72 72 74 74 74 73 74 75 74 75 75 76 75 75 73 72 62 57 58 58 60 70 79
74 74 74 74 73 73 73 73 75 78 78 78 77 78 77 75 75 76 74 73 74 73 71 70 70 70 71 72 73 74 74 75 74 74 74 74 74 75 74 73 73 73 73 73 73 73 73 74 73 73 73 74 74 77 73 69 65 57 57 58 59 69 79
71 73 74 75 75 75 74 74 74 73 73 74 75 78 77 78 77 75 74 75 75 73 71 71 70 72 72 73 73 73 73 74 75 75 74 74 75 76 76 76 77 76 76 74 74 73 72 72 72 73 72 73 73 73 70 68 66 63 55 56 59 61 73
71 73 72 73 74 74 73 73 73 73 73 73 75 76 74 74 74 72 73 74 73 72 73 73 73 72 71 73 75 74 73 74 75 74 75 76 75 76 76 77 76 76 75 74 74 73 71 71 70 70 70 71 71 70 70 69 67 63 55 55 56 59 67
71 71 73 74 72 72 73 74 72 72 73 73 74 76 76 74 71 70 70 71 72 73 75 74 73 74 74 72 73 75 75 75 75 77 76 76 76 75 75 77 76 76 75 75 74 73 72 71 70 69 69 70 70 70 69 71 71 68 60 56 55 56 60
65 65 66 68 70 74 73 71 70 71 71 72 73 73 73 73 70 70 70 69 71 75 74 74 74 73 73 72 72 72 72 74 77 77 77 75 74 74 73 74 74 74 74 74 74 72 72 70 70 70 69 69 69 68 68 69 70 69 68 59 55 55 57
65 65 65 66 67 67 69 68 70 71 72 72 71 71 71 70 68 69 69 69 72 74 75 75 74 73 73 73 73 73 73 75 77 77 76 75 74 72 73 73 73 74 74 74 73 72 71 71 71 71 70 68 67 68 68 68 68 70 70 67 58 56 55
68 67 66 65 65 65 64 65 65 66 66 69 71 71 70 70 68 68 68 69 72 71 72 73 74 74 74 73 73 74 74 74 75 76 78 77 76 75 74 75 76 74 75 75 74 74 73 72 72 71 70 70 69 69 70 71 72 73 69 68 63 58 57
69 69 70 69 67 66 65 63 63 65 65 66 69 70 70 71 69 65 66 69 70 71 70 72 73 73 73 74 73 74 76 73 72 73 77 77 79 77 77 77 76 75 75 75 75 74 75 75 76 74 71 71 72 72 72 73 74 73 73 74 74 70 61
68 69 69 68 67 67 67 65 63 61 62 62 64 67 69 69 70 68 67 69 72 72 71 70 71 71 72 73 75 76 76 75 74 74 75 73 71 76 77 77 78 73 71 70 69 72 75 78 76 75 76 75 75 75 73 70 69 68 68 68 69 70 71
68 68 69 69 68 69 68 67 65 63 62 60 62 63 64 65 65 66 67 67 69 70 70 70 71 72 72 73 74 75 76 76 77 76 73 72 71 71 73 74 74 71 69 67 68 69 69 71 76 75 76 76 75 72 69 69 66 63 61 62 60 63 66
69 69 68 68 69 69 68 67 66 64 63 62 62 62 62 62 63 64 65 67 67 66 66 67 70 71 72 73 73 69 73 75 75 73 74 71 69 66 64 67 72 71 69 67 65 66 68 70 69 70 72 71 68 70 69 67 64 61 53 54 50 52 58
69 69 69 71 70 70 69 68 66 65 64 64 64 63 62 62 62 63 64 65 65 66 65 67 70 72 69 69 71 72 73 74 74 73 72 76 72 68 66 58 51 57 70 68 58 48 48 54 62 62 67 68 65 66 66 64 62 51 45 43 43 43 44
69 69 69 70 70 69 68 67 67 66 65 65 65 64 63 63 64 64 65 64 65 64 64 65 65 69 71 68 67 67 70 73 72 72 71 71 73 73 69 68 63 45 46 53 52 47 41 41 43 46 53 65 67 57 52 52 47 43 43 43 43 42 42
71 69 68 68 69 67 67 66 66 65 64 65 65 65 65 65 65 65 67 66 66 65 63 63 63 64 67 70 69 68 68 69 69 71 71 70 71 71 70 68 64 63 47 43 47 46 42 41 42 42 44 48 56 66 62 51 44 40 42 42 43 43 42

ECMWFFLT1_sfc_temp_117.txt.gz
Temp
76 75 75 76 81 83 82 82 84 82 83 82 86 87 87 86 84 83 82 81 80 79 80 81 81 81 80 81 81 80 81 80 81 81 80 80 81 80 81 81 81 80 80 80 80 80 81 83 82 83 82 82 82 81 81 81 80 82 80 79 80 80 79
74 74 76 77 79 83 84 83 83 84 83 83 86 86 87 85 84 83 82 82 81 80 81 81 81 81 81 81 81 80 80 80 81 82 82 81 82 81 82 81 81 80 80 81 81 82 82 83 82 82 82 83 82 81 82 81 80 80 81 80 79 79 79
77 76 75 77 77 81 83 84 84 84 85 85 86 87 86 83 84 83 82 82 81 81 82 82 81 81 82 81 81 80 81 81 81 81 81 82 82 84 84 82 82 81 82 82 82 83 84 83 81 82 82 83 83 82 81 81 81 81 80 80 80 80 78
77 77 77 78 79 77 80 84 84 84 86 86 86 87 84 84 85 84 84 83 82 82 81 82 82 83 82 81 81 80 81 81 82 83 84 84 83 84 83 82 82 83 82 81 84 85 87 83 83 81 84 82 82 82 82 83 83 82 81 80 80 79 79
78 79 79 78 78 78 77 82 84 83 85 85 85 85 84 85 85 85 85 85 85 83 84 84 85 84 84 83 85 84 82 83 82 83 85 85 84 84 83 84 83 84 82 84 83 82 80 83 83 82 82 82 82 82 82 82 82 82 80 80 79 80 79
78 78 78 78 78 77 76 79 83 83 84 83 84 83 84 85 85 85 85 84 84 84 84 85 85 84 83 85 86 85 83 82 82 81 83 83 84 84 84 84 84 84 83 83 83 83 81 82 82 82 83 83 84 84 83 83 83 83 81 80 80 81 81
78 79 79 79 78 77 76 77 82 83 84 83 85 83 84 84 84 84 84 84 84 82 82 83 85 85 84 85 85 84 83 83 83 83 84 84 85 84 84 83 84 85 84 83 83 83 83 82 82 82 83 84 83 84 82 82 82 82 81 80 79 80 79
79 78 80 80 78 77 76 75 77 81 82 83 84 82 83 83 83 83 82 83 83 83 82 83 84 83 83 85 85 84 85 85 85 84 84 85 85 84 84 84 83 84 84 84 83 84 83 83 85 83 83 84 83 83 83 82 80 83 82 81 80 80 84
79 78 78 79 78 74 71 72 71 71 75 81 81 82 82 82 82 82 83 83 82 82 82 84 84 84 84 84 84 84 86 86 85 85 85 86 85 86 86 86 85 85 84 85 85 85 84 84 85 83 83 83 82 81 82 82 83 82 82 81 81 81 83
71 72 71 70 72 72 71 72 72 72 71 76 78 78 80 80 80 81 82 82 82 83 83 84 83 84 83 82 83 85 86 85 86 87 87 87 86 86 87 87 87 86 85 86 85 85 84 85 84 83 82 82 82 81 82 81 82 82 83 81 82 81 80
70 70 70 71 71 71 72 73 73 72 73 75 76 77 77 78 78 79 80 81 81 82 83 84 82 83 83 83 83 84 85 86 87 86 87 87 88 88 89 89 88 87 86 87 86 86 85 83 83 81 81 83 82 81 81 81 82 82 83 83 83 83 83
70 71 69 69 69 69 70 72 73 73 74 75 76 76 76 77 78 77 77 78 79 80 80 81 81 83 84 83 82 82 82 86 86 86 87 88 88 89 89 89 89 87 87 87 86 85 86 85 84 83 81 82 82 82 81 81 81 82 83 84 84 83 84
68 68 68 69 69 69 69 70 72 73 74 75 76 76 76 76 76 76 76 76 77 77 78 76 78 80 82 82 82 82 82 84 84 86 87 87 88 89 89 89 90 89 88 87 87 86 86 85 85 83 83 82 83 83 82 82 83 81 82 83 83 82 82
69 69 68 68 68 68 69 69 70 73 74 75 76 76 75 75 74 74 74 75 75 75 75 76 76 77 79 79 79 79 81 82 82 84 83 85 84 85 87 89 89 89 88 88 87 86 86 86 86 84 84 83 83 83 83 82 83 81 81 82 83 83 81
67 68 68 67 67 66 67 68 69 70 73 74 74 73 73 73 73 73 73 73 74 74 74 75 75 74 76 77 77 78 79 80 81 79 80 82 81 81 82 84 85 85 85 87 86 87 87 87 87 85 84 84 83 84 85 84 84 84 83 82 82 82 82
64 66 67 67 66 67 67 67 68 69 70 69 70 71 72 73 74 75 74 73 73 74 74 74 74 74 73 73 73 71 72 74 77 78 77 77 77 78 79 80 81 81 81 81 84 84 84 85 85 85 84 84 83 84 86 83 79 77 80 83 82 81 83
64 64 64 65 66 68 67 66 67 68 68 69 69 69 69 70 72 73 74 73 73 73 74 74 73 74 73 73 72 71 72 71 71 74 74 74 75 76 77 78 79 78 78 78 78 77 78 78 77 79 80 82 82 80 78 76 76 75 68 71 78 84 80
64 64 65 65 65 67 66 66 66 67 68 68 69 69 70 71 72 71 71 72 72 72 73 73 72 72 73 74 73 72 72 73 74 73 73 73 73 73 73 75 76 76 77 78 77 76 79 79 77 76 79 78 76 77 79 77 76 70 68 68 69 75 80
65 64 64 64 65 65 65 66 66 67 67 68 68 68 69 69 69 69 71 72 72 73 73 73 73 72 73 74 74 72 71 73 73 72 73 73 73 73 72 72 73 75 76 76 76 75 76 77 78 77 78 76 76 76 75 78 74 67 68 67 68 68 76
64 64 65 65 66 66 66 66 66 67 67 67 68 69 69 70 69 69 70 70 71 71 72 72 73 73 73 73 73 73 74 74 73 73 73 74 73 73 72 72 72 73 76 76 75 74 74 77 76 75 75 77 77 76 77 77 67 63 64 66 67 68 72
64 64 64 65 65 66 66 67 67 67 68 68 69 69 69 69 70 70 69 69 69 70 69 69 70 70 70 70 70 71 73 74 74 74 74 73 73 73 73 73 73 75 74 74 74 74 74 74 75 76 77 78 77 77 76 77 65 62 64 63 66 69 75
64 65 65 65 65 65 66 66 67 67 68 70 69 69 70 69 70 69 68 69 69 68 69 69 69 69 70 70 70 71 71 72 72 71 71 71 72 72 72 72 72 72 73 74 74 74 75 76 76 75 75 75 76 76 74 70 59 60 61 61 63 66 75
64 62 63 64 67 67 68 69 69 70 70 69 69 68 68 69 69 68 68 67 68 68 68 68 68 68 69 70 71 71 72 71 71 70 70 70 71 72 72 70 70 71 72 71 73 73 74 75 75 74 74 74 75 74 71 70 61 58 59 60 61 69 78
66 69 71 71 70 69 65 66 70 71 71 71 71 70 70 70 69 68 68 68 68 68 67 67 67 68 68 69 70 71 71 72 71 70 70 69 70 70 71 70 70 70 73 71 71 71 72 73 72 73 73 74 74 73 71 67 61 57 57 58 60 70 77
68 69 71 71 71 70 69 67 66 67 67 68 68 71 74 72 71 71 69 69 69 68 67 67 67 67 68 69 70 70 70 71 71 71 71 70 70 71 70 70 70 71 71 71 71 71 71 72 72 71 72 73 73 77 70 66 64 57 58 58 59 69 75
63 67 69 71 71 70 69 69 69 68 68 68 69 70 69 72 72 71 70 70 70 68 68 68 68 69 70 71 71 71 71 70 72 72 71 70 71 71 71 72 72 71 71 71 70 71 70 70 70 70 71 72 73 71 68 66 65 63 56 57 59 63 74
68 68 68 69 69 70 69 69 69 68 68 68 68 70 71 70 69 68 69 70 68 67 68 68 69 70 69 70 71 71 70 71 71 72 72 73 72 72 72 71 72 72 72 71 70 69 69 68 69 69 70 71 71 68 67 67 65 63 55 55 58 62 68
68 69 69 69 69 68 68 68 68 68 69 69 69 71 71 70 67 67 67 67 68 70 71 71 70 70 70 68 69 69 70 70 72 73 72 72 72 70 70 71 72 72 71 70 70 69 69 69 69 68 67 67 68 69 68 70 69 65 59 56 55 57 63
61 61 63 65 66 68 68 66 66 66 67 68 68 68 69 69 66 65 65 64 65 70 71 71 71 70 69 69 68 68 68 69 72 73 72 71 70 71 69 71 71 71 71 70 70 69 69 69 69 67 66 66 66 66 67 67 69 67 65 58 55 55 57
60 60 61 63 63 64 65 63 64 65 66 66 66 66 67 66 64 65 64 63 66 67 69 70 69 68 68 70 69 68 67 69 70 71 72 73 72 69 69 69 70 71 71 70 70 69 68 68 68 67 65 64 64 65 66 67 67 69 69 65 56 54 54
61 61 61 60 61 62 62 62 61 62 63 65 65 64 63 63 63 64 62 63 65 65 67 68 68 68 67 66 67 68 69 68 68 69 70 69 68 67 68 69 68 67 68 68 68 69 69 68 68 66 65 65 65 65 66 68 68 67 68 69 66 61 59
61 61 62 62 61 61 60 60 60 61 61 61 63 63 63 62 62 60 61 64 65 66 67 67 67 68 67 67 67 68 70 68 67 68 70 69 67 65 67 67 66 65 65 66 67 67 68 69 69 68 67 65 66 68 68 66 65 64 64 66 68 67 63
60 60 60 61 62 63 61 59 58 58 59 58 59 61 63 62 62 60 61 62 64 65 64 66 67 67 66 66 68 68 69 68 66 66 66 67 65 64 65 65 61 60 61 61 63 67 66 67 68 68 68 68 67 66 65 64 63 61 61 60 61 61 63
59 60 61 61 61 62 61 60 57 57 57 57 56 58 59 60 60 61 60 61 62 62 63 64 66 66 65 66 66 66 68 69 73 68 63 62 62 62 62 65 65 62 60 59 60 63 65 66 66 66 66 66 66 65 63 62 61 58 57 57 57 57 59
61 61 61 60 62 62 59 59 58 57 57 57 57 57 57 57 58 60 60 61 61 61 61 63 66 65 63 63 64 62 68 67 66 66 64 62 60 57 56 58 62 62 60 60 56 55 61 65 63 64 63 63 63 63 61 61 59 57 53 53 50 52 55
61 62 62 62 62 62 61 61 59 58 57 57 57 57 57 57 58 59 61 61 60 61 60 61 63 61 61 63 63 65 65 66 66 67 66 66 62 61 60 56 48 53 60 59 57 51 45 50 59 59 62 60 59 60 61 59 58 51 46 44 44 43 44
60 61 61 62 62 61 61 60 61 60 58 57 58 58 59 58 58 58 59 60 61 61 60 58 60 62 61 61 62 64 66 65 65 65 64 65 65 63 62 62 56 43 46 52 51 47 42 41 42 49 58 61 58 54 50 50 46 43 43 43 44 42 43
61 61 62 62 61 60 60 60 60 59 59 58 58 58 58 58 59 59 60 60 60 60 60 60 59 57 59 62 64 65 65 64 64 64 64 63 64 64 62 61 61 60 46 43 48 46 42 41 41 41 44 51 56 58 51 45 42 41 42 42 42 42 42

ECMWFFLT1_sfc_temp_120.txt.gz
Temp
74 75 74 75 78 80 80 81 82 81 81 81 83 82 82 82 81 81 80 79 79 78 78 78 78 78 78 78 78 77 78 77 78 78 78 77 78 77 77 77 78 77 77 77 78 77 79 79 80 80 79 79 79 78 78 78 78 79 78 77 77 77 76
74 74 75 75 76 80 80 82 82 82 81 81 83 82 82 81 81 80 80 79 79 79 78 79 79 78 79 79 79 77 77 77 78 79 79 77 79 77 79 78 78 77 77 78 78 78 79 80 80 79 79 80 79 79 79 78 78 78 78 77 77 76 77
74 75 75 75 75 78 79 81 82 82 82 82 83 82 82 80 81 80 80 79 79 79 79 79 79 79 79 79 78 77 77 78 78 79 78 79 79 80 79 79 79 79 79 79 78 80 80 80 78 79 80 80 80 79 79 79 78 78 78 77 78 78 75
73 75 75 76 76 76 79 81 81 82 83 83 83 83 82 81 82 81 81 80 79 79 78 79 80 80 79 79 79 77 77 78 79 80 80 80 80 81 79 79 79 80 79 79 81 81 83 81 80 79 81 80 79 80 79 79 79 78 78 77 77 77 76
75 77 76 75 76 75 75 77 80 81 82 83 83 82 82 82 82 82 81 82 81 80 80 81 82 81 81 80 81 80 79 79 79 80 81 81 80 80 80 80 80 80 80 80 80 80 80 79 80 79 79 79 79 79 79 79 79 79 78 77 77 77 77
74 75 76 75 75 75 74 75 79 81 82 82 82 81 81 82 82 81 81 81 81 81 81 81 81 81 80 81 82 82 80 79 79 79 81 80 80 80 80 81 81 81 81 80 80 80 80 80 80 80 80 80 80 80 80 79 80 80 79 77 78 78 78
74 76 77 76 75 75 73 72 75 78 81 82 82 82 81 81 81 81 81 80 81 79 79 80 81 81 81 81 81 81 79 80 79 80 81 81 81 81 81 81 81 81 82 80 80 80 80 80 80 80 81 81 80 81 80 79 79 79 79 78 77 77 77
74 75 76 77 76 71 71 71 72 74 74 77 78 81 81 81 80 80 80 80 80 80 80 80 81 80 80 81 82 81 81 81 81 81 80 81 82 81 82 81 81 82 81 81 81 80 80 80 81 81 81 81 80 80 80 79 79 80 79 78 77 77 80
67 68 71 77 75 73 72 71 73 74 74 75 74 76 80 80 80 80 80 80 80 80 80 81 81 81 81 81 81 81 82 82 82 82 81 81 82 83 83 83 82 82 82 82 82 81 81 81 81 80 80 80 80 79 80 79 80 80 79 79 78 78 79
68 69 72 73 73 72 71 71 71 72 72 73 73 73 76 79 80 80 80 80 80 80 80 81 81 81 80 80 80 82 82 82 82 83 83 82 82 83 84 84 83 82 82 83 83 81 81 81 81 80 79 80 79 78 79 79 80 80 80 79 79 78 78
68 69 69 69 70 70 70 70 71 72 73 74 74 76 76 78 79 79 79 80 80 80 81 81 81 80 80 81 80 80 82 82 83 83 83 83 83 83 84 85 84 83 83 83 83 83 82 80 81 80 79 80 80 79 79 79 79 79 80 80 80 79 80
67 67 67 68 68 68 69 69 69 70 71 72 74 75 75 77 79 79 79 79 80 80 80 80 80 81 81 80 80 79 80 82 82 82 83 83 84 84 84 85 85 84 83 83 83 82 82 82 81 81 79 80 80 80 79 79 79 79 80 80 80 79 80
67 66 66 66 66 67 68 68 69 69 70 71 72 73 73 76 78 79 78 78 79 80 80 80 79 80 80 80 80 79 80 81 81 82 83 83 84 85 84 85 85 85 84 84 84 83 83 83 81 81 81 80 81 80 79 79 79 78 79 80 80 80 80
67 66 66 67 66 66 65 67 68 69 70 71 71 71 71 70 71 73 74 74 74 74 75 77 79 79 79 79 78 75 72 73 75 78 80 83 82 83 85 85 85 85 85 84 84 84 84 84 83 81 81 81 81 81 80 79 79 78 78 79 80 80 79
65 65 65 65 65 65 65 66 66 68 68 69 70 69 69 70 70 70 71 71 71 71 72 71 72 73 76 75 73 73 74 74 75 76 75 78 80 81 82 83 83 84 84 84 84 85 85 85 85 82 81 81 80 81 81 81 80 80 79 78 78 80 79
63 63 64 64 65 65 65 66 66 67 68 68 69 69 70 70 70 70 71 71 72 72 72 72 72 72 70 71 72 72 73 74 74 74 74 74 76 76 77 78 79 82 83 83 84 84 83 83 83 83 82 80 80 80 82 80 79 80 80 80 79 77 80
63 63 64 64 64 65 65 66 67 67 67 67 68 69 69 69 70 70 70 70 71 70 71 72 71 71 71 70 71 72 72 73 73 73 73 72 73 74 75 76 77 76 77 79 81 81 80 80 80 81 81 81 81 80 80 79 79 78 72 72 74 78 77
63 63 64 64 64 65 65 65 66 66 66 66 67 68 68 69 70 70 70 70 70 70 71 71 70 71 71 71 71 72 72 72 72 72 71 71 72 72 72 74 75 75 75 76 76 76 78 79 78 77 79 79 78 78 77 77 79 70 69 70 70 75 78
63 63 64 64 64 65 65 65 65 66 66 67 67 68 68 69 69 69 70 70 71 71 72 71 71 70 71 71 71 71 71 71 71 71 71 71 71 72 71 71 72 73 74 74 74 74 75 76 76 75 76 76 76 76 76 76 72 67 69 68 68 68 76
63 63 64 64 64 65 65 66 66 66 67 67 67 68 68 69 68 68 69 70 70 71 71 71 71 71 71 71 71 71 71 71 71 71 71 72 72 71 71 72 72 71 72 73 72 72 73 74 74 74 74 75 75 75 75 76 71 66 67 67 67 67 71
62 62 63 63 63 64 65 66 66 67 67 67 68 67 67 67 68 68 68 69 69 69 69 69 69 69 70 70 70 70 71 72 72 71 72 72 72 72 71 71 70 71 72 73 71 71 71 71 72 73 74 74 74 74 75 76 64 63 64 64 65 67 73
61 61 61 62 61 62 64 65 66 66 66 68 67 67 67 67 68 67 67 68 68 68 68 69 69 69 69 69 69 70 71 71 71 71 71 70 70 71 71 71 71 71 72 72 71 72 72 72 72 72 72 73 73 73 73 69 60 62 62 63 63 68 74
65 64 62 62 62 62 63 64 65 67 67 67 67 67 66 67 67 67 67 66 66 67 67 67 67 68 68 69 70 70 70 70 69 70 69 69 70 69 70 69 70 70 70 69 70 70 71 72 72 72 72 73 73 72 71 71 62 59 59 60 61 66 73
66 67 66 66 65 65 64 65 66 66 66 66 66 68 68 68 67 66 66 66 66 66 66 66 66 67 68 68 69 69 70 70 70 69 69 68 69 69 69 69 69 69 71 70 70 70 71 72 71 72 73 73 73 73 71 69 63 58 58 57 59 67 75
65 66 66 66 66 65 66 65 65 65 65 65 64 66 68 67 67 67 66 66 66 66 66 65 66 66 67 67 68 69 69 70 69 69 69 69 69 69 69 69 69 70 71 70 70 70 71 72 71 71 72 73 73 76 73 68 66 59 56 58 58 65 75
62 64 65 66 66 66 66 66 67 66 65 64 65 66 66 68 68 67 67 67 67 66 66 66 67 68 68 68 68 68 68 70 71 71 71 70 70 69 69 71 71 70 70 69 69 70 70 72 71 70 71 72 73 73 70 66 66 65 55 56 60 63 71
64 64 63 64 65 67 66 66 66 66 66 65 66 67 67 66 64 63 65 66 65 65 67 67 68 67 66 68 68 68 68 69 69 69 69 70 69 70 71 70 70 70 70 69 69 69 68 69 69 69 70 71 70 68 67 67 65 63 55 54 59 64 68
63 64 65 65 66 65 64 65 65 65 66 66 68 69 68 67 65 64 64 63 64 66 69 68 68 68 68 67 68 68 68 69 70 70 70 70 70 69 68 68 71 70 69 70 69 68 68 68 68 67 67 67 68 68 67 69 69 66 60 55 54 59 64
57 58 59 60 62 65 65 63 63 63 63 65 65 66 67 67 64 63 63 63 63 67 67 68 68 67 68 68 67 68 68 68 70 70 69 68 68 67 64 64 63 65 68 69 68 67 67 67 66 66 65 65 65 66 66 66 68 68 67 59 54 54 57
56 57 58 60 60 61 63 61 61 62 62 62 63 63 63 63 62 62 61 61 63 64 67 67 68 67 67 68 67 66 66 67 68 68 68 68 67 64 63 62 63 63 61 62 68 67 67 66 65 65 64 63 63 65 65 66 66 67 67 64 57 54 54
56 56 56 56 58 60 59 58 58 59 60 60 61 61 60 60 61 62 61 61 63 62 63 65 66 67 67 66 67 68 66 65 66 66 66 66 65 64 63 62 63 61 62 62 61 67 66 66 65 64 64 65 64 64 63 63 63 63 65 66 64 59 56
56 56 57 57 57 59 57 58 58 58 58 58 59 59 60 59 59 58 58 60 62 62 62 64 65 66 65 66 66 67 68 65 64 65 66 66 65 62 61 60 60 60 59 60 62 63 66 66 66 64 64 64 65 64 63 63 62 62 61 63 64 64 60
56 56 56 56 58 59 57 57 57 57 57 56 57 58 59 58 59 58 59 60 60 61 61 64 64 63 62 61 63 64 66 65 63 62 62 62 63 64 63 61 58 59 59 59 59 61 63 67 66 65 65 64 62 63 63 63 61 60 60 60 60 61 62
55 56 56 56 58 58 55 55 54 55 55 55 55 56 56 57 57 57 58 59 59 59 61 63 64 61 60 61 62 64 64 65 68 63 59 59 58 59 61 63 62 59 58 57 56 58 60 61 63 64 65 64 64 62 62 61 61 59 56 57 57 58 59
54 55 56 56 58 57 54 55 55 54 54 54 53 54 55 55 56 57 57 58 58 57 59 62 63 60 58 59 60 62 66 63 63 60 60 58 56 54 53 56 60 59 57 57 55 55 57 61 60 60 60 62 61 61 59 60 60 58 53 53 49 50 55
55 55 57 57 58 57 57 56 54 54 55 54 54 54 55 54 54 55 57 57 57 57 57 60 61 58 57 59 60 62 62 62 62 62 61 61 59 57 57 53 48 52 57 55 53 48 44 50 56 57 59 58 56 55 57 57 56 48 44 42 42 42 43
56 56 57 57 57 56 56 56 57 55 55 53 54 55 56 56 54 54 56 56 57 57 56 56 58 58 57 59 59 62 62 61 61 60 60 61 59 60 59 58 55 44 45 51 50 46 42 42 44 50 55 59 57 54 48 46 44 41 40 41 41 40 40
57 57 57 57 57 57 57 57 57 56 56 54 55 54 54 55 55 54 56 56 56 56 55 56 56 55 56 57 58 62 62 59 60 61 60 59 60 60 60 60 58 58 46 43 47 45 42 42 42 42 44 47 52 59 57 50 44 41 40 39 40 40 40

ECMWFFLT1_sfc_temp_123.txt.gz
Temp
74 74 73 75 77 78 77 77 78 78 78 78 79 80 80 80 79 78 78 77 76 76 76 76 76 76 76 77 76 75 76 76 77 77 76 76 76 76 76 76 77 76 76 75 76 76 77 77 78 78 78 77 77 77 77 77 77 78 76 76 75 75 74
74 74 73 74 76 78 78 78 78 79 78 79 80 79 80 80 79 78 78 77 77 77 76 77 77 76 77 77 77 75 75 75 77 78 77 76 77 76 77 77 77 76 76 77 76 76 77 77 78 78 77 77 77 77 77 77 77 77 76 75 75 75 75
74 74 74 73 75 78 78 79 79 79 79 79 80 80 80 79 79 79 78 78 77 77 77 77 77 77 77 77 76 75 76 75 76 77 76 77 76 78 77 77 77 77 78 78 77 77 78 78 77 78 78 77 78 77 77 77 77 77 76 76 76 77 74
75 75 74 74 74 76 78 79 79 79 80 80 80 80 80 79 80 80 79 79 78 78 77 78 78 78 78 77 77 76 75 75 76 77 78 78 77 78 77 76 76 77 77 77 78 79 80 79 78 77 79 77 78 78 77 77 77 77 77 76 75 76 75
75 77 75 73 73 73 75 77 78 79 79 80 80 81 81 81 80 80 80 80 80 79 79 79 80 79 79 78 79 78 77 76 76 77 78 78 78 78 77 78 77 77 78 78 77 78 77 77 78 77 77 77 78 77 77 77 77 77 76 76 75 76 75
74 75 74 73 73 73 73 76 78 79 79 79 79 80 80 80 80 80 80 80 80 80 79 79 79 79 78 79 79 79 78 76 76 77 77 77 77 77 78 78 78 78 78 78 78 78 78 78 78 78 78 78 78 78 78 77 78 77 77 76 76 76 76
74 74 74 74 74 73 73 74 77 78 79 80 80 81 80 80 79 79 79 79 79 78 78 78 79 79 79 79 79 79 77 77 76 77 78 78 78 78 78 78 79 79 79 78 78 78 78 78 78 78 78 78 78 78 78 77 77 77 77 76 76 75 76
74 74 75 76 76 75 74 72 73 75 76 77 78 79 79 79 79 78 78 79 79 78 78 78 79 78 78 79 79 79 78 78 78 78 78 78 78 78 78 78 78 78 78 78 78 78 79 78 79 78 78 79 78 78 78 77 77 78 77 76 76 76 77
72 72 74 75 76 75 73 72 72 75 75 76 77 78 78 78 78 78 78 78 78 78 78 79 79 79 79 78 78 78 79 79 78 78 78 78 79 79 80 79 79 79 79 79 79 79 79 79 79 78 78 78 78 77 78 77 78 78 77 77 76 76 77
65 66 67 69 70 71 71 71 71 71 72 73 74 75 77 78 78 78 78 78 78 78 78 79 79 79 78 78 78 79 79 78 79 79 79 79 79 79 80 81 80 80 79 80 80 79 79 79 79 78 77 78 77 77 77 77 78 78 78 77 77 77 76
65 66 67 67 66 67 67 67 67 68 68 69 70 73 76 78 78 78 78 78 78 78 79 79 79 78 78 78 78 78 79 79 80 79 79 79 80 80 81 81 81 80 80 80 80 80 79 78 78 77 77 78 78 77 77 78 78 77 78 78 78 78 78
65 65 65 65 66 66 66 67 68 68 69 69 70 70 69 70 73 76 76 75 76 78 78 78 79 78 78 78 77 77 77 79 79 79 80 80 80 80 81 82 81 81 81 81 80 80 80 79 79 79 77 77 78 78 78 77 77 77 78 78 78 78 78
65 64 65 65 65 65 66 66 67 68 69 70 70 70 69 70 71 70 69 69 70 70 72 74 76 77 78 77 77 77 77 78 79 79 80 80 81 81 81 81 82 82 81 81 81 81 80 80 79 79 79 78 78 78 78 78 77 77 77 78 78 78 77
66 65 65 65 64 64 65 66 67 68 69 70 69 69 70 70 70 71 71 71 72 72 72 71 72 71 73 74 76 76 76 77 78 79 79 80 79 80 81 82 82 82 82 81 81 81 81 81 80 80 79 79 79 79 79 78 78 77 77 77 78 78 77
63 64 64 64 64 64 65 65 66 67 68 69 69 69 69 70 70 70 71 71 72 72 73 73 73 72 72 72 74 74 74 75 75 77 78 79 78 78 79 80 81 81 81 81 81 82 82 82 82 80 79 79 79 79 79 79 78 78 77 77 77 77 77
63 63 63 64 64 64 65 66 66 67 68 68 69 69 69 69 70 70 70 71 72 72 72 72 72 72 71 71 71 71 71 73 74 75 75 76 77 77 78 79 79 81 80 80 81 81 81 80 81 81 80 79 78 78 79 79 79 80 80 80 78 76 78
63 63 63 64 64 65 65 66 66 66 67 67 68 69 69 69 69 70 71 71 71 71 72 72 71 71 71 71 70 70 71 71 71 72 73 75 75 76 76 77 78 77 78 79 80 79 79 80 79 80 80 80 79 78 78 79 79 78 72 73 77 79 76
63 63 63 64 64 65 65 65 65 66 66 67 68 68 68 68 69 69 69 70 70 70 71 71 71 71 71 71 70 71 71 71 71 70 70 71 71 71 70 71 72 74 76 78 79 78 79 79 78 78 79 79 78 78 78 78 79 72 70 71 72 78 77
62 63 63 64 64 64 65 65 65 66 66 67 67 68 69 69 69 69 69 69 70 71 71 71 70 71 71 70 70 70 70 70 70 70 70 70 69 70 71 70 70 70 70 71 73 75 76 76 77 76 77 78 77 77 77 77 74 70 69 69 69 71 78
62 62 63 63 64 64 65 65 66 66 66 67 67 67 68 69 69 69 70 70 70 70 70 70 70 69 70 70 70 70 70 70 70 70 70 70 70 69 69 70 69 69 71 71 71 70 71 72 72 72 72 74 75 76 77 76 74 68 67 68 68 69 73
61 61 61 62 62 63 64 65 65 66 66 66 66 67 67 67 68 69 69 69 69 70 69 69 69 69 69 69 69 69 70 70 70 70 70 70 71 70 70 69 69 69 70 69 69 70 69 70 70 71 72 72 72 72 74 77 70 66 66 65 66 67 72
60 60 60 61 62 61 62 63 64 64 64 66 66 66 66 66 67 67 67 68 68 68 69 68 68 68 69 68 69 69 69 70 69 70 70 70 70 70 69 69 68 69 69 70 68 69 70 70 71 70 71 71 71 72 71 71 61 62 63 64 64 67 72
62 62 62 62 63 62 62 63 63 64 66 65 65 65 65 66 66 66 66 66 66 66 66 67 67 68 69 69 69 69 69 69 69 69 69 69 69 69 69 69 68 69 70 69 69 69 69 70 71 71 71 72 72 71 70 71 64 60 60 60 60 64 69
63 64 65 65 65 64 63 63 65 65 65 65 65 66 66 66 65 65 65 65 65 65 65 65 65 66 67 68 68 68 69 69 69 68 69 68 68 68 68 69 70 70 72 70 70 69 70 70 70 71 71 72 72 72 71 70 65 60 59 58 58 64 69
62 63 64 64 63 63 63 63 64 64 64 64 64 65 66 65 64 64 63 64 64 64 64 64 65 65 66 66 68 68 68 69 69 68 68 68 68 68 68 69 69 70 70 70 70 70 70 71 70 70 71 72 72 75 74 70 66 58 57 57 57 62 68
60 61 62 63 64 63 63 64 64 64 63 63 63 65 65 66 64 64 63 63 64 63 63 63 64 65 66 67 67 67 68 68 69 69 68 68 68 68 68 69 70 69 69 69 70 70 70 70 70 70 70 71 72 73 71 68 67 63 55 56 57 60 66
61 60 60 61 62 65 62 63 63 62 62 62 63 65 66 65 63 62 63 63 62 62 63 64 65 65 65 66 67 67 68 67 68 68 68 69 68 68 67 67 68 69 69 69 69 68 68 69 69 70 70 70 71 69 67 68 66 63 54 53 53 57 62
59 60 62 62 64 63 60 61 60 61 62 62 63 64 65 64 63 62 62 62 62 63 65 65 65 65 65 65 65 66 67 67 68 67 66 66 65 63 63 63 64 67 69 69 68 68 68 68 68 67 66 66 67 67 67 69 69 66 59 54 53 54 56
55 56 56 57 58 61 61 58 58 58 59 60 61 61 62 63 62 61 61 60 60 63 65 66 66 65 66 65 65 65 65 65 66 66 66 65 64 63 61 62 62 62 64 67 68 67 67 66 66 65 64 64 64 65 66 66 67 67 65 58 54 54 55
54 54 55 56 57 57 59 56 57 57 57 58 59 59 59 60 60 61 59 58 60 62 64 65 64 65 65 66 64 64 64 65 65 65 65 65 64 63 62 61 61 62 63 63 67 66 65 64 65 64 64 63 63 63 63 63 63 65 66 63 57 55 54
53 53 53 54 55 57 56 56 55 56 56 57 57 58 58 58 58 59 58 58 61 61 62 63 64 64 63 63 64 64 63 63 63 63 64 64 63 63 62 62 62 61 62 63 62 66 65 64 65 64 64 64 62 61 61 61 61 61 64 65 64 58 56
53 53 54 55 55 56 55 55 55 55 56 56 56 57 58 57 58 57 56 59 60 61 62 63 62 63 61 62 62 62 63 62 61 62 63 63 63 61 61 61 61 61 60 61 63 64 65 65 65 65 64 62 63 62 62 62 61 60 60 62 63 62 59
52 52 53 53 55 56 54 54 54 54 55 54 54 55 56 56 57 56 57 58 59 60 61 63 62 61 60 59 61 61 61 60 58 58 58 59 61 62 62 61 60 60 60 59 60 63 65 65 65 63 63 63 62 62 61 61 60 59 59 58 58 58 60
52 53 52 53 55 54 52 52 51 53 53 53 53 53 54 55 55 56 56 57 58 58 61 62 62 59 59 59 60 62 62 61 64 59 55 55 55 56 59 60 59 57 57 56 56 60 60 61 60 60 61 61 62 61 60 60 59 56 54 55 54 54 56
51 52 52 53 55 55 51 53 53 52 53 53 52 52 53 53 54 55 55 57 57 57 60 61 62 60 58 59 59 59 63 60 59 58 56 55 54 53 52 52 55 57 55 54 54 56 59 59 58 58 57 57 57 60 60 60 58 56 50 50 48 48 50
51 52 53 53 55 53 54 55 53 52 53 53 52 51 53 52 53 53 55 56 56 56 59 60 60 58 57 59 59 60 60 59 59 58 58 57 55 55 55 53 47 47 53 55 54 50 49 54 57 58 56 55 55 56 57 58 58 49 42 41 40 41 42
52 52 53 53 53 52 53 53 55 53 54 52 52 53 53 53 52 52 54 54 54 55 55 56 58 58 56 59 59 61 61 59 59 58 57 57 56 57 56 55 53 45 44 49 51 47 44 44 46 50 54 58 56 53 49 50 46 41 40 40 40 39 40
52 53 54 53 53 53 54 54 54 54 55 52 52 52 51 52 51 51 53 53 54 53 53 54 56 55 55 56 57 62 60 57 58 58 58 56 56 56 56 54 53 54 47 44 45 45 43 43 43 43 44 45 50 58 57 48 44 41 40 39 39 39 40

ECMWFFLT1_sfc_temp_126.txt.gz
Temp
73 73 73 74 75 76 76 75 76 76 76 76 77 78 78 78 77 76 76 75 75 75 75 75 76 76 76 76 76 76 76 76 77 77 76 76 76 76 76 76 77 76 76 76 76 76 77 78 78 78 78 78 78 78 78 79 79 80 79 79 77 77 76
72 72 73 74 75 77 76 76 76 76 76 77 78 77 79 78 77 77 76 76 76 75 75 76 76 76 76 76 77 76 76 76 77 78 77 76 77 76 77 77 77 76 76 77 77 77 78 78 78 78 78 79 79 78 79 79 79 79 79 78 78 77 77
73 72 72 73 74 76 76 77 76 77 77 78 78 78 78 77 78 77 77 76 75 76 76 76 76 77 77 76 76 76 76 76 77 77 77 77 77 78 78 77 77 78 78 78 77 78 79 79 78 78 79 78 79 78 78 78 79 79 79 78 78 79 78
73 73 73 74 75 76 77 77 76 77 78 78 78 79 79 78 79 78 78 77 76 76 75 76 77 77 77 76 76 76 76 76 77 78 79 78 78 78 77 77 77 78 78 78 79 79 80 79 79 78 79 78 78 79 79 79 79 79 79 78 78 78 78
73 74 73 72 74 75 75 75 76 76 77 78 78 78 79 80 79 79 79 79 79 78 78 78 79 79 78 78 78 78 77 77 77 78 78 79 78 78 78 78 78 78 78 79 79 78 78 78 79 78 78 78 79 79 79 79 79 79 78 78 78 78 78
72 73 73 72 73 74 74 75 75 76 76 76 77 78 79 79 80 79 79 79 79 78 78 78 79 78 78 79 79 79 78 77 77 77 78 78 78 78 78 78 79 78 79 79 79 79 79 79 79 79 79 80 80 80 80 79 80 80 79 78 78 79 79
66 67 69 71 72 73 73 73 75 75 76 77 78 79 79 79 78 78 78 78 78 77 77 77 78 79 78 79 78 79 77 77 77 77 78 78 78 78 78 79 79 79 80 79 79 79 79 79 79 79 79 80 80 80 79 79 79 79 79 78 78 78 78
66 65 67 68 69 70 71 71 72 73 73 74 75 77 77 78 78 77 77 78 78 78 77 78 78 78 78 78 79 79 79 78 78 78 78 79 78 78 79 79 79 79 79 79 79 79 79 79 80 80 79 80 79 79 80 79 79 80 79 78 78 78 79
65 66 66 67 68 68 68 68 68 70 70 70 71 72 74 76 76 77 78 78 78 78 77 79 79 79 79 78 78 78 79 79 78 78 78 78 79 79 80 80 79 80 79 80 80 80 80 80 80 79 79 79 79 79 79 79 79 80 79 78 78 78 79
65 65 66 67 68 67 67 68 68 69 69 69 69 70 71 73 74 75 76 77 78 77 78 78 79 79 78 78 78 79 79 78 79 79 78 79 79 79 80 81 80 80 80 80 81 80 80 80 80 79 78 79 79 79 79 79 79 79 79 79 79 79 78
65 65 65 66 67 67 67 68 68 69 70 70 70 70 70 72 72 74 73 74 75 75 76 78 78 78 78 78 78 78 78 79 79 78 78 79 80 80 81 81 81 80 80 81 80 81 80 79 80 79 78 79 79 79 79 79 79 79 80 80 80 79 80
64 64 64 65 65 66 66 67 68 68 69 70 70 71 71 72 72 73 73 74 74 74 75 75 77 78 78 78 77 77 77 78 79 79 79 79 80 80 81 81 81 81 81 81 81 80 81 80 80 80 79 79 80 80 79 79 79 79 79 80 80 80 80
65 64 64 65 65 65 66 67 68 68 69 70 70 71 71 71 72 73 73 73 74 75 75 76 77 77 77 77 77 77 77 78 78 79 79 79 80 81 81 81 82 82 81 81 81 81 81 81 80 80 80 80 80 80 80 79 80 79 79 80 80 80 80
65 64 64 64 64 65 65 66 67 67 68 69 69 70 70 71 71 73 72 72 72 73 74 74 75 76 76 76 76 76 76 77 78 79 79 79 78 79 81 81 82 81 82 81 81 81 82 82 81 81 81 81 80 80 80 79 79 79 79 79 80 80 80
63 64 64 64 64 64 65 65 66 67 68 68 69 69 69 70 71 71 71 72 72 72 73 73 73 73 73 73 74 75 76 76 76 77 77 78 77 77 78 80 80 80 81 81 81 83 83 83 83 82 81 81 80 80 80 80 80 80 79 79 79 80 80
63 63 64 64 64 64 65 66 66 66 67 68 68 69 69 70 70 71 71 71 72 72 73 72 73 73 72 72 73 75 75 75 76 76 76 76 76 76 77 79 79 81 80 80 81 81 80 81 81 82 81 81 80 80 81 80 80 80 79 79 80 79 80
63 63 64 64 65 65 66 66 66 67 67 67 68 68 69 69 70 71 71 71 72 72 73 73 73 73 72 72 74 74 74 74 75 75 75 75 75 75 75 76 78 78 78 78 79 79 79 80 80 81 82 82 81 80 80 80 80 77 72 72 76 81 79
61 61 62 63 64 65 65 65 66 66 66 67 67 68 69 69 69 70 70 71 72 72 72 72 73 73 73 73 72 71 71 72 72 73 73 72 72 72 72 72 72 72 73 75 76 76 78 79 79 79 81 81 81 81 81 80 79 72 70 71 71 77 80
60 61 61 61 63 64 64 64 65 65 65 66 66 66 67 69 69 69 70 71 72 72 72 71 71 72 72 71 71 70 70 71 72 72 72 71 70 70 71 71 71 71 72 73 74 75 76 76 77 78 79 80 79 80 80 81 75 69 69 69 69 70 78
60 61 61 61 62 62 63 64 64 64 65 65 66 66 67 68 68 70 70 71 71 71 71 71 70 70 70 70 70 69 70 69 69 69 70 70 69 69 70 70 70 70 70 71 71 71 73 75 76 76 75 77 78 78 80 80 76 69 67 67 68 68 73
60 60 60 61 61 62 62 63 63 64 64 64 65 66 66 66 67 69 69 69 69 69 70 70 70 69 69 70 69 70 70 70 69 69 69 69 69 69 70 69 69 70 70 70 69 70 71 72 74 75 76 77 78 77 79 80 73 69 66 65 65 67 73
61 61 61 61 62 61 61 62 62 63 63 65 65 65 65 65 66 67 67 68 68 68 68 68 68 68 68 68 69 69 69 69 69 69 69 69 69 69 69 70 69 69 69 70 69 69 69 70 71 73 73 73 75 76 76 77 64 64 64 65 65 68 74
63 63 63 63 63 62 63 63 62 63 64 64 64 64 64 65 66 65 66 66 66 66 67 68 67 68 68 68 69 69 69 69 69 69 68 69 69 69 70 69 69 69 70 69 69 69 69 70 70 71 72 73 73 73 72 74 63 60 60 61 61 67 72
63 64 64 63 63 64 64 63 64 65 64 64 64 64 64 65 64 64 64 64 65 65 65 66 66 67 67 67 68 68 69 69 69 69 69 68 68 68 69 70 69 69 71 70 69 69 69 70 70 71 72 73 73 73 73 72 65 60 58 59 60 66 71
62 63 64 64 63 62 63 63 63 63 63 63 62 64 65 64 64 63 63 63 63 63 63 63 64 65 66 67 68 68 68 69 68 68 68 68 68 69 68 69 69 69 71 71 71 71 70 70 70 71 71 72 73 75 74 72 67 58 58 57 58 65 69
59 60 62 64 64 63 62 62 62 61 61 60 61 64 64 65 64 64 63 62 63 62 62 62 63 64 66 67 67 67 67 68 69 69 68 67 67 68 68 69 70 69 69 70 70 70 70 71 71 71 71 72 73 74 74 73 70 62 55 56 57 60 67
59 60 60 62 62 63 61 60 60 60 60 60 61 63 65 64 63 61 62 62 61 61 62 63 64 64 65 65 66 66 66 65 66 65 65 65 65 66 65 64 65 67 69 69 69 69 69 70 70 70 70 70 71 72 71 72 68 60 53 53 55 58 65
58 59 61 61 63 61 59 60 59 59 60 60 61 62 63 63 62 61 61 60 60 61 64 64 64 64 64 64 64 64 64 65 64 64 63 64 64 62 62 63 63 64 67 69 69 69 69 69 69 68 66 66 67 67 67 69 68 63 56 54 53 54 60
55 55 56 57 58 60 60 58 57 58 58 60 60 60 61 63 61 61 60 59 59 62 65 65 65 65 64 63 63 63 63 63 63 63 64 63 63 62 61 62 62 63 64 66 68 68 68 67 67 66 64 64 64 64 64 65 66 65 62 56 53 53 54
54 55 55 56 57 59 59 57 57 58 58 58 58 59 59 60 60 61 59 58 60 62 64 65 65 64 64 64 62 61 62 63 63 63 63 64 64 63 63 62 63 63 63 64 67 67 66 65 65 65 64 62 61 62 62 62 62 64 65 61 55 53 53
53 54 54 54 56 58 57 56 56 57 57 57 57 58 58 58 59 60 58 58 61 61 62 63 64 64 63 62 62 62 61 61 62 62 62 62 62 62 62 63 63 62 63 65 65 66 64 64 65 64 63 62 61 60 60 60 60 60 62 64 62 56 54
54 54 55 55 56 57 55 55 56 56 56 56 56 57 58 57 58 57 57 59 60 61 62 63 63 63 62 62 62 61 62 60 60 60 60 61 61 61 61 60 60 62 62 63 65 65 65 65 64 63 62 61 62 61 61 62 61 60 60 61 61 61 58
53 53 53 54 57 57 55 55 55 56 56 56 55 56 57 57 57 57 58 59 59 61 62 63 62 61 61 61 62 62 62 61 59 58 58 57 58 58 59 59 59 58 59 59 61 63 64 63 63 62 61 61 62 62 62 61 60 59 60 59 59 59 59
53 54 54 53 55 55 52 52 52 54 55 55 54 54 55 56 56 56 57 58 58 59 62 63 62 60 60 61 62 62 61 61 63 58 56 56 55 54 55 56 57 57 55 54 54 58 60 60 60 60 60 59 60 61 61 61 60 58 56 57 56 57 57
52 53 54 54 56 56 53 55 52 50 54 56 53 52 54 54 55 55 56 57 57 57 61 62 62 61 59 60 61 61 63 60 59 58 57 56 55 52 51 51 54 56 57 56 55 53 56 58 58 58 58 59 59 59 60 60 60 57 50 50 48 49 50
52 52 54 53 55 53 56 56 52 51 55 56 53 50 52 52 55 55 56 56 57 57 59 61 61 59 60 61 61 61 61 60 60 59 59 58 57 56 55 52 47 49 54 54 55 51 47 51 55 56 57 56 57 58 58 59 56 47 42 40 40 41 42
53 53 54 54 55 55 55 54 58 57 58 56 54 53 53 54 54 54 55 55 56 56 57 58 60 59 58 60 61 62 61 60 60 59 57 58 58 58 57 57 55 45 45 50 51 46 42 42 43 46 49 54 57 56 50 49 45 41 40 40 40 41 41
53 54 55 54 55 55 55 57 58 58 58 55 55 54 54 55 54 53 55 55 55 56 56 56 58 57 57 58 61 63 61 59 61 60 60 58 58 58 57 57 56 56 48 44 46 46 43 42 42 42 43 44 46 54 58 50 44 40 40 41 44 44 43

ECMWFFLT1_sfc_temp_129.txt.gz
Temp
80 79 79 80 81 83 83 83 83 83 83 83 84 86 86 86 84 84 83 82 81 81 82 82 82 82 82 83 83 83 84 84 84 85 84 84 85 85 84 86 86 84 87 87 87 86 87 87 86 87 87 86 87 86 86 86 86 88 87 86 86 86 86
78 78 79 80 81 83 84 84 83 84 83 84 85 84 86 86 84 84 83 82 82 82 82 82 82 82 83 83 84 83 83 84 84 84 85 84 84 84 86 86 85 84 84 86 87 86 86 87 87 86 86 87 87 86 87 86 86 86 87 86 86 85 86
76 75 77 80 81 83 82 84 83 84 84 85 86 86 85 84 84 84 83 83 82 82 84 83 82 83 83 83 83 83 84 85 84 85 85 87 86 88 87 86 86 87 88 87 86 88 88 87 86 86 87 87 89 87 86 86 86 87 87 86 86 87 85
75 74 75 76 79 82 83 83 83 84 85 86 85 87 86 84 86 85 85 84 83 83 82 84 84 85 85 83 83 83 84 84 85 87 88 88 88 88 86 86 85 87 86 87 89 88 90 87 87 86 85 86 86 88 88 87 88 88 87 86 86 87 85
75 74 75 73 76 79 81 82 82 83 84 85 84 85 87 86 87 86 86 87 87 85 86 86 87 87 85 86 86 86 85 86 85 87 88 88 87 87 87 88 88 87 87 89 88 86 85 86 88 87 86 85 87 87 87 87 88 87 86 86 86 87 87
75 73 73 73 74 75 77 79 81 83 83 83 83 84 86 86 87 87 86 86 86 86 86 86 87 86 85 87 87 87 86 86 85 85 87 87 86 88 88 88 89 88 89 88 89 88 87 87 88 88 88 90 89 89 89 89 89 89 87 86 86 88 89
74 74 72 71 71 72 75 76 79 82 83 84 84 85 86 85 85 85 85 85 84 83 83 84 86 87 85 86 86 86 85 87 86 87 88 88 88 88 88 88 88 89 90 89 88 89 88 87 87 87 88 89 89 89 88 87 87 88 87 86 85 86 86
72 71 73 74 74 72 72 74 78 80 80 81 83 84 83 84 84 83 83 84 83 82 82 83 85 85 84 86 86 87 87 88 88 87 87 88 89 87 89 89 88 88 88 89 88 88 88 88 89 88 88 89 88 88 89 87 86 89 88 87 86 86 89
70 71 70 71 72 72 72 71 74 78 79 80 81 82 82 83 83 83 83 83 83 83 82 84 85 86 85 85 85 86 88 88 88 87 87 88 89 89 90 90 89 89 88 89 90 89 89 89 89 88 87 87 87 86 87 86 87 88 87 86 86 86 88
69 69 71 71 71 70 70 70 72 74 76 77 77 80 81 82 82 82 82 82 83 83 83 84 84 85 84 84 84 87 88 87 87 88 88 88 89 89 90 91 90 89 89 90 91 90 89 89 89 88 86 87 86 86 86 87 87 88 88 87 86 86 85
68 69 70 72 71 69 68 69 70 72 74 74 75 78 80 81 81 81 82 82 83 83 83 83 83 83 83 84 84 84 86 87 88 88 87 88 90 90 90 90 91 90 89 90 90 90 90 88 88 87 86 88 87 87 86 87 87 87 88 88 88 87 88
67 68 68 69 70 70 69 68 69 69 71 73 75 77 78 80 81 81 81 82 83 82 82 82 83 83 84 83 83 82 83 85 87 87 87 88 89 90 90 91 90 90 90 90 89 89 90 89 89 89 87 87 88 88 87 87 87 87 87 88 89 88 88
66 66 67 67 68 68 69 69 69 69 70 71 74 76 78 79 80 80 81 81 82 83 82 81 81 80 79 81 82 82 82 82 82 86 88 88 89 90 90 90 91 90 90 90 89 89 90 90 89 89 89 88 88 89 88 87 88 86 86 87 87 87 87
66 66 67 68 67 67 67 68 68 69 70 70 70 72 73 75 78 80 80 80 80 81 82 81 81 79 79 80 80 81 82 83 84 86 86 86 86 87 89 90 90 90 90 90 89 89 90 91 90 90 90 89 89 89 89 88 88 87 86 87 88 88 87
64 65 66 67 67 67 67 67 68 68 69 70 71 72 72 74 75 76 78 80 80 81 81 80 80 79 79 80 80 80 81 82 84 84 84 84 84 84 86 88 88 89 89 88 89 91 91 91 91 90 90 90 89 89 90 90 89 89 88 87 87 88 88
63 63 64 65 65 66 66 67 67 68 69 69 70 70 71 71 73 74 76 77 79 79 80 80 80 80 80 79 80 81 80 78 81 82 82 82 82 82 83 85 87 89 88 88 89 88 88 89 89 90 90 89 89 89 90 90 89 85 80 81 88 88 89
62 62 63 64 65 65 66 66 66 67 67 67 67 68 70 70 71 72 73 76 77 78 79 79 79 79 79 79 80 80 80 79 80 81 81 81 81 82 82 83 85 86 85 86 87 87 86 87 88 89 90 90 90 89 89 89 87 79 72 72 75 85 87
61 61 62 63 64 64 65 65 65 65 66 66 66 67 67 69 70 71 72 73 74 76 77 77 77 77 77 77 77 76 75 75 76 77 78 79 79 80 81 82 83 83 84 85 87 85 87 87 87 87 89 90 90 90 90 89 82 72 71 71 70 75 86
60 61 61 62 62 62 62 63 64 64 64 65 65 66 66 68 69 70 72 72 73 74 75 75 75 76 76 77 77 74 73 73 74 76 76 75 74 76 78 79 80 81 82 83 85 85 84 84 86 86 87 88 87 88 89 90 80 70 69 69 69 69 78
61 62 63 63 63 62 63 63 64 65 65 64 65 66 67 68 68 70 72 73 73 73 73 73 73 73 75 75 74 74 73 73 73 74 72 71 71 71 72 74 76 77 79 82 82 82 83 85 84 84 84 85 86 86 88 89 83 70 68 68 67 68 72
62 63 63 63 62 62 63 64 65 65 65 65 65 66 66 66 67 68 68 69 70 71 71 71 72 72 72 73 73 73 72 73 71 70 70 71 72 71 71 72 70 71 73 77 79 80 80 81 82 83 83 85 86 87 88 90 71 69 67 65 66 67 73
64 65 65 65 64 63 64 64 64 65 65 66 66 66 66 66 67 67 67 67 67 68 69 70 71 71 72 71 71 71 71 71 70 70 69 69 70 70 70 71 71 71 73 74 72 73 74 77 80 79 81 81 82 84 83 84 63 64 65 65 65 67 79
66 67 68 68 68 67 66 67 67 66 67 67 67 67 66 66 66 66 66 65 66 66 66 67 68 69 69 69 69 70 70 71 70 70 69 69 69 69 70 71 72 72 71 70 72 71 73 74 77 78 78 78 78 79 78 80 66 60 60 60 62 70 82
68 69 69 69 69 69 68 67 69 69 69 69 69 69 68 67 66 65 65 65 65 65 65 65 65 67 68 68 69 69 70 70 70 69 69 69 69 69 70 70 70 70 71 69 69 69 70 73 74 76 76 76 77 78 76 77 67 59 58 59 61 71 80
68 69 70 69 69 68 68 67 67 68 68 68 67 69 69 67 66 65 64 64 65 65 64 64 64 65 66 67 67 68 69 69 69 69 68 68 68 69 69 70 70 70 70 70 70 70 71 72 71 71 73 74 74 74 75 75 67 58 58 58 60 70 79
66 67 69 70 71 70 68 68 68 68 68 68 68 71 70 70 67 65 64 64 65 64 64 64 64 65 66 66 66 66 66 66 67 67 67 67 67 68 68 69 69 70 70 70 71 71 71 71 71 70 71 73 75 75 76 75 73 62 56 57 58 62 75
68 68 68 70 69 69 70 69 68 67 67 67 68 72 72 71 68 66 65 64 64 64 65 65 66 66 66 66 66 66 65 65 64 64 63 64 64 65 64 64 65 67 69 70 70 70 70 71 71 72 70 70 71 72 73 73 68 60 53 54 56 60 67
69 70 70 69 68 69 69 70 68 68 68 68 69 71 73 72 68 67 66 65 64 65 68 67 67 67 67 66 66 66 65 65 64 64 63 64 63 62 62 63 64 65 66 68 69 69 70 70 71 69 68 68 69 69 69 69 67 65 57 53 53 53 58
65 65 66 67 68 70 70 68 68 67 67 68 68 68 70 72 68 68 67 65 65 68 69 69 69 68 68 67 66 65 64 64 63 63 63 63 63 63 63 63 64 64 65 65 68 69 69 69 69 67 65 64 64 65 66 67 67 65 63 56 53 52 54
65 65 66 67 67 68 70 68 68 68 67 67 66 66 67 68 67 67 66 65 68 70 71 71 70 69 68 68 67 66 65 65 64 63 62 62 62 62 62 63 64 64 65 66 67 67 67 67 66 65 63 62 61 61 62 62 63 64 64 62 55 53 52
65 66 66 65 65 66 66 67 66 67 67 67 66 65 64 65 65 66 65 66 69 69 70 70 71 70 69 68 68 67 67 66 65 64 63 63 63 63 63 63 64 63 64 66 66 66 65 64 65 64 63 62 60 60 60 61 61 61 62 64 63 57 54
65 66 67 68 67 66 66 67 67 67 67 66 67 66 65 65 65 62 64 67 68 70 70 70 70 69 68 69 68 69 70 68 67 66 64 63 63 63 63 62 62 62 61 62 65 65 64 63 63 62 61 61 61 61 61 61 61 61 61 63 63 63 59
65 65 66 66 65 66 67 67 67 65 65 64 65 67 68 66 66 65 65 66 69 71 70 70 69 68 68 68 69 69 69 69 67 66 65 63 63 63 63 63 62 61 60 59 61 63 63 64 63 62 61 61 61 61 61 61 60 61 62 63 63 64 64
65 65 65 64 64 65 66 66 65 65 65 64 64 65 66 66 66 66 66 67 68 70 70 69 68 69 69 70 70 69 68 68 65 65 64 62 61 61 62 63 63 60 58 57 57 60 60 60 60 59 59 60 61 61 61 61 60 61 58 58 58 59 61
65 66 65 66 65 65 65 65 65 64 65 64 64 65 65 65 66 65 65 65 67 67 68 67 68 68 68 68 69 67 67 67 67 67 65 63 61 58 56 57 61 61 60 59 57 56 59 61 59 59 59 59 58 59 60 61 62 60 51 51 48 49 53
65 65 66 66 65 65 66 65 65 66 66 65 65 65 65 65 65 66 66 66 66 67 67 67 67 67 67 68 68 69 69 68 69 67 67 68 65 63 60 53 47 51 60 59 54 48 45 49 56 55 58 59 59 60 59 60 58 48 42 41 42 43 43
65 66 67 66 67 67 67 66 66 67 66 65 65 66 66 66 66 66 66 65 66 66 66 67 67 68 68 67 67 66 68 68 68 67 65 66 66 66 63 63 59 44 45 51 50 46 42 41 42 45 48 54 60 56 49 50 45 41 41 42 42 42 42
66 66 66 66 66 66 67 67 67 67 66 66 66 66 66 67 67 66 68 66 67 67 66 66 66 66 67 68 68 67 67 68 67 67 66 65 65 65 64 64 63 61 47 43 47 46 42 42 41 41 42 43 48 59 59 51 44 41 42 42 43 43 42

ECMWFFLT1_sfc_temp_132.txt.gz
Temp
87 85 86 89 90 91 91 91 91 91 91 92 92 94 95 94 93 92 92 90 88 87 87 87 87 87 87 88 88 88 89 89 89 90 89 90 91 90 90 92 91 90 92 93 92 92 92 92 92 93 93 92 91 91 90 89 89 92 90 89 89 90 89
82 84 85 88 90 91 92 92 91 92 91 92 93 92 94 94 93 92 91 90 89 89 88 88 87 88 88 88 89 88 88 89 89 89 91 90 90 90 91 91 91 90 90 92 93 92 92 93 92 92 92 92 92 91 92 90 90 90 91 90 90 89 90
81 80 83 87 88 91 90 93 92 92 92 93 94 94 94 92 93 91 91 91 89 90 91 90 88 89 89 88 88 88 89 90 90 91 91 93 92 93 92 91 92 93 93 93 92 94 94 93 91 91 92 92 94 92 91 91 90 91 90 89 90 91 88
80 80 77 79 86 88 90 92 92 92 94 94 94 95 94 92 94 92 92 92 91 91 89 92 91 91 91 89 89 88 89 89 90 92 93 94 94 94 92 92 91 93 93 93 95 94 97 94 93 91 90 91 91 93 92 92 93 92 91 89 90 90 89
82 80 75 75 81 85 89 90 91 90 92 93 92 93 95 95 94 95 94 95 96 93 94 95 96 94 92 92 92 92 90 91 91 92 93 94 93 93 93 94 94 93 93 95 94 93 91 91 93 92 91 90 91 92 91 92 92 91 90 90 89 90 91
80 80 77 73 75 80 84 86 86 88 89 90 91 91 94 94 96 96 95 95 95 94 94 94 95 94 93 94 94 94 93 91 90 90 92 93 93 94 94 94 95 95 96 94 96 95 93 92 93 93 93 95 94 94 94 93 93 93 91 90 90 92 93
75 78 79 77 74 74 77 80 84 87 88 89 91 92 92 93 92 92 92 93 92 90 91 93 95 96 93 94 93 93 92 94 92 92 93 94 94 94 94 94 94 96 96 95 94 95 94 93 92 92 93 94 93 95 92 91 91 92 91 89 89 89 89
75 75 78 77 75 73 74 76 81 87 88 88 88 90 90 90 90 90 90 90 90 90 90 91 94 93 92 93 94 94 94 94 95 93 93 94 95 94 95 95 95 94 95 96 95 94 95 94 95 94 94 94 93 92 94 91 89 93 93 91 89 90 94
74 74 76 78 75 73 72 73 76 80 82 83 83 86 88 89 88 89 89 89 90 89 89 92 94 94 93 92 92 93 95 95 95 95 94 94 95 96 97 97 96 95 95 95 96 95 95 95 95 93 93 93 92 91 92 91 92 92 92 91 90 90 92
73 73 74 76 76 73 71 72 72 75 79 80 81 82 85 85 87 87 88 88 89 89 89 90 91 92 90 90 90 94 95 94 94 96 96 95 95 96 97 98 98 97 96 96 97 97 95 95 95 93 91 92 91 91 91 91 92 93 93 91 91 90 89
72 73 74 74 73 73 71 71 72 73 74 78 80 79 81 83 84 85 86 87 88 88 89 89 89 89 90 89 90 90 92 95 96 95 95 95 97 97 98 98 99 98 96 96 96 97 97 94 94 92 91 93 92 91 91 92 92 91 93 93 93 92 92
72 72 72 73 74 73 72 72 72 72 72 74 77 79 79 80 82 83 84 86 87 87 87 87 88 89 90 89 88 88 89 92 94 95 95 95 95 96 98 98 98 98 97 97 95 95 97 96 95 94 92 92 93 93 92 91 92 91 91 94 94 93 93
72 71 70 71 72 73 75 74 74 72 72 72 72 74 76 76 78 81 82 83 85 86 87 87 87 86 86 87 88 88 89 91 91 93 95 94 95 96 96 97 97 97 97 97 96 96 96 97 95 94 95 93 93 94 93 92 93 90 91 92 92 92 92
70 71 71 71 72 72 72 73 73 70 71 74 73 71 72 74 75 76 76 78 80 78 82 86 86 85 85 86 86 86 88 91 93 93 92 92 91 92 95 96 96 95 96 96 94 95 96 97 96 96 96 95 95 94 94 93 92 91 90 91 92 92 92
67 66 67 68 68 68 68 69 69 70 70 70 71 71 71 71 72 74 77 78 79 76 76 77 82 84 84 84 84 85 87 88 89 89 88 87 86 86 88 89 91 94 94 94 95 97 96 97 97 95 94 95 94 94 95 95 94 94 92 91 91 92 93
64 65 65 65 65 67 68 68 68 68 69 69 69 68 70 71 72 72 74 76 79 80 80 78 75 79 83 83 84 85 85 86 86 86 86 85 85 84 85 86 83 87 95 93 94 93 93 94 94 95 95 94 94 94 96 95 94 90 85 86 91 92 94
62 63 63 63 63 65 66 66 66 66 67 68 68 68 68 68 70 72 74 76 78 79 82 83 81 80 82 82 84 84 85 84 85 85 85 85 85 85 83 79 78 78 85 91 92 90 90 93 93 94 95 95 94 94 95 94 92 83 74 75 78 89 91
62 62 62 62 64 65 66 66 66 66 67 67 68 68 69 68 69 71 73 75 77 79 81 82 81 81 81 82 83 83 83 83 83 83 83 84 84 84 80 75 75 77 77 79 87 87 90 94 92 92 94 95 95 95 96 96 86 72 72 73 73 78 89
63 63 64 65 65 66 66 66 66 67 68 68 67 68 69 70 70 69 71 73 75 77 78 79 81 81 81 82 82 82 83 82 82 82 82 82 82 81 79 77 77 76 76 77 79 85 84 87 89 91 93 93 92 93 95 97 78 71 71 71 70 71 80
64 65 67 67 68 68 68 69 69 69 68 68 68 70 71 71 70 70 72 72 73 74 74 75 76 78 79 80 81 82 82 81 81 81 81 82 81 80 79 79 77 76 76 76 77 77 81 85 88 88 89 90 90 90 93 96 75 69 69 69 68 68 74
66 66 66 66 67 68 69 70 71 70 69 68 68 69 71 71 72 72 72 72 72 73 73 73 73 74 76 77 78 79 80 80 80 79 80 81 80 78 77 76 75 76 76 75 74 75 75 76 77 79 81 80 78 78 80 83 63 66 67 67 66 67 74
69 70 69 70 69 69 69 72 72 72 69 70 69 70 70 71 73 73 72 73 72 72 72 72 71 72 73 73 74 75 78 78 79 79 78 77 77 77 76 76 75 75 75 75 72 71 72 74 79 80 80 78 78 78 78 80 63 62 64 63 66 67 84
75 75 76 75 76 74 74 75 75 74 73 72 71 70 70 71 73 73 73 73 72 71 70 70 69 70 70 70 70 71 73 74 75 76 76 75 74 75 76 75 74 74 75 74 73 73 74 76 77 80 80 80 81 82 81 82 66 60 60 61 61 71 86
76 76 77 77 76 76 75 75 76 76 76 75 73 73 72 72 72 73 73 73 73 73 71 69 68 69 69 68 68 68 69 71 72 72 72 71 72 72 72 72 72 73 74 73 71 71 71 71 75 79 81 81 82 83 82 83 69 61 59 61 61 69 81
75 77 77 77 77 76 76 75 75 75 75 75 73 74 75 73 73 74 73 73 74 74 72 70 69 69 69 69 69 68 68 68 68 67 67 67 68 69 71 71 71 71 71 71 71 71 71 72 73 75 78 79 80 79 79 81 72 57 58 58 60 71 81
74 76 77 78 78 77 75 75 76 76 76 75 76 78 77 77 74 72 72 74 75 73 72 72 71 72 72 72 70 69 69 70 68 66 65 65 65 65 65 67 70 71 71 71 71 71 71 72 73 75 76 78 78 79 79 78 74 63 54 57 59 61 73
76 77 76 77 76 76 77 77 77 76 76 75 77 79 79 77 75 72 71 72 72 72 73 73 74 73 72 73 72 71 70 69 68 68 68 67 66 66 67 66 66 68 70 69 69 70 70 71 72 72 72 71 72 74 74 73 72 64 53 55 55 58 65
76 78 78 76 74 76 77 77 76 76 77 76 77 79 79 77 74 73 72 72 72 73 76 75 74 74 73 72 72 71 71 70 69 69 69 70 70 69 68 69 70 70 70 70 70 69 69 70 71 69 67 67 68 69 69 70 68 70 59 54 54 54 58
71 72 73 74 75 77 78 76 76 75 75 77 76 76 77 77 73 73 73 72 72 75 75 75 75 74 74 73 72 71 71 71 72 71 72 71 70 69 68 69 70 71 72 71 70 69 69 68 67 66 64 64 64 64 66 67 67 64 67 58 54 53 55
72 72 72 74 75 76 78 75 76 76 75 75 74 74 74 73 72 72 72 71 75 76 76 75 75 75 75 75 74 73 72 72 73 73 73 73 72 70 69 69 70 70 71 71 69 67 66 65 65 64 63 62 62 63 63 64 64 64 64 64 58 55 53
73 74 73 72 72 73 74 74 73 74 74 75 73 72 71 72 71 71 70 73 75 75 75 75 75 75 75 75 75 74 74 73 72 72 72 74 72 70 69 69 69 68 69 69 68 66 64 63 64 63 62 61 61 62 62 62 62 62 63 64 64 59 57
73 75 76 75 73 74 74 74 74 74 73 73 75 74 72 72 72 69 70 75 76 76 76 75 74 73 73 75 75 76 77 76 75 74 72 72 73 71 71 69 68 67 66 66 66 66 65 63 62 62 62 61 61 61 61 61 61 61 63 64 65 64 61
72 73 73 72 73 74 75 75 73 71 71 70 73 75 75 73 74 72 72 74 78 78 75 75 74 73 74 74 76 75 75 74 75 75 74 73 72 71 69 68 66 67 67 66 66 66 65 65 64 62 62 62 62 61 61 61 61 60 59 61 62 64 64
71 72 72 72 73 73 74 73 72 71 71 70 71 72 73 74 73 73 73 75 75 76 75 74 74 75 74 75 75 75 76 75 72 73 74 72 71 71 71 71 70 67 64 64 65 66 65 65 63 62 62 61 61 61 62 62 63 61 58 59 60 60 60
72 72 72 72 72 72 72 72 72 71 70 70 72 72 72 72 73 73 72 72 73 73 73 73 73 74 74 75 75 73 74 75 75 76 75 72 70 67 64 66 69 69 67 65 64 63 65 67 63 63 63 63 62 62 63 64 65 63 53 54 50 51 55
72 72 72 73 73 73 72 72 72 71 71 71 72 72 72 71 71 72 74 73 73 73 72 72 73 74 74 75 76 76 76 75 76 74 75 77 74 70 66 55 47 54 65 66 56 48 43 49 62 61 63 64 63 62 62 63 62 50 43 42 42 43 43
71 71 71 73 72 72 72 72 72 72 71 71 72 73 72 72 72 72 73 73 72 72 71 72 71 73 75 74 74 72 74 76 75 74 72 74 75 74 71 70 62 45 44 51 50 46 41 40 41 44 48 58 65 58 49 52 47 42 41 41 42 41 42
73 72 72 73 72 71 71 71 71 72 71 72 72 72 72 73 73 72 74 73 73 73 71 71 71 71 73 74 73 72 72 75 73 74 74 72 72 72 71 71 69 64 47 42 47 45 42 41 41 41 43 44 50 61 64 52 47 42 41 41 42 43 42